[[{"header":{"parameterUnit":"m.s-1","parameterCategory":1,"la1":30.6,"la2":28.766,"lo1":-90.7593,"lo2":-88.6598,"dy":0.0162,"dx":0.0183,"nx":116,"ny":114,"refTime":"2023-08-07T06:00:00:Z","depth":0,"parameterNumber":2,"parameterNumberName":"U-component_of_WINDS"},"data":[0.0,0.0,0.0,0.0,0.0,0.0,0.0,0.0,0.0,0.0,0.0,0.0,0.0,0.0,0.0,0.0,0.0,0.0,0.0,0.0,0.0,0.0,0.0,0.0,0.0,0.0,0.0,0.0,0.0,0.0,0.0,0.0,0.0,0.0,0.0,0.0,0.0,0.0,0.0,0.0,0.0,0.0,0.0,0.0,0.0,0.0,0.0,0.0,0.0,0.0,0.0,0.0,0.0,0.0,0.0,0.0,0.0,0.0,0.0,0.0,0.0,0.0,0.0,0.0,0.0,0.0,0.0,0.0,0.0,0.0,0.0,0.0,0.0,0.0,0.0,0.0,0.0,0.0,0.0,0.0,0.0,0.0,0.0,0.0,0.0,0.0,0.0,0.0,0.0,0.0,0.0,0.0,0.0,0.0,0.0,0.0,0.0,0.0,0.0,0.0,0.0,0.0,0.0,0.0,0.0,0.0,0.0,0.0,0.0,0.0,0.0,0.0,0.0,0.0,0.0,0.0,0.0,0.0,0.0,0.0,0.0,0.0,0.0,0.0,0.0,0.0,0.0,0.0,0.0,0.0,0.0,0.0,0.0,0.0,0.0,0.0,0.0,0.0,0.0,0.0,0.0,0.0,0.0,0.0,0.0,0.0,0.0,0.0,0.0,0.0,0.0,0.0,0.0,0.0,0.0,0.0,0.0,0.0,0.0,0.0,0.0,0.0,0.0,0.0,0.0,0.0,0.0,0.0,0.0,0.0,0.0,0.0,0.0,0.0,0.0,0.0,0.0,0.0,0.0,0.0,0.0,0.0,0.0,0.0,0.0,0.0,0.0,0.0,0.0,0.0,0.0,0.0,0.0,0.0,0.0,0.0,0.0,0.0,0.0,0.0,0.0,0.0,0.0,0.0,0.0,0.0,0.0,0.0,0.0,0.0,0.0,0.0,0.0,0.0,0.0,0.0,0.0,0.0,0.0,0.0,0.0,0.0,0.0,0.0,0.0,0.0,0.0,0.0,0.0,0.0,0.0,0.0,0.0,0.0,0.0,0.0,0.0,0.0,0.0,0.0,0.0,0.0,0.0,0.0,0.0,0.0,0.0,0.0,0.0,0.0,0.0,0.0,0.0,0.0,0.0,0.0,0.0,0.0,0.0,0.0,0.0,0.0,0.0,0.0,0.0,0.0,0.0,0.0,0.0,0.0,0.0,0.0,0.0,0.0,0.0,0.0,0.0,0.0,0.0,0.0,0.0,0.0,0.0,0.0,0.0,0.0,0.0,0.0,0.0,0.0,0.0,0.0,0.0,0.0,0.0,0.0,0.0,0.0,0.0,0.0,0.0,0.0,0.0,0.0,0.0,0.0,0.0,0.0,0.0,0.0,0.0,0.0,0.0,0.0,0.0,0.0,0.0,0.0,0.0,0.0,0.0,0.0,0.0,0.0,0.0,0.0,0.0,0.0,0.0,0.0,0.0,0.0,0.0,0.0,0.0,0.0,0.0,0.0,0.0,0.0,0.0,0.0,0.0,0.0,0.0,0.0,0.0,0.0,0.0,0.0,0.0,0.0,0.0,0.0,0.0,0.0,0.0,0.0,0.0,0.0,0.0,0.0,0.0,0.0,0.0,0.0,0.0,0.0,0.0,0.0,0.0,0.0,0.0,0.0,0.0,0.0,0.0,0.0,0.0,0.0,0.0,0.0,0.0,0.0,0.0,0.0,0.0,0.0,0.0,0.0,0.0,0.0,0.0,0.0,0.0,0.0,0.0,0.0,0.0,0.0,0.0,0.0,0.0,0.0,0.0,0.0,0.0,0.0,0.0,0.0,0.0,0.0,0.0,0.0,0.0,0.0,0.0,0.0,0.0,0.0,0.0,0.0,0.0,0.0,0.0,0.0,0.0,0.0,0.0,0.0,0.0,0.0,0.0,0.0,0.0,0.0,0.0,0.0,0.0,0.0,0.0,0.0,0.0,0.0,0.0,0.0,0.0,0.0,0.0,0.0,0.0,0.0,0.0,0.0,0.0,0.0,0.0,0.0,0.0,0.0,0.0,0.0,0.0,0.0,0.0,0.0,0.0,0.0,0.0,0.0,0.0,0.0,0.0,0.0,0.0,0.0,0.0,0.0,0.0,0.0,0.0,0.0,0.0,0.0,0.0,0.0,0.0,0.0,0.0,0.0,0.0,0.0,0.0,0.0,0.0,0.0,0.0,0.0,0.0,0.0,0.0,0.0,0.0,0.0,0.0,0.0,0.0,0.0,0.0,0.0,0.0,0.0,0.0,0.0,0.0,0.0,0.0,0.0,0.0,0.0,0.0,0.0,0.0,0.0,0.0,0.0,0.0,0.0,0.0,0.0,0.0,0.0,0.0,0.0,0.0,0.0,0.0,0.0,0.0,0.0,0.0,0.0,0.0,0.0,0.0,0.0,0.0,0.0,0.0,0.0,0.0,0.0,0.0,0.0,0.0,0.0,0.0,0.0,0.0,0.0,0.0,0.0,0.0,0.0,0.0,0.0,0.0,0.0,0.0,0.0,0.0,0.0,0.0,0.0,0.0,0.0,0.0,0.0,0.0,0.0,0.0,0.0,0.0,0.0,0.0,0.0,0.0,0.0,0.0,0.0,0.0,0.0,0.0,0.0,0.0,0.0,0.0,0.0,0.0,0.0,0.0,0.0,0.0,0.0,0.0,0.0,0.0,0.0,0.0,0.0,0.0,0.0,0.0,0.0,0.0,0.0,0.0,0.0,0.0,0.0,0.0,0.0,0.0,0.0,0.0,0.0,0.0,0.0,0.0,0.0,0.0,0.0,0.0,0.0,0.0,0.0,0.0,0.0,0.0,0.0,0.0,0.0,0.0,0.0,0.0,0.0,0.0,0.0,0.0,0.0,0.0,0.0,0.0,0.0,0.0,0.0,0.0,0.0,0.0,0.0,0.0,0.0,0.0,0.0,0.0,0.0,0.0,0.0,0.0,0.0,0.0,0.0,0.0,0.0,0.0,0.0,0.0,0.0,0.0,0.0,0.0,0.0,0.0,0.0,0.0,0.0,0.0,0.0,0.0,0.0,0.0,0.0,0.0,0.0,0.0,0.0,0.0,0.0,0.0,0.0,0.0,0.0,0.0,0.0,0.0,0.0,0.0,0.0,0.0,0.0,0.0,0.0,0.0,0.0,0.0,0.0,0.0,0.0,0.0,0.0,0.0,0.0,0.0,0.0,0.0,0.0,0.0,0.0,0.0,0.0,0.0,0.0,0.0,0.0,0.0,0.0,0.0,0.0,0.0,0.0,0.0,0.0,0.0,0.0,0.0,0.0,0.0,0.0,0.0,0.0,0.0,0.0,0.0,0.0,0.0,0.0,0.0,0.0,0.0,0.0,0.0,0.0,0.0,0.0,0.0,0.0,0.0,0.0,0.0,0.0,0.0,0.0,0.0,0.0,0.0,0.0,0.0,0.0,0.0,0.0,0.0,0.0,0.0,0.0,0.0,0.0,0.0,0.0,0.0,0.0,0.0,0.0,0.0,0.0,0.0,0.0,0.0,0.0,0.0,0.0,0.0,0.0,0.0,0.0,0.0,0.0,0.0,0.0,0.0,0.0,0.0,0.0,0.0,0.0,0.0,0.0,0.0,0.0,0.0,0.0,0.0,0.0,0.0,0.0,0.0,0.0,0.0,0.0,0.0,0.0,0.0,0.0,0.0,0.0,0.0,0.0,0.0,0.0,0.0,0.0,0.0,0.0,0.0,0.0,0.0,0.0,0.0,0.0,0.0,0.0,0.0,0.0,0.0,0.0,0.0,0.0,0.0,0.0,0.0,0.0,0.0,0.0,0.0,0.0,0.0,0.0,0.0,0.0,0.0,0.0,0.0,0.0,0.0,0.0,0.0,0.0,0.0,0.0,0.0,0.0,0.0,0.0,0.0,0.0,0.0,0.0,0.0,0.0,0.0,0.0,0.0,0.0,0.0,0.0,0.0,0.0,0.0,0.0,0.0,0.0,0.0,0.0,0.0,0.0,0.0,0.0,0.0,0.0,0.0,0.0,0.0,0.0,0.0,0.0,0.0,0.0,0.0,0.0,0.0,0.0,0.0,0.0,0.0,0.0,0.0,0.0,0.0,0.0,0.0,0.0,0.0,0.0,0.0,0.0,0.0,0.0,0.0,0.0,0.0,0.0,0.0,0.0,0.0,0.0,0.0,0.0,0.0,0.0,0.0,0.0,0.0,0.0,0.0,0.0,0.0,0.0,0.0,0.0,0.0,0.0,0.0,0.0,0.0,0.0,0.0,0.0,0.0,0.0,0.0,0.0,0.0,0.0,0.0,0.0,0.0,0.0,0.0,0.0,0.0,0.0,0.0,0.0,0.0,0.0,0.0,0.0,0.0,0.0,0.0,0.0,0.0,0.0,0.0,0.0,0.0,0.0,0.0,0.0,0.0,0.0,0.0,0.0,0.0,0.0,0.0,0.0,0.0,0.0,0.0,0.0,0.0,0.0,0.0,0.0,0.0,0.0,0.0,0.0,0.0,0.0,0.0,0.0,0.0,0.0,0.0,0.0,0.0,0.0,0.0,0.0,0.0,0.0,0.0,0.0,0.0,0.0,0.0,0.0,0.0,0.0,0.0,0.0,0.0,0.0,0.0,0.0,0.0,0.0,0.0,0.0,0.0,0.0,0.0,0.0,0.0,0.0,0.0,0.0,0.0,0.0,0.0,0.0,0.0,0.0,0.0,0.0,0.0,0.0,0.0,0.0,0.0,0.0,0.0,0.0,0.0,0.0,0.0,0.0,0.0,0.0,0.0,0.0,0.0,0.0,0.0,0.0,0.0,0.0,0.0,0.0,0.0,0.0,0.0,0.0,0.0,0.0,0.0,0.0,0.0,0.0,0.0,0.0,0.0,0.0,0.0,0.0,0.0,0.0,0.0,0.0,0.0,0.0,0.0,0.0,0.0,0.0,0.0,0.0,0.0,0.0,0.0,0.0,0.0,0.0,0.0,0.0,0.0,0.0,0.0,0.0,0.0,0.0,0.0,0.0,0.0,0.0,0.0,0.0,0.0,0.0,0.0,0.0,0.0,0.0,0.0,0.0,0.0,0.0,0.0,0.0,0.0,0.0,0.0,0.0,0.0,0.0,0.0,0.0,0.0,0.0,0.0,0.0,0.0,0.0,0.0,0.0,0.0,0.0,0.0,0.0,0.0,0.0,0.0,0.0,0.0,0.0,0.0,0.0,0.0,0.0,0.0,0.0,0.0,0.0,0.0,0.0,0.0,0.0,0.0,0.0,0.0,0.0,0.0,0.0,0.0,0.0,0.0,0.0,0.0,0.0,0.0,0.0,0.0,0.0,0.0,0.0,0.0,0.0,0.0,0.0,0.0,0.0,0.0,0.0,0.0,0.0,0.0,0.0,0.0,0.0,0.0,0.0,0.0,0.0,0.0,0.0,0.0,0.0,0.0,0.0,0.0,0.0,0.0,0.0,0.0,0.0,0.0,0.0,0.0,0.0,0.0,0.0,0.0,0.0,0.0,0.0,0.0,0.0,0.0,0.0,0.0,0.0,0.0,0.0,0.0,0.0,0.0,0.0,0.0,0.0,0.0,0.0,0.0,0.0,0.0,0.0,0.0,0.0,0.0,0.0,0.0,0.0,0.0,0.0,0.0,0.0,0.0,0.0,0.0,0.0,0.0,0.0,0.0,0.0,0.0,0.0,0.0,0.0,0.0,0.0,0.0,0.0,0.0,0.0,0.0,0.0,0.0,0.0,0.0,0.0,0.0,0.0,0.0,0.0,0.0,0.0,0.0,0.0,0.0,0.0,0.0,0.0,0.0,0.0,0.0,0.0,0.0,0.0,0.0,0.0,0.0,0.0,0.0,0.0,0.0,0.0,0.0,0.0,0.0,0.0,0.0,0.0,0.0,0.0,0.0,0.0,0.0,0.0,0.0,0.0,0.0,0.0,0.0,0.0,0.0,0.0,0.0,0.0,0.0,0.0,0.0,0.0,0.0,0.0,0.0,0.0,0.0,0.0,0.0,0.0,0.0,0.0,0.0,0.0,0.0,0.0,0.0,0.0,0.0,0.0,0.0,0.0,0.0,0.0,0.0,0.0,0.0,0.0,0.0,0.0,-3.7665,-3.7246,0.0,0.0,0.0,0.0,0.0,0.0,0.0,0.0,0.0,0.0,0.0,0.0,0.0,0.0,0.0,0.0,0.0,0.0,0.0,0.0,0.0,0.0,0.0,0.0,0.0,0.0,0.0,0.0,0.0,0.0,0.0,0.0,0.0,0.0,0.0,0.0,0.0,0.0,0.0,0.0,0.0,0.0,0.0,0.0,0.0,0.0,0.0,0.0,0.0,0.0,0.0,0.0,0.0,0.0,0.0,0.0,0.0,0.0,0.0,0.0,0.0,0.0,0.0,0.0,0.0,0.0,0.0,0.0,0.0,0.0,0.0,0.0,0.0,0.0,0.0,0.0,0.0,0.0,0.0,0.0,0.0,0.0,0.0,0.0,0.0,0.0,0.0,0.0,0.0,0.0,0.0,0.0,0.0,0.0,0.0,0.0,0.0,0.0,0.0,0.0,0.0,0.0,0.0,0.0,0.0,0.0,0.0,0.0,0.0,0.0,0.0,0.0,0.0,0.0,-3.9442,-3.8553,0.0,0.0,0.0,0.0,0.0,0.0,0.0,0.0,0.0,0.0,0.0,0.0,0.0,0.0,0.0,0.0,0.0,0.0,0.0,0.0,0.0,0.0,0.0,0.0,0.0,0.0,0.0,0.0,0.0,0.0,0.0,0.0,0.0,0.0,0.0,0.0,0.0,0.0,0.0,0.0,0.0,0.0,0.0,0.0,0.0,0.0,0.0,0.0,0.0,0.0,0.0,0.0,0.0,0.0,0.0,0.0,0.0,0.0,0.0,0.0,0.0,0.0,0.0,0.0,0.0,0.0,0.0,0.0,0.0,0.0,0.0,0.0,0.0,0.0,0.0,0.0,0.0,0.0,0.0,0.0,0.0,0.0,0.0,0.0,0.0,0.0,0.0,0.0,0.0,0.0,0.0,0.0,0.0,0.0,0.0,0.0,0.0,0.0,0.0,0.0,0.0,0.0,0.0,0.0,0.0,0.0,0.0,0.0,-4.1428,-4.2526,-4.3075,-4.365,-4.4173,-4.454,-4.2134,-4.0697,-4.0017,-3.9625,0.0,0.0,0.0,0.0,0.0,0.0,0.0,0.0,0.0,0.0,0.0,0.0,0.0,0.0,0.0,0.0,0.0,0.0,0.0,0.0,0.0,0.0,0.0,0.0,0.0,0.0,0.0,0.0,0.0,0.0,0.0,0.0,0.0,0.0,0.0,0.0,0.0,0.0,0.0,0.0,0.0,0.0,0.0,0.0,0.0,0.0,0.0,0.0,0.0,0.0,0.0,0.0,0.0,0.0,0.0,0.0,0.0,0.0,0.0,0.0,0.0,0.0,0.0,0.0,0.0,0.0,0.0,0.0,0.0,0.0,0.0,0.0,0.0,0.0,0.0,0.0,0.0,0.0,0.0,0.0,0.0,0.0,0.0,0.0,0.0,0.0,-3.1967,-3.2408,0.0,0.0,0.0,0.0,0.0,0.0,0.0,0.0,0.0,0.0,0.0,0.0,0.0,-3.9886,-4.1531,-4.2552,-4.3363,-4.3938,-4.5192,-4.6107,-4.6682,-4.7231,-4.7545,-4.7597,-4.7205,0.0,-4.1924,-4.2265,0.0,0.0,0.0,0.0,0.0,0.0,0.0,0.0,0.0,0.0,0.0,0.0,0.0,0.0,0.0,0.0,0.0,0.0,0.0,0.0,0.0,0.0,0.0,0.0,0.0,0.0,0.0,0.0,0.0,0.0,0.0,0.0,0.0,0.0,0.0,0.0,0.0,0.0,0.0,0.0,0.0,0.0,0.0,0.0,0.0,0.0,0.0,0.0,0.0,0.0,0.0,0.0,0.0,0.0,0.0,0.0,0.0,0.0,0.0,0.0,0.0,0.0,0.0,0.0,0.0,0.0,0.0,0.0,0.0,0.0,0.0,0.0,0.0,0.0,0.0,0.0,0.0,0.0,0.0,0.0,0.0,0.0,0.0,0.0,0.0,-3.2463,-3.3103,-3.3934,-3.4382,-3.4669,0.0,0.0,0.0,0.0,0.0,0.0,0.0,0.0,0.0,-4.1559,-4.2186,-4.331,-4.5062,-4.5898,-4.6734,-4.7649,-4.8799,-4.9662,-5.0263,-5.0838,-5.1126,-5.1126,-5.1126,-4.9348,-4.6369,-4.4696,-4.284,-4.0984,0.0,0.0,0.0,0.0,-3.9625,-3.9756,0.0,0.0,0.0,0.0,0.0,0.0,0.0,0.0,0.0,0.0,0.0,0.0,0.0,0.0,0.0,0.0,0.0,0.0,0.0,0.0,0.0,0.0,0.0,0.0,0.0,0.0,0.0,0.0,0.0,0.0,0.0,0.0,0.0,0.0,0.0,0.0,0.0,0.0,0.0,0.0,0.0,0.0,0.0,0.0,0.0,0.0,0.0,0.0,0.0,0.0,0.0,0.0,0.0,0.0,0.0,0.0,0.0,0.0,0.0,0.0,0.0,0.0,0.0,0.0,0.0,0.0,0.0,0.0,0.0,0.0,0.0,0.0,0.0,0.0,0.0,0.0,0.0,-3.343,-3.4162,-3.5096,-3.5713,-3.6053,0.0,0.0,0.0,0.0,0.0,0.0,-4.088,-4.2004,-4.3415,-4.5195,-4.5767,-4.6891,-4.8643,-4.9374,-5.0237,-5.123,-5.2223,-5.3008,-5.3609,-5.4053,-5.4262,-5.4262,-5.4262,-5.3112,-5.0969,-4.7675,-4.5114,-4.3206,-4.2474,-4.1768,-4.1167,-4.1324,-4.1611,-4.2056,0.0,0.0,0.0,0.0,0.0,0.0,0.0,0.0,0.0,0.0,0.0,0.0,0.0,0.0,0.0,0.0,0.0,0.0,0.0,0.0,0.0,0.0,0.0,0.0,0.0,0.0,0.0,0.0,0.0,0.0,0.0,0.0,0.0,0.0,0.0,0.0,0.0,0.0,0.0,0.0,0.0,0.0,0.0,0.0,0.0,0.0,0.0,0.0,0.0,0.0,0.0,0.0,0.0,0.0,0.0,0.0,0.0,0.0,0.0,0.0,0.0,0.0,0.0,0.0,0.0,0.0,0.0,0.0,0.0,0.0,0.0,0.0,0.0,0.0,0.0,0.0,0.0,0.0,0.0,-3.4908,-3.5626,0.0,0.0,0.0,0.0,-3.939,-4.1507,-4.3284,-4.446,-4.5584,-4.7022,-4.8773,-4.9348,-5.0472,-5.2223,-5.3347,-5.421,-5.4863,-5.5412,-5.6013,-5.6588,-5.6615,-5.6641,-5.6641,-5.6641,-5.5961,-5.4602,-5.1701,-4.8826,-4.6316,-4.6787,-4.6316,-4.5401,-4.5924,-4.6159,-4.6264,0.0,0.0,0.0,0.0,0.0,0.0,0.0,0.0,0.0,0.0,0.0,0.0,0.0,0.0,0.0,0.0,0.0,0.0,0.0,0.0,0.0,0.0,0.0,0.0,0.0,0.0,0.0,0.0,0.0,0.0,0.0,0.0,0.0,0.0,0.0,0.0,0.0,0.0,0.0,0.0,0.0,0.0,0.0,0.0,0.0,0.0,0.0,0.0,0.0,0.0,0.0,0.0,0.0,0.0,0.0,0.0,0.0,0.0,0.0,0.0,0.0,0.0,0.0,0.0,0.0,0.0,0.0,0.0,0.0,0.0,0.0,0.0,0.0,0.0,0.0,0.0,0.0,0.0,0.0,-3.8231,-3.9368,0.0,-4.0937,-4.1796,-4.2474,-4.2866,-4.5036,-4.6682,-4.7492,-4.9322,-5.1152,-5.2903,-5.387,-5.5177,-5.6902,-5.6954,-5.7268,-5.7843,-5.766,-5.7686,-5.7895,-5.7895,-5.7712,-5.7346,-5.7346,-5.6693,-5.5569,-5.4916,-5.2302,-4.8669,-4.8512,-4.7519,-4.629,-4.7231,-4.7336,-4.7153,0.0,0.0,0.0,0.0,0.0,0.0,0.0,0.0,0.0,0.0,0.0,0.0,0.0,0.0,0.0,0.0,0.0,0.0,0.0,0.0,0.0,0.0,0.0,0.0,0.0,0.0,0.0,0.0,0.0,0.0,0.0,0.0,0.0,0.0,0.0,0.0,0.0,0.0,0.0,0.0,0.0,0.0,-4.2851,0.0,0.0,0.0,0.0,0.0,0.0,0.0,0.0,0.0,0.0,0.0,0.0,0.0,0.0,0.0,0.0,0.0,0.0,0.0,0.0,0.0,0.0,0.0,0.0,0.0,0.0,0.0,0.0,0.0,0.0,0.0,0.0,0.0,0.0,-3.7194,-3.8998,-4.1298,-4.2631,-4.3702,-4.467,-4.5454,-4.6081,-4.6447,-4.8799,-5.0551,-5.1335,-5.3373,-5.5151,-5.651,-5.7268,-5.8314,-5.9647,-5.9281,-5.9281,-5.9647,-5.9255,-5.8993,-5.881,-5.881,-5.8497,-5.7948,-5.7948,-5.7503,-5.6798,-5.7007,-5.5177,-5.2145,-5.1413,-5.0159,-4.8878,-4.9427,-4.9531,-4.9479,0.0,0.0,0.0,0.0,0.0,0.0,0.0,0.0,0.0,0.0,0.0,0.0,0.0,0.0,0.0,0.0,0.0,0.0,0.0,0.0,0.0,0.0,0.0,0.0,0.0,0.0,0.0,0.0,0.0,0.0,0.0,0.0,0.0,0.0,0.0,0.0,0.0,0.0,0.0,0.0,0.0,0.0,-4.5933,0.0,0.0,0.0,0.0,0.0,0.0,0.0,0.0,0.0,0.0,0.0,0.0,0.0,0.0,0.0,0.0,0.0,0.0,0.0,0.0,0.0,0.0,0.0,0.0,0.0,0.0,0.0,0.0,0.0,0.0,0.0,0.0,0.0,-3.8762,-3.9808,-4.1455,-4.3834,-4.5088,-4.6055,-4.6656,-4.7754,-4.8878,-5.0002,-5.2746,-5.4837,-5.5961,-5.766,-5.8862,-5.9385,-5.9437,-5.9699,-6.0274,-6.0248,-6.0248,-6.0248,-6.0222,-5.9934,-5.9385,-5.9385,-5.9072,-5.8549,-5.8549,-5.8523,-5.847,-5.7921,-5.7346,-5.6719,-5.5595,-5.4445,-5.3347,-5.2772,-5.2929,-5.34,0.0,0.0,0.0,0.0,0.0,0.0,0.0,0.0,0.0,0.0,0.0,0.0,0.0,0.0,0.0,0.0,0.0,0.0,0.0,0.0,0.0,0.0,0.0,0.0,0.0,0.0,0.0,0.0,0.0,0.0,0.0,0.0,0.0,0.0,0.0,0.0,0.0,0.0,0.0,0.0,0.0,0.0,-4.677,0.0,0.0,0.0,0.0,0.0,0.0,0.0,0.0,0.0,0.0,0.0,0.0,0.0,0.0,0.0,0.0,0.0,0.0,0.0,0.0,0.0,0.0,0.0,0.0,0.0,0.0,0.0,0.0,0.0,0.0,0.0,-3.8998,-3.9939,-3.9939,-4.2396,-4.5192,-4.7911,-4.9244,-5.0498,-5.1936,-5.3112,-5.3922,-5.4236,-5.6536,-5.8078,-5.8392,-5.9673,-6.0483,-6.064,-6.1032,-6.1319,-6.1476,-6.1084,-6.0875,-6.0875,-6.0431,-6.0143,-5.9986,-5.9986,-5.9673,-5.9124,-5.9124,-5.8889,-5.8497,-5.834,-5.7948,-5.7346,-5.6641,-5.536,-5.4001,-5.4288,-5.3975,-5.34,0.0,0.0,0.0,0.0,0.0,0.0,0.0,0.0,0.0,0.0,0.0,0.0,0.0,0.0,0.0,0.0,0.0,0.0,0.0,0.0,0.0,0.0,0.0,0.0,0.0,0.0,0.0,0.0,0.0,0.0,0.0,0.0,0.0,0.0,0.0,0.0,0.0,0.0,0.0,0.0,0.0,0.0,-4.9883,-4.707,-4.5274,-4.4077,-4.2581,-4.1692,-4.0822,-3.8361,0.0,0.0,0.0,0.0,0.0,0.0,0.0,0.0,0.0,0.0,0.0,0.0,0.0,0.0,0.0,0.0,0.0,0.0,0.0,0.0,0.0,0.0,0.0,0.0,-4.1768,-4.3572,-4.4278,-4.595,-4.8224,-5.1335,-5.2511,-5.3661,-5.5151,-5.6327,-5.7007,-5.7007,-5.8915,-6.0091,-6.0091,-6.1189,-6.1738,-6.1476,-6.2025,-6.2208,-6.1973,-6.1633,-6.1476,-6.1476,-6.111,-6.0823,-6.0588,-6.0326,-5.9908,-5.9359,-5.9098,-5.881,-5.8523,-5.8523,-5.8314,-5.7974,0.0,0.0,0.0,0.0,-5.4863,-5.4105,0.0,0.0,0.0,0.0,0.0,0.0,0.0,0.0,0.0,0.0,0.0,0.0,0.0,0.0,0.0,0.0,0.0,0.0,0.0,0.0,0.0,0.0,0.0,0.0,0.0,0.0,0.0,0.0,0.0,0.0,0.0,0.0,0.0,0.0,0.0,0.0,0.0,0.0,0.0,0.0,0.0,0.0,-5.4132,-5.0301,-4.8656,-4.8057,-4.5454,-4.3183,-4.1088,-3.9024,0.0,0.0,0.0,0.0,0.0,0.0,0.0,0.0,0.0,0.0,0.0,0.0,0.0,0.0,0.0,0.0,0.0,0.0,0.0,0.0,0.0,0.0,0.0,0.0,-4.5166,-4.8355,-5.0132,-5.008,-5.1021,-5.4131,-5.502,-5.5804,-5.6902,-5.8026,-5.8679,-5.8627,-6.0222,-6.1189,-6.111,-6.2156,0.0,0.0,0.0,-6.2548,-6.1973,-6.2025,-6.2025,-6.1973,-6.1973,-6.1711,-6.1189,-6.0588,-6.0013,-5.9437,-5.8862,-5.8575,-5.8523,-5.8523,-5.8523,-5.8444,-5.7817,-5.7216,-5.6641,-5.604,-5.5517,-5.5099,0.0,0.0,0.0,0.0,0.0,0.0,0.0,0.0,0.0,0.0,0.0,0.0,0.0,0.0,0.0,0.0,0.0,0.0,0.0,0.0,0.0,0.0,0.0,0.0,0.0,0.0,0.0,0.0,0.0,0.0,0.0,0.0,0.0,0.0,0.0,0.0,0.0,0.0,0.0,0.0,0.0,0.0,-5.6226,-5.3324,-5.093,-4.885,-4.6681,-4.5132,-4.3632,-4.0972,-4.0182,-3.9771,-3.7139,0.0,0.0,0.0,0.0,0.0,0.0,0.0,0.0,0.0,0.0,0.0,0.0,0.0,0.0,0.0,0.0,0.0,0.0,0.0,0.0,-4.5062,-4.8094,-5.089,-5.306,-5.4079,-5.502,-5.617,-5.6824,-5.7425,-5.8131,-5.9228,-5.9699,-5.9228,-6.0823,-6.1607,-6.1136,-6.1764,-6.2077,-6.1973,-6.2522,-6.2548,-6.1973,-6.2443,-6.2443,-6.1973,-6.1973,0.0,-6.179,-6.1215,-6.0614,-6.0013,-5.9437,-5.8941,-5.8523,-5.8523,-5.8523,-5.8418,-5.7373,-5.6615,-5.6013,-5.5465,-5.5203,-5.5099,0.0,0.0,0.0,0.0,0.0,0.0,0.0,0.0,0.0,0.0,0.0,0.0,0.0,0.0,0.0,0.0,0.0,0.0,0.0,0.0,0.0,0.0,0.0,0.0,0.0,0.0,0.0,0.0,0.0,0.0,0.0,0.0,0.0,0.0,0.0,0.0,0.0,0.0,0.0,0.0,0.0,0.0,-5.883,-5.6166,-5.3503,-5.096,-4.8985,-4.6696,-4.4265,-4.2285,-4.1013,-4.0074,-3.8398,-3.7456,-3.6828,0.0,0.0,0.0,0.0,0.0,0.0,0.0,0.0,0.0,0.0,0.0,0.0,0.0,0.0,-3.9677,-4.1428,0.0,-4.6029,-4.8616,-5.0995,-5.3191,-5.5229,-5.6249,-5.6902,-5.719,-5.7477,-5.7869,-5.8444,-5.9281,-5.9803,-5.9803,-6.0875,-6.1424,-6.1136,-6.1947,-6.213,-6.1555,-6.2365,-6.2548,-6.1973,-6.226,-6.226,-6.1973,-6.1973,-6.1973,-6.1947,-6.1398,-6.0797,-6.0195,-5.962,-5.9045,-5.8523,-5.8523,-5.8523,-5.8418,-5.7582,-5.7059,-5.6745,-5.6484,-5.6379,-5.6379,0.0,0.0,0.0,0.0,0.0,0.0,0.0,0.0,0.0,0.0,0.0,0.0,0.0,0.0,0.0,0.0,0.0,0.0,0.0,0.0,0.0,0.0,0.0,0.0,0.0,0.0,0.0,0.0,0.0,0.0,0.0,0.0,0.0,0.0,0.0,0.0,0.0,0.0,0.0,0.0,0.0,0.0,-6.0625,-5.8082,-5.5628,-5.3264,-5.1003,-4.7683,-4.4227,-4.3015,-4.1259,-3.9547,-3.9155,-3.8658,-3.8083,-3.7377,-3.6671,0.0,0.0,0.0,0.0,0.0,0.0,0.0,0.0,0.0,-3.7769,-3.952,-4.1272,-4.3127,-4.5218,-4.7466,-4.9688,-5.1779,-5.3661,-5.536,-5.6771,-5.7477,-5.7817,-5.7817,-5.7817,-5.8,-5.847,-5.9045,-5.9542,-6.0013,-6.0614,-6.1006,-6.111,-6.1999,-6.213,-6.1319,-6.2287,-6.2548,-6.1973,-6.2077,-6.2077,-6.1973,-6.1973,-6.1921,-6.179,-6.1215,-6.0614,-6.0013,-5.9437,-5.8941,-5.8497,-5.8392,-5.834,-5.8287,-5.7582,-5.7399,-5.7503,-5.7704,-5.7651,-5.7503,0.0,0.0,0.0,0.0,0.0,0.0,0.0,0.0,0.0,0.0,0.0,0.0,0.0,0.0,0.0,0.0,0.0,0.0,0.0,0.0,0.0,0.0,0.0,0.0,0.0,0.0,0.0,0.0,0.0,0.0,0.0,0.0,0.0,0.0,0.0,0.0,0.0,0.0,0.0,0.0,0.0,0.0,-5.9967,-5.7872,-5.6196,-5.4551,-5.1332,-4.7729,-4.4273,-4.297,-4.1213,-3.9677,-4.0095,-3.986,-3.9207,-3.8109,0.0,-3.5861,-3.4711,-3.445,-3.4737,-3.5678,-3.5966,-3.6698,0.0,0.0,-4.2028,-4.3729,-4.5454,-4.7048,-4.8355,-5.0472,-5.2433,-5.3713,-5.5804,-5.7416,-5.7529,-5.8052,-5.8418,-5.8418,-5.8418,-5.8444,-5.8497,-5.9045,-5.9385,-5.9464,-5.9986,-6.0561,-6.1084,-6.1241,-6.1476,-6.1868,-6.2496,-6.2548,-6.1973,-6.2469,-6.2469,-6.1973,-6.1973,-6.1711,-6.1189,-6.0588,-6.0013,-5.9437,-5.8862,-5.8575,-5.847,-5.7974,-5.7835,-5.7634,-5.6536,-5.6432,-5.6981,-5.7477,-5.7346,-5.6981,0.0,0.0,0.0,0.0,0.0,0.0,0.0,0.0,0.0,0.0,0.0,0.0,0.0,0.0,0.0,0.0,0.0,0.0,0.0,0.0,0.0,0.0,0.0,0.0,0.0,0.0,0.0,0.0,0.0,0.0,0.0,0.0,0.0,0.0,0.0,0.0,0.0,0.0,0.0,0.0,0.0,0.0,-5.8141,-5.6166,-5.3892,-5.1468,-4.9314,-4.6063,0.0,0.0,-3.9778,-3.9128,-3.9337,-3.9259,-3.8919,-3.8135,-3.7063,0.0,-3.5129,-3.5417,-3.6123,-3.6933,-3.8161,-3.9703,-4.1925,-4.3337,-4.4774,-4.6865,-4.8381,-4.9793,-5.1309,-5.2642,-5.3975,-5.5465,-5.6536,-5.7399,-5.8052,-5.7791,-5.7529,-5.7529,-5.7216,-5.7399,-5.8418,-5.8732,-5.8993,-5.9333,-5.9594,-5.9986,-6.0561,-6.0927,-6.1241,-6.1476,-6.2025,-6.2208,-6.1973,-6.2208,-6.2208,-6.1973,-6.1633,-6.1346,-6.111,-6.0509,-5.9908,-5.9379,-5.8418,-5.8026,-5.7974,-5.7399,-5.7163,-5.7137,-5.6981,-5.6876,-5.685,-5.7085,-5.7007,-5.6902,0.0,0.0,0.0,0.0,0.0,0.0,0.0,0.0,0.0,0.0,0.0,0.0,0.0,0.0,0.0,0.0,0.0,0.0,0.0,0.0,0.0,0.0,0.0,0.0,0.0,0.0,0.0,0.0,0.0,0.0,0.0,0.0,0.0,0.0,0.0,0.0,0.0,0.0,0.0,0.0,0.0,0.0,-5.5748,-5.3443,-5.0631,-4.7788,-4.683,-4.4115,0.0,0.0,-3.8082,-3.7832,-3.7946,-3.7978,-3.7926,-3.7534,-3.6567,-3.5626,-3.5547,-3.6358,-3.7508,-3.8579,-4.0566,-4.2762,-4.4643,-4.6212,-4.7832,-4.9871,-5.1178,-5.2328,-5.3426,-5.421,-5.5046,-5.6144,-5.6745,-5.7216,-5.7712,-5.7085,-5.6432,-5.6118,-5.5569,-5.5778,-5.719,-5.7895,-5.8523,-5.9098,-5.9281,-5.9699,-6.0431,-6.0718,-6.1032,-6.1346,-6.1607,-6.1816,-6.1973,-6.1973,-6.1894,-6.1738,-6.1319,-6.0953,-6.0614,-6.0013,-5.9437,-5.8908,-5.8096,-5.7651,-5.7373,-5.6798,-5.6667,-5.6824,-5.6928,-5.6902,-5.6798,-5.6615,-5.6667,-5.6876,0.0,0.0,0.0,0.0,0.0,0.0,0.0,0.0,0.0,0.0,0.0,0.0,0.0,0.0,0.0,0.0,0.0,0.0,0.0,0.0,0.0,0.0,0.0,0.0,0.0,0.0,0.0,0.0,0.0,0.0,0.0,0.0,0.0,0.0,0.0,0.0,0.0,0.0,0.0,0.0,0.0,0.0,-5.2935,-4.9703,-4.68,-4.4466,-4.4436,0.0,0.0,0.0,-3.6338,-3.5681,-3.6052,-3.6175,0.0,-3.6175,-3.5338,-3.4685,-3.5783,-3.6959,-3.8423,-4.0644,-4.2944,-4.5271,-4.7545,-4.9793,-5.1779,-5.3008,-5.4184,-5.4811,-5.4262,-5.5099,-5.57,-5.5229,-5.6562,-5.7242,-5.6144,-5.5961,-5.5517,-5.4419,-5.3792,-5.3687,-5.4262,-5.6379,-5.7921,-5.8497,-5.9045,-5.9882,-6.1032,-6.0561,-6.0771,-6.1921,-6.1424,-6.1424,-6.1973,-6.1973,-6.1685,-6.1136,-6.1136,-6.0535,-5.9385,-5.8836,-5.8261,-5.7782,-5.7756,-5.7346,-5.6798,-5.6196,-5.6275,-5.6693,-5.5595,-5.5857,-5.6745,-5.6144,-5.6301,-5.6798,0.0,0.0,0.0,0.0,0.0,0.0,0.0,0.0,0.0,0.0,0.0,0.0,0.0,0.0,0.0,0.0,0.0,0.0,0.0,0.0,0.0,0.0,0.0,0.0,0.0,0.0,0.0,0.0,0.0,0.0,0.0,0.0,0.0,0.0,0.0,0.0,0.0,0.0,0.0,0.0,0.0,0.0,-4.9583,-4.6262,-4.3629,-4.1534,0.0,0.0,0.0,0.0,0.0,0.0,-3.3799,0.0,0.0,-3.4424,-3.4711,-3.5417,-3.7325,-3.952,-4.1951,-4.4589,-4.7048,-4.927,-5.1204,-5.2511,-5.3452,-5.3844,-5.3034,-5.2067,-5.1465,-5.1361,-5.1675,-5.2616,-5.4236,-5.5491,-5.5857,-5.5255,-5.4367,-5.3217,-5.2903,-5.2877,-5.306,-5.4811,-5.6353,-5.732,-5.7921,-5.8732,-5.9882,-5.9751,-6.0195,-6.1372,-6.0823,-6.0797,-6.1398,-6.1006,-6.0718,-6.0509,-6.0143,-5.9359,-5.8306,-5.8026,-5.7634,-5.7085,-5.7085,-5.6981,-5.6798,-5.6588,-5.6379,-5.6223,-5.6223,-5.6223,-5.6223,-5.6432,-5.6379,-5.6223,0.0,0.0,0.0,0.0,0.0,0.0,0.0,0.0,0.0,0.0,0.0,0.0,0.0,0.0,0.0,0.0,0.0,0.0,0.0,0.0,0.0,0.0,0.0,0.0,0.0,0.0,0.0,0.0,0.0,0.0,0.0,0.0,0.0,0.0,0.0,0.0,0.0,0.0,0.0,0.0,0.0,0.0,-4.5514,-4.2641,-4.0636,0.0,0.0,0.0,0.0,0.0,0.0,0.0,-3.2188,-3.2489,-3.3091,-3.3692,-3.4842,-3.6541,-3.9468,-4.2213,-4.4957,-4.7832,-5.0159,-5.2067,-5.34,-5.3792,-5.3739,-5.3112,-5.1492,-4.9819,-4.859,-4.825,-4.8512,-4.9584,-5.123,-5.2694,-5.3635,-5.3321,-5.272,-5.1962,-5.1884,-5.1962,-5.2145,-5.34,-5.4916,-5.6667,-5.7529,-5.8366,-5.9379,-5.9359,-5.9803,-6.0771,-6.0222,-6.0195,-6.0797,-6.0405,-6.0117,-5.9908,-5.9333,-5.8575,-5.773,-5.773,-5.7216,-5.6484,-5.6484,-5.6379,-5.6196,-5.6196,-5.6092,-5.5935,-5.6118,-5.6092,-5.5935,-5.6118,-5.583,-5.5334,0.0,0.0,0.0,0.0,0.0,0.0,0.0,0.0,0.0,0.0,0.0,0.0,0.0,0.0,0.0,0.0,0.0,0.0,0.0,0.0,0.0,0.0,0.0,0.0,0.0,0.0,0.0,0.0,0.0,0.0,0.0,0.0,0.0,0.0,0.0,0.0,0.0,0.0,0.0,0.0,0.0,0.0,-4.1055,-3.905,0.0,0.0,0.0,0.0,0.0,0.0,0.0,0.0,0.0,-3.1496,-3.2267,-3.4058,-3.5835,-3.8109,-4.216,-4.4931,-4.7388,-5.0263,-5.2223,-5.3556,-5.4053,-5.3661,-5.272,-5.1021,-4.961,-4.8015,0.0,-4.582,-4.6238,-4.6395,-4.7963,-4.9348,-4.9949,-5.0551,-5.0917,-5.089,-5.0917,-5.1152,-5.1727,-5.2328,-5.3844,-5.6641,-5.7791,-5.8653,-5.9281,-5.9307,-5.9594,-6.0169,-5.962,-5.9594,-6.0169,-6.0143,-5.9856,-5.9281,-5.8732,-5.8157,-5.7651,-5.7678,-5.6981,-5.5883,-5.5935,-5.5647,-5.5151,-5.5177,-5.5465,-5.5857,-5.5334,-5.5412,-5.5752,-5.5255,-5.468,-5.4236,0.0,0.0,0.0,0.0,0.0,0.0,0.0,0.0,0.0,0.0,0.0,0.0,0.0,0.0,0.0,0.0,0.0,0.0,0.0,0.0,0.0,0.0,0.0,0.0,0.0,0.0,0.0,0.0,0.0,0.0,0.0,0.0,0.0,0.0,0.0,0.0,0.0,0.0,0.0,0.0,0.0,0.0,-3.9709,0.0,0.0,0.0,0.0,0.0,0.0,0.0,0.0,0.0,0.0,-3.2934,-3.4162,-3.6358,-3.8527,-4.1089,-4.5085,-4.7937,-5.0289,-5.272,-5.3661,-5.3922,-5.3661,-5.2145,-5.042,-4.9113,-4.5898,-4.3127,-4.2526,-4.216,-4.2814,-4.5428,-4.8015,-5.0185,-5.1622,-5.2354,-5.2563,-5.2119,-5.2459,-5.3112,-5.4105,-5.4707,-5.57,-5.732,-5.6902,-5.7216,-5.8653,-5.8732,-5.8993,-5.9568,-5.9019,-5.9019,-5.9568,-5.915,-5.8653,-5.8149,-5.7948,-5.7346,-5.6379,-5.6824,-5.6405,-5.536,-5.6196,-5.6249,-5.5726,-5.6196,-5.6196,-5.5883,-5.5752,-5.5255,-5.4628,-5.4471,-5.4079,-5.3687,0.0,0.0,0.0,0.0,0.0,0.0,0.0,0.0,0.0,0.0,0.0,0.0,0.0,0.0,0.0,0.0,0.0,0.0,0.0,0.0,0.0,0.0,0.0,0.0,0.0,0.0,0.0,0.0,0.0,0.0,0.0,0.0,0.0,0.0,0.0,0.0,0.0,0.0,0.0,0.0,0.0,0.0,0.0,0.0,0.0,0.0,0.0,0.0,0.0,0.0,0.0,-3.3103,-3.4241,-3.5547,-3.7194,-3.9782,0.0,-4.4408,-4.8172,-5.0551,-5.2354,-5.4158,-5.4027,-5.3164,-5.2093,-4.9871,-4.7414,-4.5218,-4.2317,-4.0017,-3.952,-3.9364,-4.0278,0.0,0.0,0.0,-5.0655,-5.1492,-5.2197,0.0,-5.3556,-5.421,-5.5334,-5.5726,-5.6405,-5.7651,-5.7059,-5.7216,-5.8444,-5.8523,-5.8653,-5.8967,-5.8679,-5.8653,-5.8993,-5.8679,-5.8235,-5.773,-5.773,-5.7033,-5.5935,-5.6536,-5.6327,-5.5491,-5.6144,-5.6223,-5.5909,-5.6013,-5.5857,-5.5517,-5.5255,-5.4759,-5.4184,-5.3949,-5.3661,-5.3478,0.0,0.0,0.0,0.0,0.0,0.0,0.0,0.0,0.0,0.0,0.0,0.0,0.0,0.0,0.0,0.0,0.0,0.0,0.0,0.0,0.0,0.0,0.0,0.0,0.0,0.0,0.0,0.0,0.0,0.0,0.0,0.0,0.0,0.0,0.0,0.0,0.0,0.0,0.0,0.0,0.0,0.0,0.0,0.0,0.0,0.0,0.0,0.0,0.0,0.0,-3.4162,-3.5051,-3.6881,-3.8815,-4.0932,-4.365,-4.5744,-4.7754,-5.0969,-5.2642,-5.3739,-5.4733,-5.3609,-5.1805,-4.9976,-4.7231,-4.4121,-4.0853,-3.9155,-3.8004,-3.7168,-3.7429,-3.8606,-4.1141,0.0,-4.5245,-4.8799,-4.9714,-5.1126,-5.4079,-5.4367,-5.4837,-5.6118,-5.6249,-5.6667,-5.7686,-5.7835,-5.8,-5.8497,-5.8523,-5.8523,-5.8523,-5.8523,-5.8523,-5.8523,-5.8523,-5.8183,-5.7556,-5.7556,-5.6928,-5.583,-5.651,-5.6432,-5.5804,-5.604,-5.6013,-5.5778,-5.536,-5.5177,-5.5046,-5.4524,-5.4236,-5.4053,-5.3635,-5.34,-5.3373,0.0,0.0,0.0,0.0,0.0,0.0,0.0,0.0,0.0,0.0,-4.1315,0.0,0.0,0.0,0.0,0.0,0.0,0.0,0.0,0.0,0.0,0.0,0.0,0.0,0.0,0.0,0.0,0.0,0.0,0.0,0.0,0.0,0.0,0.0,0.0,0.0,0.0,0.0,0.0,0.0,0.0,0.0,0.0,0.0,0.0,0.0,0.0,0.0,0.0,0.0,-3.5286,-3.6933,-3.9128,-4.203,-4.4957,-4.6865,-4.8669,-5.0498,-5.2537,-5.3556,-5.4105,-5.4314,-5.272,-5.0498,-4.8277,-4.48,0.0,0.0,-3.7351,-3.6123,-3.6854,-3.709,-3.837,-4.2134,-4.3781,-4.6003,-4.9949,-5.0577,-5.1884,0.0,-5.5229,-5.5778,-5.7869,-5.8052,-5.8157,-5.834,-5.8366,-5.8418,-5.8497,-5.8523,-5.8523,-5.8523,-5.8523,-5.8523,-5.8523,-5.8523,-5.8,-5.6954,-5.6954,-5.6353,-5.5282,-5.6327,-5.6223,-5.5308,-5.6745,-5.6562,-5.5282,-5.5621,-5.5517,-5.5099,-5.4994,-5.4367,-5.3583,-5.3922,-5.3452,-5.2798,0.0,0.0,0.0,0.0,0.0,0.0,0.0,0.0,0.0,-4.1058,-4.1095,-4.1062,0.0,0.0,0.0,0.0,0.0,0.0,0.0,0.0,0.0,0.0,0.0,0.0,0.0,0.0,-3.8971,-4.0113,0.0,0.0,0.0,-3.9644,0.0,0.0,0.0,0.0,0.0,0.0,0.0,0.0,0.0,0.0,0.0,0.0,0.0,0.0,0.0,0.0,0.0,0.0,-3.5338,-3.756,-4.0775,-4.3964,-4.6917,-4.8956,-5.0551,-5.1988,-5.3426,-5.4236,-5.4524,-5.3922,-5.1596,-4.8669,-4.5741,0.0,0.0,0.0,-3.5835,-3.5547,-3.6384,-3.7037,0.0,-4.1219,-4.2892,-4.5166,-4.8904,-4.9714,-5.1282,-5.5046,-5.5255,-5.5883,-5.7869,-5.834,-5.8523,-5.8523,-5.8523,-5.8523,-5.8523,-5.8523,-5.8523,-5.8523,-5.8523,-5.8523,-5.8523,-5.8523,-5.7948,-5.6798,-5.6798,-5.6353,-5.5543,-5.6405,-5.6667,-5.6458,-5.6981,-5.6745,-5.5961,-5.5621,-5.5334,-5.5072,-5.4759,-5.4314,-5.3818,-5.3792,-5.3609,-5.3452,0.0,0.0,0.0,0.0,0.0,0.0,0.0,-4.0047,-4.0451,-4.1242,-4.1352,-4.1262,-4.1033,-3.9597,-3.8383,0.0,0.0,0.0,0.0,0.0,0.0,0.0,0.0,0.0,0.0,0.0,0.0,-3.9876,-3.9436,0.0,0.0,0.0,0.0,0.0,-3.7998,-3.7621,0.0,0.0,0.0,0.0,0.0,0.0,0.0,0.0,0.0,0.0,0.0,0.0,0.0,0.0,-3.489,-3.7063,-4.0618,-4.4225,-4.7519,-4.9322,-5.1126,-5.272,-5.3739,-5.4471,-5.4628,-5.3478,-5.0498,-4.6944,-4.3598,-4.0174,0.0,0.0,-3.4868,-3.5469,-3.5992,0.0,0.0,0.0,-4.1402,-4.3598,-4.731,-4.8329,-5.0263,0.0,-5.5125,0.0,-5.7573,-5.8183,-5.8523,-5.8523,-5.8392,-5.834,-5.834,-5.834,-5.834,-5.834,-5.834,-5.8392,-5.8523,-5.8392,-5.7817,-5.6798,-5.6798,-5.6432,-5.5752,-5.6484,-5.6928,-5.7111,-5.6902,-5.6667,-5.6379,-5.5595,-5.5203,-5.5046,-5.4576,-5.4314,-5.4158,-5.387,-5.3949,-5.421,0.0,0.0,0.0,0.0,0.0,0.0,0.0,-4.0524,-4.1295,-4.2103,-4.2176,-4.1886,-4.1069,-4.0108,-3.9034,0.0,0.0,0.0,0.0,0.0,0.0,0.0,0.0,0.0,0.0,0.0,0.0,-3.9106,-3.9706,0.0,0.0,0.0,0.0,0.0,0.0,-3.8423,-3.7387,0.0,0.0,0.0,0.0,0.0,0.0,0.0,0.0,0.0,0.0,0.0,0.0,0.0,0.0,-3.4972,-3.6933,-4.169,-4.6604,-4.6813,0.0,0.0,-5.3295,-5.387,-5.4001,-5.2877,-4.9584,-4.5872,-4.2918,0.0,-3.6567,-3.4763,-3.4868,-3.5469,-3.5992,0.0,0.0,0.0,0.0,-4.1507,0.0,-4.7127,-4.9191,-5.3739,0.0,0.0,-5.7599,-5.8183,-5.8523,-5.8523,-5.8026,-5.7739,-5.7739,-5.7739,-5.7739,-5.7739,-5.7739,-5.7974,-5.8497,-5.8,-5.7425,-5.6798,-5.6798,-5.6223,-5.5203,-5.6301,-5.6275,-5.5386,-5.6379,-5.6223,-5.5282,-5.5674,-5.5543,-5.5099,-5.5046,-5.468,-5.4262,-5.4759,-5.4628,-5.4288,0.0,0.0,0.0,0.0,0.0,0.0,0.0,-4.0157,-4.0855,-4.2139,-4.2272,-4.1928,-4.1106,-4.0344,-3.9193,0.0,0.0,0.0,0.0,0.0,0.0,0.0,0.0,0.0,0.0,0.0,-3.7821,-3.9005,-3.9276,0.0,0.0,0.0,0.0,0.0,0.0,-3.7328,-3.6877,-3.6877,0.0,0.0,0.0,0.0,0.0,0.0,0.0,0.0,0.0,0.0,0.0,0.0,0.0,0.0,-3.3434,-3.6305,0.0,0.0,-4.6525,-4.9218,-5.0838,-5.2485,-5.3347,-5.1858,-4.8695,-4.5218,-4.2317,0.0,-3.607,-3.4685,-3.4868,-3.5469,-3.5992,0.0,0.0,0.0,0.0,0.0,0.0,0.0,-4.6578,-5.157,-5.2825,-5.4314,-5.6902,-5.766,-5.8,-5.8,-5.7791,-5.7346,-5.6641,-5.6954,-5.7137,-5.7137,-5.7137,-5.7268,-5.7477,-5.7268,-5.685,-5.6275,-5.6641,-5.6379,-5.5621,-5.6432,-5.6562,-5.6144,-5.6223,-5.6013,-5.5569,-5.5465,-5.5308,-5.5099,-5.5099,-5.4968,-5.4759,-5.502,-5.4942,-5.4785,0.0,0.0,0.0,0.0,0.0,0.0,-3.979,-3.99,-4.0377,-4.1772,-4.1872,-4.1528,-4.0723,-4.0112,-3.8987,-3.7145,0.0,0.0,0.0,0.0,0.0,0.0,0.0,0.0,0.0,0.0,-3.731,-3.8387,-3.8647,-3.8598,0.0,0.0,-3.7767,-3.6754,0.0,0.0,0.0,0.0,0.0,0.0,0.0,0.0,0.0,0.0,0.0,0.0,0.0,0.0,0.0,0.0,0.0,0.0,0.0,0.0,0.0,0.0,-4.3232,-4.6159,-4.8303,-5.0577,-5.2014,-5.0629,-4.7675,-4.4408,0.0,0.0,-3.5783,-3.4633,-3.4868,-3.5469,-3.5992,0.0,0.0,0.0,0.0,0.0,-4.1585,-4.2552,-4.4752,-4.9396,0.0,-5.2559,-5.5907,-5.7266,-5.8236,-5.8853,-5.835,-5.7751,-5.7117,-5.7371,-5.741,-5.7123,-5.6741,-5.6899,-5.7652,-5.7082,-5.6693,-5.6432,-5.685,-5.6846,-5.6516,-5.7123,-5.7203,-5.6859,-5.641,-5.6051,-5.5647,-5.5255,-5.5099,-5.5099,-5.5099,-5.5099,-5.5099,-5.5099,-5.5099,-5.5099,0.0,0.0,0.0,0.0,0.0,0.0,0.0,-3.99,-4.0194,-4.1022,-4.1029,-4.0687,-3.9918,-3.9281,-3.8416,-3.711,0.0,0.0,0.0,0.0,0.0,0.0,0.0,0.0,0.0,0.0,-3.6875,-3.7011,-3.7765,-3.8169,-3.8306,-3.8306,-3.7998,-3.7387,0.0,0.0,0.0,0.0,0.0,0.0,0.0,0.0,0.0,0.0,0.0,0.0,0.0,0.0,0.0,0.0,0.0,0.0,0.0,0.0,0.0,0.0,-3.9834,-4.4278,-4.6029,-4.8172,-4.9793,-4.9244,-4.6473,-4.3284,0.0,0.0,-3.5783,-3.4633,-3.4868,-3.5469,-3.5992,-3.6593,0.0,0.0,0.0,0.0,-4.101,-4.2317,-4.4256,0.0,-4.9484,-5.1664,-5.462,-5.7071,-5.9398,-6.1575,-5.9913,-5.9112,-5.983,-5.9339,-5.8681,-5.7895,-5.6623,-5.7138,-5.9643,-5.7747,-5.7085,-5.7704,-5.773,-5.7762,-5.7922,-5.8518,-5.8139,-5.7092,-5.7092,-5.634,-5.5125,-5.5099,-5.5099,-5.5099,-5.5099,-5.5099,-5.5099,-5.5099,-5.5099,-5.5099,0.0,0.0,0.0,0.0,0.0,0.0,0.0,-3.9093,-3.9355,-4.0113,-4.0105,-3.9829,-3.9246,-3.8683,-3.7842,-3.6609,0.0,0.0,0.0,0.0,0.0,0.0,0.0,0.0,0.0,0.0,-3.651,-3.7623,-3.7825,-3.8074,-3.8306,-3.8306,-3.7767,-3.6785,-3.6785,-3.6693,0.0,0.0,0.0,0.0,0.0,0.0,-3.5973,0.0,0.0,0.0,0.0,0.0,0.0,0.0,0.0,0.0,0.0,0.0,0.0,0.0,0.0,0.0,-4.1298,-4.3467,-4.5062,-4.4487,-4.2657,-4.0566,-3.905,0.0,-3.5338,-3.4554,-3.4868,-3.5469,-3.5992,-3.6593,0.0,0.0,0.0,0.0,0.0,0.0,0.0,-4.7661,-5.2964,-5.7141,-5.9478,-6.0767,-6.1358,-6.122,-6.0616,-5.9994,-5.9402,-5.9661,-5.9697,-5.9384,-5.8585,-5.8686,-5.9968,-5.8907,-5.8494,-5.8686,-5.9034,-5.9008,-5.8745,-5.9292,-5.9126,-5.8439,-5.8439,-5.7706,-5.6471,-5.6471,-5.5908,-5.5099,-5.5099,-5.5099,-5.5099,-5.5099,-5.5099,-5.5099,0.0,0.0,0.0,0.0,0.0,0.0,0.0,-3.8689,-3.8841,-3.926,-3.9081,-3.8791,-3.8492,-3.7835,-3.7116,-3.6374,0.0,0.0,0.0,0.0,0.0,0.0,0.0,0.0,0.0,-3.56,-3.6125,-3.7211,-3.7211,-3.7373,-3.7621,-3.7621,-3.7207,-3.6507,-3.6507,-3.6507,0.0,0.0,0.0,0.0,0.0,0.0,-3.5973,0.0,0.0,0.0,0.0,0.0,0.0,0.0,0.0,0.0,0.0,0.0,0.0,0.0,-3.3352,0.0,0.0,-4.0305,-4.1951,-4.1585,-4.0383,0.0,0.0,0.0,-3.5182,-3.4816,-3.5025,-3.5521,-3.6305,-3.675,0.0,0.0,0.0,0.0,0.0,0.0,0.0,-4.9341,-5.4995,-5.9451,-6.1767,-6.2032,-6.2151,-6.2433,-6.1936,-6.1331,-6.0624,-6.1232,-6.1578,-6.1578,-6.0189,-6.0053,-6.1115,-5.999,-5.9542,-5.9767,-6.0069,-6.0181,-6.0176,-6.0484,-6.0341,-5.9834,-5.9834,-5.8843,0.0,-5.7642,-5.7092,-5.5908,-5.6405,-5.6601,-5.6536,-5.6039,-5.5842,-5.5776,0.0,0.0,0.0,0.0,0.0,0.0,0.0,0.0,0.0,0.0,-3.8065,-3.7738,-3.7613,-3.6836,-3.6284,0.0,0.0,0.0,0.0,0.0,0.0,0.0,0.0,0.0,0.0,-3.5577,-3.5738,-3.6173,-3.612,-3.6253,-3.6538,-3.6538,-3.6538,-3.6507,-3.6507,-3.6507,-3.6507,-3.6507,-3.6507,-3.6476,-3.6132,-3.6005,0.0,0.0,0.0,0.0,0.0,0.0,0.0,0.0,0.0,0.0,0.0,0.0,0.0,0.0,0.0,0.0,0.0,0.0,0.0,0.0,0.0,0.0,0.0,0.0,0.0,-3.5286,-3.5365,-3.573,-3.6802,-3.7037,0.0,0.0,0.0,0.0,0.0,-4.2744,-4.6953,-5.2432,-5.6165,-5.9275,-6.1918,-6.1524,-6.2154,-6.4785,-6.382,-6.3051,-6.3081,-6.3707,-6.4036,-6.4006,-6.1639,-6.1183,-6.2968,-6.1063,-6.0406,-6.0935,-6.097,-6.1354,-6.198,-6.198,-6.175,-6.1226,-6.1226,-5.9773,-5.7451,-5.869,-5.8376,-5.7221,-5.8439,-5.8877,-5.8627,-5.7386,-5.6963,-5.6769,0.0,0.0,0.0,0.0,0.0,0.0,0.0,0.0,0.0,0.0,-3.7808,-3.7449,-3.6716,-3.643,-3.617,0.0,0.0,0.0,0.0,0.0,0.0,0.0,0.0,0.0,0.0,-3.5201,-3.5569,-3.6807,-3.6358,-3.6533,-3.7178,-3.7178,-3.6937,-3.6507,-3.6507,-3.6507,-3.6507,-3.6507,-3.6507,-3.6476,-3.6132,-3.6068,0.0,0.0,0.0,0.0,-3.5522,-3.4872,0.0,0.0,0.0,0.0,0.0,0.0,0.0,0.0,-3.2626,-3.2934,-3.4084,0.0,-3.5809,-3.5809,-3.56,-3.5338,0.0,0.0,0.0,0.0,0.0,0.0,-3.6959,0.0,0.0,0.0,0.0,-4.0413,-4.1653,-4.654,-5.1701,-5.6362,-5.9363,-6.1525,-6.2724,-6.3535,-6.4275,-6.4964,-6.4696,-6.407,-6.3139,-6.4156,-6.4545,-6.4006,-6.3387,-6.3328,-6.3743,-6.2795,-6.244,-6.2529,-6.2588,-6.2618,-6.2793,-6.2793,-6.2762,-6.2643,-6.2643,-6.1703,-6.0141,-6.0534,-5.9217,-5.7157,-5.7451,-5.6963,-5.5973,-5.567,-5.5604,-5.5538,0.0,0.0,0.0,0.0,0.0,0.0,0.0,0.0,0.0,0.0,0.0,0.0,0.0,0.0,0.0,0.0,0.0,0.0,0.0,0.0,0.0,0.0,0.0,0.0,-3.56,-3.5085,-3.5399,-3.6568,-3.604,-3.6197,-3.6998,-3.6998,-3.6816,-3.6507,-3.6507,-3.6507,-3.6507,-3.6507,-3.6507,-3.6507,-3.6195,0.0,0.0,0.0,0.0,0.0,-3.5621,-3.5037,0.0,-3.4632,-3.3776,-3.2618,0.0,0.0,0.0,0.0,-3.3353,-3.4224,-3.418,-3.4281,-3.4476,-3.4737,-3.4607,-3.4653,0.0,0.0,0.0,0.0,0.0,0.0,0.0,0.0,0.0,0.0,-4.0603,-4.1831,-4.4776,-4.841,-5.2636,-5.7567,-5.9624,-6.1553,-6.3768,-6.3797,-6.3917,-6.4515,-6.4306,-6.3827,-6.3109,-6.4006,-6.4246,-6.3588,-6.3588,-6.3707,-6.4006,-6.3378,-6.3079,-6.3079,-6.3079,-6.3079,-6.3079,-6.3079,-6.3079,-6.3079,-6.3079,-6.2321,-6.1166,-6.1762,-6.0776,-5.903,-5.9588,-5.903,-5.7797,-5.7157,-5.6536,-5.5908,0.0,0.0,0.0,0.0,0.0,0.0,0.0,0.0,0.0,0.0,0.0,0.0,0.0,0.0,0.0,0.0,0.0,0.0,0.0,0.0,0.0,0.0,0.0,-3.552,-3.5655,-3.503,-3.5158,-3.612,-3.557,-3.5718,-3.6507,-3.6507,-3.6507,-3.6507,-3.6507,-3.6507,-3.6507,-3.6507,-3.6507,-3.6476,-3.6289,0.0,0.0,0.0,0.0,0.0,0.0,0.0,0.0,-3.5273,-3.4534,-3.3404,-3.3918,0.0,0.0,0.0,0.0,0.0,-3.5104,-3.4875,-3.4884,-3.5537,-3.5315,-3.5417,0.0,0.0,0.0,0.0,0.0,0.0,0.0,-3.8872,0.0,-4.1446,-4.2363,-4.4355,-4.9021,-5.0417,-5.2793,-5.7819,-5.9155,-6.0954,-6.4126,-6.3109,-6.272,-6.3917,-6.3528,-6.3169,-6.3079,-6.3647,-6.3707,-6.3109,-6.3079,-6.3318,-6.3857,-6.3348,-6.3079,-6.3079,-6.3079,-6.3079,-6.3079,-6.3079,-6.3079,-6.3079,-6.3079,-6.2468,-6.1465,-6.2643,-6.2321,-6.1226,-6.2321,-6.1969,-6.0655,-5.9498,-5.832,-5.7085,0.0,0.0,0.0,0.0,0.0,0.0,0.0,0.0,0.0,0.0,0.0,0.0,0.0,0.0,0.0,0.0,0.0,0.0,0.0,0.0,0.0,0.0,-3.4911,-3.5219,-3.5826,-3.4807,-3.4927,-3.627,-3.5722,-3.5798,-3.6507,-3.6507,-3.6507,-3.6507,-3.6507,-3.6507,-3.6507,-3.6507,-3.6507,-3.6476,-3.6289,0.0,0.0,0.0,0.0,0.0,0.0,0.0,0.0,-3.6071,-3.5712,-3.5183,-3.6601,0.0,0.0,0.0,0.0,0.0,-3.5368,-3.6062,-3.6511,-3.73,-3.7405,-3.7597,0.0,0.0,0.0,0.0,0.0,0.0,0.0,-4.0721,-4.1418,-4.2609,-4.58,-4.9918,-5.5045,-5.6355,-5.7517,-5.9543,-6.138,-6.2271,-6.1762,-6.245,-6.3228,-6.3947,-6.3917,-6.3617,-6.3109,-6.3647,-6.3707,-6.3109,-6.3079,-6.3109,-6.3228,-6.3139,-6.3079,-6.3079,-6.3079,-6.3079,-6.3079,-6.3079,-6.3079,-6.3079,-6.3079,-6.3021,-6.2817,-6.3021,-6.2321,-6.1106,-6.1346,-6.0566,-5.9375,-5.9189,-5.8603,-5.775,0.0,0.0,0.0,0.0,0.0,0.0,0.0,0.0,0.0,0.0,0.0,0.0,0.0,0.0,0.0,0.0,0.0,0.0,0.0,0.0,0.0,-3.5364,-3.4789,-3.4774,-3.5411,-3.4627,-3.4893,-3.6316,-3.576,-3.583,-3.6507,-3.6507,-3.6507,-3.6507,-3.6507,-3.6507,-3.6507,-3.6507,-3.6507,-3.6476,0.0,0.0,0.0,0.0,0.0,0.0,0.0,0.0,0.0,0.0,-3.6783,-3.6516,-3.7475,0.0,0.0,0.0,0.0,0.0,-3.7767,-3.8331,-3.8995,-4.0198,-3.9452,-3.8851,-4.0265,0.0,0.0,0.0,0.0,0.0,0.0,0.0,-4.3158,-4.6214,-4.933,-5.2486,-5.5628,-5.6346,-5.7304,-5.9308,-6.0386,-6.1253,-6.2091,-6.2391,-6.281,-6.3468,-6.3169,-6.2989,-6.3079,-6.3348,-6.3378,-6.3079,-6.3079,-6.3079,-6.3079,-6.3079,-6.3079,-6.3079,-6.272,-6.272,-6.3079,-6.272,-6.275,-6.3049,-6.269,-6.2331,-6.2032,-6.2032,-6.166,-6.1113,-6.1113,-6.0734,-6.0022,-5.8946,-5.7673,-5.6459,0.0,0.0,0.0,0.0,0.0,0.0,0.0,0.0,0.0,0.0,0.0,0.0,0.0,0.0,0.0,0.0,0.0,0.0,0.0,0.0,-3.4985,-3.5432,-3.4669,-3.4546,-3.5294,-3.4786,-3.5109,-3.6364,-3.5949,-3.5984,-3.6507,-3.6507,-3.6507,-3.6507,-3.6507,-3.6507,-3.6507,-3.6507,-3.6507,-3.6507,0.0,0.0,0.0,0.0,0.0,0.0,0.0,0.0,0.0,0.0,0.0,0.0,0.0,0.0,0.0,-3.7587,-3.8164,-3.9073,-3.9654,-4.0084,-4.0688,-4.2303,0.0,-4.021,-4.2123,-4.2013,0.0,0.0,0.0,0.0,0.0,-4.3748,-4.5417,-4.993,-5.2515,-5.4521,-5.6316,-5.6705,-5.7603,-5.9787,-6.0027,-6.0835,-6.2869,-6.263,-6.2597,-6.3164,-6.2714,-6.2655,-6.3164,-6.3194,-6.3194,-6.3079,-6.2929,-6.2839,-6.2839,-6.269,-6.278,-6.3079,-6.2421,-6.2361,-6.281,-6.2181,-6.2151,-6.26,-6.2091,-6.1493,-6.0864,-6.0864,-6.0864,-6.0864,-6.0864,-6.0986,-6.088,-5.8877,-5.7065,-5.5675,0.0,0.0,0.0,0.0,0.0,0.0,0.0,0.0,0.0,0.0,0.0,0.0,0.0,0.0,0.0,0.0,0.0,0.0,0.0,0.0,-3.461,-3.4151,-3.417,-3.483,-3.6184,-3.5694,-3.5767,-3.6477,-3.6446,-3.6445,-3.6507,-3.6507,-3.6507,-3.6507,-3.6507,-3.6507,-3.6507,-3.6507,-3.6507,-3.6507,-3.6507,0.0,0.0,0.0,0.0,0.0,0.0,0.0,0.0,0.0,0.0,0.0,0.0,0.0,-3.8293,-3.8816,-3.793,-3.7284,-3.9498,-4.0115,-4.0568,-4.2269,-4.2419,0.0,-4.3807,-4.4065,0.0,-4.4952,0.0,0.0,0.0,-4.6642,-4.9029,-5.239,-5.467,-5.7064,-6.0236,-6.1224,-6.1882,-6.269,-6.278,-6.2869,-6.3049,-6.3049,-6.3134,-6.3481,-6.3421,-6.3421,-6.3481,-6.3481,-6.3367,-6.3137,-6.248,-6.2181,-6.2181,-6.1553,-6.1882,-6.3079,-6.2421,-6.2121,-6.2151,-6.1493,-6.1224,-6.1253,-6.1194,-6.0805,-6.0146,-6.0146,-6.0146,-6.0146,-6.0146,-6.054,-6.0883,-5.8925,-5.7737,-5.6791,0.0,0.0,0.0,0.0,0.0,0.0,0.0,0.0,0.0,0.0,0.0,0.0,0.0,0.0,0.0,0.0,0.0,0.0,0.0,0.0,-3.4405,-3.4626,-3.4486,-3.4825,-3.5789,-3.5581,-3.5829,-3.6507,-3.6507,-3.6507,-3.6507,-3.6507,-3.6507,-3.6507,-3.6507,-3.6507,-3.6507,-3.6507,-3.6507,-3.6538,-3.6938,-3.7123,0.0,0.0,0.0,0.0,0.0,0.0,0.0,0.0,-3.8648,0.0,0.0,0.0,-3.9637,-4.0441,-4.0118,-3.9925,-4.1765,-4.2002,-4.2016,-4.321,-4.3654,0.0,0.0,-4.5999,-4.6791,-4.6052,-4.7219,-4.8117,-4.7309,-4.8775,-5.1199,-5.4491,-5.6705,-5.9009,-6.1912,-6.254,-6.281,-6.3049,-6.3079,-6.3079,-6.3079,-6.3079,-6.3194,-6.3481,-6.309,-6.2962,-6.3101,-6.2708,-6.2259,-6.178,-6.1765,-6.1533,-6.1112,-6.0706,-6.0715,-6.1224,-6.0535,-6.0446,-6.0805,-6.0176,-6.0086,-6.0446,-6.0057,-5.9249,-5.8231,-5.8231,-5.8231,-5.8351,-5.9608,-5.9997,-5.9822,-5.95,-5.8428,-5.7138,0.0,0.0,0.0,0.0,0.0,0.0,0.0,0.0,0.0,0.0,0.0,0.0,0.0,0.0,0.0,0.0,0.0,0.0,-3.5108,-3.426,-3.3951,-3.44,-3.4463,-3.4809,-3.5419,-3.5704,-3.6014,-3.6507,-3.6507,-3.6507,-3.6507,-3.6507,-3.6507,-3.6507,-3.6722,-3.6815,-3.6815,-3.703,-3.7123,-3.7184,-3.7615,-3.7831,0.0,0.0,0.0,0.0,0.0,0.0,0.0,0.0,0.0,0.0,0.0,0.0,0.0,0.0,-4.1372,-4.154,-4.3107,-4.3062,-4.2891,0.0,0.0,0.0,-4.6184,-4.7581,-4.841,-4.7712,-4.894,-4.9927,-4.9075,-5.0182,-5.2306,-5.5679,-5.7812,-6.0082,-6.2804,-6.3252,-6.3252,-6.3252,-6.3309,-6.3367,-6.3252,-6.3309,-6.33,-6.3131,-6.2708,-6.2365,-6.2129,-6.1673,-6.1163,-6.06,-6.0651,-6.0452,-5.9999,-5.9573,-5.9255,-5.8991,-5.8541,-5.8727,-5.9458,-5.877,-5.871,-5.9129,-5.865,-5.7842,-5.6795,-5.6795,-5.6795,-5.6944,-5.853,-5.9009,-5.8776,-5.8897,-5.8176,-5.7218,0.0,0.0,0.0,0.0,0.0,0.0,0.0,0.0,0.0,0.0,0.0,0.0,0.0,0.0,0.0,0.0,0.0,0.0,-3.4036,-3.3527,-3.3214,-3.3214,-3.4048,-3.4736,-3.5275,-3.6071,-3.6507,-3.6507,-3.6507,-3.6507,-3.6507,-3.6507,-3.6507,-3.6538,-3.7184,-3.7492,-3.7554,-3.8231,-3.8508,-3.8508,-3.8508,-3.8508,-3.86,0.0,0.0,0.0,0.0,0.0,0.0,0.0,0.0,0.0,0.0,0.0,0.0,0.0,-4.1193,-4.1389,-4.2884,-4.2872,-4.2857,0.0,0.0,0.0,-4.8359,-4.8793,-4.8922,-5.0002,-5.0196,-5.0196,-5.0196,-5.0734,-5.2336,-5.5709,-5.7842,-6.0136,-6.309,-6.3538,-6.3538,-6.3508,-6.3823,-6.3849,-6.3508,-6.3793,-6.3528,-6.2456,-6.2395,-6.176,-6.0499,-6.0407,-6.025,-5.9872,-5.9235,-5.8902,-5.8902,-5.8234,-5.7465,-5.6626,-5.6626,-5.7114,-5.8082,-5.7393,-5.7094,-5.7094,-5.7094,-5.6735,-5.6218,-5.6218,-5.6166,-5.6278,-5.6855,-5.7513,-5.7952,-5.6757,-5.6694,-5.7018,0.0,0.0,0.0,0.0,0.0,0.0,0.0,0.0,0.0,0.0,0.0,0.0,0.0,0.0,0.0,0.0,0.0,0.0,-3.5284,-3.4444,-3.4103,-3.464,-3.5014,-3.5273,-3.5421,-3.6137,-3.6507,-3.6507,-3.6507,-3.6507,-3.6507,-3.6507,-3.6753,-3.7215,-3.74,-3.7769,-3.8231,-3.8415,-3.8508,-3.8539,-3.9031,-3.9216,-3.9247,0.0,0.0,0.0,0.0,0.0,0.0,0.0,0.0,0.0,0.0,0.0,0.0,0.0,-4.2523,-4.3008,-4.3973,-4.4327,0.0,-4.4908,0.0,0.0,0.0,-4.9054,0.0,0.0,-5.1558,-5.1079,-5.1528,-5.2157,-5.3631,-5.6714,-5.8271,-6.0191,-6.3373,-6.3652,-6.3595,-6.3823,-6.3936,-6.3542,-6.2461,-6.2481,-6.2099,-6.1057,-6.0508,-6.0368,-6.0638,-6.026,-5.9932,-5.9829,-5.946,-5.9051,-5.8563,-5.7659,-5.6839,-5.6133,-5.6183,-5.6385,-5.6735,-5.6526,-5.6436,-5.6436,-5.6436,-5.6077,-5.5478,-5.5478,-5.5748,-5.6248,-5.6376,-5.6825,-5.7401,-5.7559,-5.7665,-5.771,0.0,0.0,0.0,0.0,0.0,0.0,0.0,0.0,0.0,0.0,0.0,0.0,0.0,0.0,0.0,0.0,0.0,0.0,0.0,-3.5315,-3.4857,-3.53,-3.5447,-3.5614,-3.5861,-3.6292,-3.6507,-3.6507,-3.6507,-3.6507,-3.6507,-3.6753,-3.7123,-3.7523,-3.8077,-3.8539,-3.8939,-3.9152,-3.9275,-3.937,-4.0078,-4.017,-3.992,0.0,0.0,0.0,0.0,0.0,0.0,0.0,0.0,0.0,0.0,0.0,0.0,0.0,-4.3242,-4.3697,-4.4611,-4.5008,0.0,-4.5788,-4.6954,-4.8268,-4.9351,0.0,0.0,0.0,-5.3597,-5.3182,-5.3302,-5.3664,-5.4767,-5.7332,-5.8233,-5.9824,-6.3254,-6.29,-6.2632,-6.3645,-6.3146,-6.2445,-6.1788,-6.1591,-6.0874,-5.9492,-5.8971,-5.8592,-5.8423,-5.7993,-5.7777,-5.7777,-5.7629,-5.7346,-5.6917,-5.6342,-5.5798,-5.5256,-5.5305,-5.5274,-5.518,-5.5741,-5.5879,-5.5777,-5.5777,-5.5568,-5.5179,-5.5179,-5.5418,-5.5777,-5.5777,-5.6166,-5.6765,-5.7184,-5.7513,-5.7647,0.0,0.0,0.0,0.0,0.0,0.0,0.0,0.0,0.0,0.0,0.0,0.0,0.0,0.0,0.0,0.0,0.0,0.0,0.0,0.0,-3.5429,-3.5493,-3.5542,-3.5891,-3.6476,-3.6507,-3.6507,-3.6507,-3.6507,-3.6507,-3.6507,-3.7184,-3.7523,-3.7646,-3.8939,-3.9521,-3.9613,-4.0228,-4.0505,-4.0566,-4.1309,-4.1217,-4.0659,-4.134,0.0,0.0,0.0,0.0,0.0,0.0,0.0,0.0,0.0,0.0,0.0,-4.3439,-4.3506,-4.3693,-4.4978,0.0,0.0,-4.6916,-4.781,0.0,-5.0741,-5.3172,-5.5129,-5.5379,-5.5739,-5.5797,-5.525,-5.5129,-5.5785,-5.7882,-5.8043,-5.9158,-6.2823,-6.1691,-6.1202,-6.3122,-6.1958,-6.1059,-6.1255,-6.0914,-5.9839,-5.7795,-5.7641,-5.6761,-5.4868,-5.4775,-5.4806,-5.4868,-5.4806,-5.4775,-5.4775,-5.4714,-5.4559,-5.4279,-5.434,-5.4057,-5.361,-5.4877,-5.525,-5.4999,-5.4999,-5.4999,-5.4999,-5.4999,-5.4999,-5.4999,-5.5089,-5.5478,-5.6017,-5.6188,-5.6526,-5.7004,0.0,0.0,0.0,0.0,0.0,0.0,0.0,0.0,0.0,0.0,0.0,0.0,0.0,0.0,0.0,0.0,0.0,0.0,0.0,0.0,-3.5702,-3.6228,-3.6292,-3.6353,-3.6507,-3.6507,-3.6507,-3.6507,-3.6507,-3.6507,-3.6507,-3.7184,-3.7769,-3.8323,-3.9154,-3.9767,-4.029,-4.0443,-4.0505,-4.0566,-4.1309,-4.1494,-4.137,-4.1555,-4.1494,0.0,0.0,0.0,0.0,0.0,0.0,0.0,0.0,-4.2848,-4.3439,-4.3562,-4.3956,-4.4503,0.0,-4.5909,0.0,0.0,-4.8932,-5.092,-5.226,-5.4124,-5.5306,-5.4539,-5.525,-5.615,-5.6514,-5.615,-5.6686,-5.9448,-5.8754,-5.911,-6.248,-6.189,-6.1622,-6.281,-6.2587,-6.1757,-6.026,-6.0034,-5.8916,-5.633,-5.6146,-5.5961,-5.5499,-5.5468,-5.5745,-5.6347,-5.5776,-5.5468,-5.5468,-5.4976,-5.4406,-5.3837,-5.436,-5.4173,-5.3357,-5.3796,-5.3868,-5.3623,-5.3623,-5.3623,-5.3623,-5.3623,-5.3623,-5.3653,-5.4221,-5.4491,-5.476,-5.5777,-5.6308,-5.6332,0.0,0.0,0.0,0.0,0.0,0.0,0.0,0.0,0.0,0.0,0.0,0.0,0.0,0.0,0.0,0.0,0.0,0.0,0.0,0.0,0.0,-3.6507,-3.6507,-3.663,-3.6969,-3.6661,-3.6661,-3.6969,-3.6969,-3.6969,-3.6999,-3.7677,-3.8354,-3.9031,-3.9674,-4.0166,-4.0505,-4.0505,-4.0505,-4.0566,-4.1309,-4.1401,-4.1124,-4.1463,-4.137,-4.1124,-4.1463,0.0,0.0,0.0,0.0,0.0,0.0,0.0,-4.4086,-4.4086,-4.4332,-4.4825,0.0,0.0,0.0,0.0,0.0,-5.1829,-5.304,-5.4543,-5.5544,-5.4922,-5.6158,-5.7442,-5.7778,-5.7839,-5.8318,-5.988,-5.9083,-5.9236,-6.1941,-6.0761,-6.0239,-6.1686,-6.0701,-5.9624,-5.8885,-5.8208,-5.71,-5.5376,-5.4945,-5.4607,-5.4268,-5.4268,-5.4453,-5.4822,-5.4145,-5.3775,-5.3775,-5.3437,-5.3098,-5.276,-5.3437,-5.3423,-5.2841,-5.333,-5.3447,-5.3174,-5.3174,-5.3174,-5.3174,-5.3174,-5.3174,-5.3204,-5.3563,-5.3922,-5.4281,-5.497,-5.5448,-5.5696,0.0,0.0,0.0,0.0,0.0,0.0,0.0,0.0,0.0,0.0,0.0,0.0,0.0,0.0,0.0,0.0,0.0,0.0,0.0,0.0,0.0,-3.6692,-3.6661,-3.6999,-3.7677,-3.7123,-3.7123,-3.7677,-3.7677,-3.7738,-3.7861,-3.8415,-3.897,-3.9521,-4.0197,-4.0505,-4.0505,-4.0505,-4.0505,-4.0566,-4.1309,-4.1247,-4.0751,-4.1494,-4.134,-4.0782,-4.1648,-4.1801,-4.1832,-4.3285,0.0,0.0,0.0,0.0,-4.461,-4.461,-4.461,-4.4918,0.0,0.0,0.0,0.0,-5.1036,0.0,-5.3098,-5.4391,-5.5376,-5.5499,-5.7069,-5.8454,-5.8577,-5.8978,-5.9347,-5.9562,-5.8947,-5.9101,-6.1009,-5.9162,-5.827,-6.0055,-5.8208,-5.6994,-5.7426,-5.6361,-5.5376,-5.456,-5.3883,-5.3314,-5.2729,-5.2483,-5.2421,-5.2544,-5.1898,-5.1528,-5.1528,-5.1528,-5.1528,-5.1528,-5.2082,-5.2195,-5.2001,-5.2667,-5.2971,-5.2942,-5.2893,-5.2845,-5.2845,-5.2845,-5.2845,-5.2845,-5.2965,-5.3354,-5.3892,-5.3982,-5.4461,-5.5029,0.0,0.0,0.0,0.0,0.0,0.0,0.0,0.0,0.0,0.0,0.0,0.0,0.0,0.0,0.0,0.0,0.0,0.0,-3.6876,0.0,0.0,-3.7338,-3.7369,-3.7677,-3.8354,-3.8292,-3.8292,-3.8385,-3.8385,-3.8662,-3.9213,-3.9305,-3.9398,-3.9521,-4.0197,-4.0505,-4.0505,-4.0505,-4.0505,-4.0566,-4.1309,-4.1555,-4.1524,-4.2202,-4.2048,-4.1617,-4.2884,-4.2571,-4.1894,-4.3802,-4.4086,0.0,0.0,0.0,-4.461,-4.461,-4.461,-4.4918,0.0,0.0,0.0,0.0,0.0,-5.1036,0.0,0.0,-5.4145,-5.4683,-5.6023,-5.7272,-5.7857,-5.7549,-5.7611,-5.8731,-5.7869,-5.758,-5.8978,-5.7919,-5.7272,-5.8134,-5.7395,-5.6594,-5.6023,-5.5807,-5.5191,-5.396,-5.3221,-5.2821,-5.2698,-5.159,-5.1221,-5.1836,-5.119,-5.082,-5.082,-5.082,-5.082,-5.082,-5.0913,-5.0813,-5.0564,-5.0703,-5.1122,-5.1797,-5.1563,-5.1468,-5.1468,-5.1468,-5.1468,-5.1528,-5.2127,-5.2396,-5.2546,-5.3114,-5.3743,-5.4341,0.0,0.0,0.0,0.0,0.0,0.0,0.0,0.0,0.0,0.0,0.0,0.0,0.0,0.0,0.0,-3.6937,-3.7208,-3.7455,-3.756,-3.7935,-3.8279,-3.8623,-3.8623,-3.8935,-3.9591,-3.9247,-3.9054,-3.9062,-3.9062,0.0,0.0,-4.0509,-4.0693,-4.0724,-4.1401,-4.1494,-4.1124,-4.1124,-4.0909,-4.0566,-4.1309,-4.1586,-4.1678,-4.2355,-4.2417,-4.2294,-4.3254,-4.3223,-4.2879,-4.4209,-4.4425,-4.4209,-4.4517,0.0,0.0,0.0,-4.461,-4.4918,-4.6234,0.0,0.0,0.0,0.0,-5.0389,-5.1467,-5.2452,-5.3345,-5.3976,-5.4945,-5.593,-5.7056,-5.7641,-5.7888,-5.7734,-5.7518,-5.7457,-5.7672,-5.684,-5.6269,-5.6577,-5.6023,-5.5499,-5.5191,-5.4822,-5.4176,-5.3221,-5.2513,-5.199,-5.159,-5.1005,-5.082,-5.1128,-5.0482,-5.0143,-5.0143,-5.0143,-5.0328,-5.0697,-5.0697,-5.0654,-5.0537,-5.0376,-5.0573,-5.103,-5.0892,-5.0963,-5.1229,-5.1229,-5.1229,-5.1259,-5.1528,-5.1887,-5.2247,-5.2516,-5.3054,-5.3623,0.0,0.0,0.0,0.0,0.0,0.0,0.0,0.0,0.0,0.0,0.0,0.0,0.0,0.0,0.0,0.0,-3.734,-3.7954,-3.8619,-3.8999,-3.9282,-3.9502,-3.9502,-3.9816,-4.0507,-4.0004,-3.9745,-3.9736,0.0,0.0,-4.0782,-4.1524,-4.1955,-4.2109,-4.2448,-4.2325,-4.1863,-4.1863,-4.1555,-4.1058,-4.1648,-4.1863,-4.1925,-4.2602,-4.2756,-4.2725,-4.3525,-4.3747,-4.3716,-4.4394,-4.461,-4.461,-4.461,-4.461,0.0,0.0,0.0,-4.5064,0.0,0.0,0.0,0.0,0.0,-4.9959,0.0,-5.1713,-5.239,-5.3067,-5.3745,-5.4514,-5.553,-5.6823,-5.7408,-5.6423,-5.6669,-5.6823,-5.633,-5.5653,-5.5191,-5.5191,-5.4453,-5.3976,-5.416,-5.3437,-5.2821,-5.2483,-5.1682,-5.1036,-5.0697,-5.0359,-5.0236,-5.042,-4.9774,-4.9404,-4.9404,-4.9404,-4.9682,-5.0174,-5.0174,-5.0174,-5.0174,-4.9972,-5.0035,-5.0305,-5.0502,-5.0878,-5.1323,-5.1229,-5.1229,-5.1229,-5.1229,-5.1528,-5.1947,-5.1947,-5.2366,-5.2935,0.0,0.0,0.0,0.0,0.0,0.0,0.0,0.0,0.0,0.0,0.0,0.0,-3.66,-3.7028,-3.74,-3.7463,-3.8059,-3.8711,-3.9376,-3.8868,-3.8818,-3.9465,-3.9496,0.0,-4.0481,-4.0481,-4.0447,0.0,0.0,0.0,-4.1555,-4.2232,-4.2879,-4.347,-4.2879,-4.2571,-4.2571,-4.2571,-4.254,-4.2509,-4.254,-4.2571,-4.2633,-4.3316,-4.3125,-4.2786,-4.4079,-4.4148,-4.3716,-4.4394,-4.461,-4.461,-4.461,-4.461,-4.461,0.0,0.0,0.0,0.0,0.0,0.0,0.0,0.0,0.0,0.0,-5.0328,-5.1005,-5.1682,-5.2359,-5.2852,-5.2914,-5.4022,-5.4868,-5.4806,-5.4806,-5.4837,-5.4806,-5.4222,-5.3837,-5.3837,-5.2667,-5.2113,-5.276,-5.1621,-5.1097,-5.1713,-5.0543,-5.0051,-5.0667,-4.9435,-4.9035,-4.9712,-4.9035,-4.8666,-4.8666,-4.8666,-4.8696,-4.8727,-4.8727,-4.8727,-4.8727,-4.8686,-4.8959,-4.9438,-5.0245,-5.0969,-5.1572,-5.1293,-5.1229,-5.1229,-5.1229,-5.1229,-5.1259,-5.1259,-5.1678,-5.2247,0.0,0.0,0.0,0.0,0.0,0.0,0.0,0.0,0.0,0.0,0.0,0.0,0.0,-3.7268,-3.7612,-3.8121,-3.9527,-4.0501,-4.0729,-4.0927,-4.1373,-4.2039,-4.207,-4.1979,-4.1788,-4.1755,0.0,0.0,0.0,-4.1089,-4.2263,-4.2509,-4.3187,-4.424,-4.3987,-4.3618,-4.3217,-4.3217,-4.2971,-4.2633,-4.3063,-4.3217,-4.331,-4.3994,-4.4079,-4.3925,-4.4456,-4.4695,-4.4856,-4.4671,-4.4918,-4.5195,-4.4764,-4.461,-4.461,-4.461,-4.4756,-4.5033,0.0,0.0,0.0,0.0,-4.7989,-4.8573,-4.9466,-4.9866,-5.0236,-5.0913,-5.159,-5.1929,-5.1498,-5.3221,-5.4252,-5.3006,-5.3529,-5.373,-5.2914,-5.2575,-5.2421,-5.2421,-5.1621,-5.1159,-5.1374,-5.0974,-5.0605,-5.042,-4.9959,-4.9589,-4.9374,-4.8881,-4.8727,-4.9004,-4.8758,-4.8604,-4.8604,-4.8604,-4.8604,-4.8604,-4.8604,-4.8604,-4.8604,-4.8604,-4.8963,-4.9542,-4.96,-5.0079,-5.0939,-5.0693,-5.0794,-5.1229,-5.1229,-5.1229,-5.1229,-5.1229,-5.1379,-5.1558,0.0,0.0,0.0,0.0,0.0,0.0,0.0,0.0,0.0,0.0,0.0,0.0,0.0,0.0,-3.856,-3.9725,-4.0854,-4.1593,-4.1779,-4.2011,-4.2269,-4.2489,-4.2489,-4.2395,-4.2173,0.0,0.0,0.0,0.0,0.0,0.0,-4.2263,-4.2971,-4.4271,-4.4271,-4.4148,-4.3963,-4.3963,-4.3648,-4.334,-4.3987,-4.4271,-4.4363,-4.5041,-4.5249,-4.5249,-4.5249,-4.5557,-4.5865,-4.5403,-4.5557,-4.5803,-4.5126,-4.4795,-4.461,-4.461,-4.461,-4.4702,-4.5126,0.0,0.0,0.0,0.0,-4.7896,-4.9066,-4.9312,-4.9528,-5.0205,-5.0697,-5.0944,-5.0728,-5.2175,-5.2944,-5.159,-5.2113,-5.239,-5.1498,-5.1374,-5.1374,-5.1374,-5.0759,-5.0451,-5.0667,-5.0266,-4.9897,-4.9682,-4.9466,-4.9127,-4.8635,-4.8604,-4.8604,-4.8604,-4.8604,-4.8604,-4.8604,-4.8604,-4.8604,-4.8604,-4.8604,-4.8604,-4.8604,-4.8604,-4.8881,-4.9312,-4.8962,-4.9499,-5.0698,-5.0333,-5.0584,-5.1229,-5.1229,-5.1229,-5.1229,-5.1229,-5.1229,-5.1229,0.0,0.0,0.0,0.0,0.0,0.0,0.0,0.0,0.0,-3.9109,0.0,0.0,0.0,0.0,0.0,-4.227,-4.188,-4.182,-4.2425,-4.1917,-4.1325,-4.0643,-4.0643,-4.0984,-4.1621,0.0,0.0,0.0,0.0,0.0,0.0,0.0,-4.2355,-4.3593,-4.3624,-4.3994,-4.461,-4.461,-4.4641,-4.4702,-4.5311,-4.5588,-4.568,-4.6357,-4.6603,-4.6603,-4.6603,-4.6603,-4.6634,-4.6603,-4.6603,-4.6511,-4.5803,-4.5126,-4.4641,-4.461,-4.461,-4.461,0.0,0.0,0.0,0.0,-4.7065,-4.7742,-4.8419,-4.8573,-4.8789,-4.9497,-4.9682,-4.9866,-5.0513,-5.0667,-5.0667,-5.0636,-5.0667,-5.0697,-5.0667,-5.0667,-5.0667,-5.0667,-5.0082,-4.9897,-5.0574,-4.9404,-4.8912,-4.9589,-4.9004,-4.8604,-4.8604,-4.8604,-4.8604,-4.8604,-4.8604,-4.8604,-4.8604,-4.8604,-4.8604,-4.8604,-4.8604,-4.8604,-4.8604,-4.8604,-4.8604,-4.8563,-4.8385,-4.9304,-5.0894,-5.0365,-5.0571,-5.1199,-5.1199,-5.1199,-5.1229,-5.1229,-5.1229,-5.1229,0.0,0.0,0.0,0.0,0.0,0.0,0.0,0.0,0.0,0.0,0.0,0.0,-3.9462,-4.0267,-4.0869,-4.0971,-4.2129,-4.2528,-4.1776,-4.2963,-4.3674,-4.3552,-4.4021,-4.4375,-4.4587,0.0,0.0,0.0,0.0,0.0,0.0,0.0,0.0,0.0,-4.4117,-4.4456,-4.461,-4.461,-4.4887,-4.5311,-4.5526,-4.5865,-4.6326,-4.6511,-4.6603,-4.6603,-4.6603,-4.6911,-4.725,-4.6757,-4.6911,-4.7127,-4.5957,-4.5464,-4.5218,-4.4764,-4.461,-4.461,-4.461,0.0,0.0,0.0,0.0,0.0,-4.7619,-4.7896,-4.8081,-4.8758,-4.9312,-4.9589,-4.9251,-4.962,-4.9805,-4.9281,-5.0051,-5.0513,-5.002,-4.9959,-4.9959,-4.9959,-4.9343,-4.8974,-4.9158,-4.885,-4.8696,-4.8881,-4.8727,-4.8604,-4.8604,-4.8604,-4.8604,-4.8604,-4.8604,-4.8604,-4.8604,-4.8604,-4.8604,-4.8604,-4.8604,-4.8604,-4.8604,-4.8604,-4.8604,-4.8563,-4.8385,-4.887,-4.9718,-4.9249,-4.9719,-5.0741,-5.0557,-5.0764,-5.1229,-5.1229,-5.1229,-5.1229,0.0,0.0,0.0,0.0,0.0,0.0,0.0,0.0,0.0,0.0,0.0,0.0,-4.1082,-4.2393,-4.3197,-4.3079,-4.3889,-4.4064,-4.3279,-4.4408,-4.499,-4.4744,-4.5119,-4.5471,-4.581,0.0,0.0,0.0,0.0,0.0,0.0,0.0,0.0,0.0,0.0,0.0,-4.461,-4.461,-4.501,-4.5618,-4.5895,-4.6573,-4.7465,-4.7773,-4.805,-4.8296,-4.8296,-4.8389,-4.8419,-4.8019,-4.7773,-4.7465,-4.6665,-4.6234,-4.5865,-4.5187,-4.5041,-4.4979,-4.4702,-4.4825,-4.5157,-4.5834,0.0,0.0,-4.7373,-4.7373,-4.7373,-4.805,-4.8512,-4.8789,-4.8635,-4.8943,-4.9097,-4.8696,-4.9281,-4.9682,-4.9281,-4.9251,-4.9251,-4.9251,-4.8881,-4.8604,-4.8604,-4.8604,-4.8604,-4.8604,-4.8604,-4.8604,-4.8604,-4.8604,-4.8604,-4.8604,-4.8604,-4.8481,-4.8204,-4.8481,-4.8481,-4.8204,-4.8481,-4.8604,-4.8604,-4.8604,-4.8604,-4.8563,-4.851,-4.8642,-4.8967,-4.8627,-4.9199,-5.0321,-5.014,-5.0516,-5.1088,-5.1088,-5.1222,-5.1369,0.0,0.0,0.0,0.0,0.0,0.0,0.0,0.0,0.0,0.0,-4.1234,-4.1455,-4.3625,-4.5009,-4.6018,-4.6655,-4.614,-4.5773,-4.5678,-4.5839,-4.5656,-4.5082,-4.5114,-4.5437,-4.6136,0.0,0.0,0.0,0.0,0.0,0.0,0.0,0.0,0.0,0.0,0.0,-4.461,-4.4702,-4.5095,-4.5741,-4.6357,-4.7465,-4.8789,-4.9435,-5.0112,-5.0697,-5.0697,-5.0297,-4.9774,-4.9712,-4.885,-4.7804,-4.765,-4.7188,-4.6573,-4.5895,-4.5711,-4.5557,-4.4972,-4.5249,-4.5834,-4.6449,-4.6603,0.0,-4.7342,-4.7096,-4.688,-4.7496,-4.7681,-4.7896,-4.8512,-4.8604,-4.8604,-4.8604,-4.8604,-4.8604,-4.8604,-4.8604,-4.8604,-4.8604,-4.8604,-4.8604,-4.8604,-4.8604,-4.8604,-4.8604,-4.8604,-4.8604,-4.8604,-4.8604,-4.8604,-4.8604,-4.8604,-4.8296,-4.7619,-4.8266,-4.8266,-4.7619,-4.8296,-4.8604,-4.8604,-4.8604,-4.8604,-4.8604,-4.8604,-4.8604,-4.8563,-4.8427,-4.8907,-4.9847,-4.9802,-5.0227,-5.0879,-5.0879,-5.1167,-5.1528,-4.1102,0.0,0.0,0.0,0.0,0.0,0.0,0.0,0.0,-4.0727,-4.1536,-4.3115,-4.5875,-4.59,-4.5761,-4.5906,-4.579,-4.5492,-4.4948,-4.5969,-4.6572,-4.6513,-4.702,-4.7631,-4.836,0.0,0.0,0.0,0.0,0.0,0.0,0.0,0.0,0.0,0.0,0.0,0.0,-4.5157,-4.5772,-4.6419,-4.6542,-4.7742,-4.9497,-4.962,-5.0112,-5.0697,-5.0697,-5.0605,-5.042,-4.9866,-4.9497,-4.9097,-4.7958,-4.7527,-4.7281,-4.6603,-4.6388,-4.6357,-4.6234,-4.6296,-4.6419,-4.6573,-4.6603,0.0,-4.6757,-4.7127,-4.7434,-4.7588,-4.805,-4.845,-4.8604,-4.8604,-4.8604,-4.8604,-4.8604,-4.8604,-4.8604,-4.8604,-4.8604,-4.8604,-4.8604,-4.8604,-4.8604,-4.8604,-4.8604,-4.8604,-4.8604,-4.8604,-4.8604,-4.8604,-4.8604,-4.8604,-4.8604,-4.8296,-4.7619,-4.8266,-4.8266,-4.7619,-4.8296,-4.8604,-4.8604,-4.8604,-4.8604,-4.8604,-4.8604,-4.8604,-4.8604,-4.8563,-4.8887,-4.9395,-4.9222,-4.9529,-5.0106,-5.0106,-5.0561,-5.1137,-4.1271,0.0,0.0,0.0,0.0,0.0,0.0,0.0,0.0,-4.3513,-4.4524,-4.563,-4.6736,-4.7147,-4.7361,-4.7361,-4.7361,-4.7207,-4.6873,-4.7484,-4.7916,-4.7943,-4.829,-4.8612,-4.8984,-4.8639,0.0,0.0,0.0,0.0,0.0,0.0,0.0,0.0,0.0,0.0,0.0,-4.5472,-4.5988,-4.6634,-4.6973,-4.8327,-5.0205,-5.0205,-5.082,-5.1713,-5.1713,-5.1498,-5.1036,-5.002,-4.9682,-4.9497,-4.845,-4.8112,-4.7989,-4.7311,-4.7096,-4.7034,-4.6696,-4.685,-4.7096,-4.7096,-4.685,0.0,0.0,-4.6573,-4.6388,-4.7404,-4.7342,-4.7404,-4.8419,-4.8327,-4.8235,-4.8573,-4.8327,-4.8235,-4.8573,-4.8327,-4.8112,-4.8112,-4.7804,-4.7619,-4.7619,-4.7619,-4.7619,-4.7619,-4.7619,-4.7619,-4.7619,-4.7619,-4.7619,-4.7619,-4.7619,-4.7281,-4.6603,-4.7281,-4.7434,-4.7127,-4.7773,-4.8296,-4.8604,-4.8604,-4.8604,-4.8604,-4.8604,-4.8604,-4.8604,-4.8604,-4.8736,-4.8948,-4.8864,-4.9219,-4.983,-4.983,-5.0171,-5.0662,-4.1644,0.0,0.0,0.0,0.0,0.0,0.0,0.0,0.0,-4.6684,-4.7327,-4.7585,-4.7325,-4.8334,-4.912,-4.9424,-4.9154,-4.912,-4.9424,-4.9154,-4.9018,-4.9018,-4.9018,-4.9018,-4.9018,-4.9018,0.0,0.0,0.0,0.0,0.0,0.0,0.0,0.0,0.0,0.0,0.0,-4.5734,-4.6172,-4.685,-4.7527,-4.8881,-5.0513,-5.0636,-5.1436,-5.2513,-5.2513,-5.2082,-5.1313,-5.0112,-4.9682,-4.9558,-4.885,-4.8604,-4.8512,-4.7958,-4.7804,-4.7681,-4.7127,-4.7373,-4.7804,-4.7804,-4.7404,-4.7096,0.0,0.0,0.0,-4.7281,-4.6726,-4.648,-4.8112,-4.8081,-4.7896,-4.8173,-4.7989,-4.7958,-4.8358,-4.7835,-4.7496,-4.7773,-4.7096,-4.6634,-4.6788,-4.6788,-4.6726,-4.6603,-4.6726,-4.6726,-4.6603,-4.6603,-4.6603,-4.6603,-4.6603,-4.6326,-4.5803,-4.6449,-4.6788,-4.6788,-4.7465,-4.8081,-4.8604,-4.8604,-4.8604,-4.8604,-4.8604,-4.8604,-4.8604,-4.8604,-4.8604,-4.8604,-4.8604,-4.8974,-4.9497,-4.9497,-4.9769,-5.0223,-4.3139,-4.3775,0.0,0.0,0.0,0.0,0.0,0.0,0.0,-4.6616,-4.6853,-4.7365,-4.8622,-4.8889,-4.9526,-5.0845,-4.9763,-4.956,-5.0879,-4.9729,-4.9018,-4.9018,-4.9018,-4.9018,-4.9018,-4.9018,-4.8639,0.0,0.0,0.0,0.0,0.0,0.0,0.0,-4.4648,0.0,0.0,-4.6243,-4.688,-4.7558,-4.8235,-4.9035,-4.9866,-5.0451,-5.1159,-5.1805,-5.1805,-5.1374,-5.0697,-4.9928,-4.9682,-4.9558,-4.885,-4.8604,-4.8604,-4.8512,-4.8512,-4.8481,-4.8389,-4.845,-4.8512,-4.8512,-4.845,-4.8235,-4.7711,0.0,-4.7311,-4.7558,0.0,-4.7434,-4.7681,0.0,0.0,-4.7004,-4.7773,-4.8327,-4.7804,-4.7127,-4.7157,-4.8358,-4.7373,-4.6819,-4.7434,-4.7496,-4.725,-4.6634,-4.7157,-4.7219,-4.6634,-4.6603,-4.6603,-4.6603,-4.6603,-4.6542,-4.648,-4.7157,-4.7496,-4.7496,-4.8173,-4.8543,-4.8604,-4.8604,-4.8604,-4.8604,-4.8604,-4.8604,-4.8604,-4.8604,-4.8604,-4.8604,-4.8604,-4.8666,-4.8727,-4.8727,-4.9189,-4.9824,-4.3578,-4.4045,0.0,0.0,0.0,0.0,0.0,0.0,0.0,-4.7428,-4.78,-4.8477,-4.9526,-4.9627,-5.0067,-5.1116,-5.061,-5.0541,-5.1151,-5.0642,-5.0304,-5.0304,-5.0304,-5.0101,-4.9627,-4.9627,-4.8885,0.0,-4.7238,0.0,0.0,0.0,0.0,0.0,-4.4953,-4.5425,-4.6802,-4.6647,-4.7004,-4.7681,-4.8327,-4.8789,-4.9127,-4.9835,-5.0543,-5.1159,-5.1559,-5.1282,-5.0605,-4.9928,-4.9682,-4.9558,-4.885,-4.8604,-4.8604,-4.8604,-4.8604,-4.8604,-4.8604,-4.8604,-4.8604,-4.8604,-4.8327,-4.805,-4.8173,-4.7588,-4.725,-4.8019,0.0,0.0,0.0,0.0,0.0,0.0,-4.7404,-4.7804,-4.7127,-4.6419,-4.6357,-4.7342,-4.6234,-4.5526,-4.5834,-4.6203,-4.6142,-4.5464,-4.6049,-4.6142,-4.5464,-4.5434,-4.5434,-4.5434,-4.5434,-4.5434,-4.5434,-4.5711,-4.6234,-4.7034,-4.7311,-4.7865,-4.8604,-4.8604,-4.8604,-4.8604,-4.8604,-4.8604,-4.8604,-4.8604,-4.8604,-4.8604,-4.8604,-4.8604,-4.8604,-4.8604,-4.882,-4.9097,-4.4553,-4.479,0.0,0.0,0.0,0.0,0.0,-4.8545,-4.8815,-4.8274,-4.868,-4.9357,-5.0304,-5.0947,-5.1792,-5.2942,-5.2875,-5.2739,-5.2739,-5.1961,-5.1388,-5.1217,-5.1185,-5.0947,-5.0405,-5.0405,-4.9423,0.0,0.0,0.0,0.0,0.0,0.0,0.0,0.0,-4.605,-4.7959,-4.7411,-4.761,-4.8261,-4.8757,-4.8811,-4.8696,-4.9404,-4.9989,-5.0482,-5.0974,-5.0697,-5.0051,-4.9558,-4.9404,-4.9312,-4.8789,-4.8604,-4.8604,-4.8604,-4.8604,-4.8604,-4.8604,-4.8604,-4.8604,-4.8604,-4.8235,-4.8019,-4.8512,-4.7711,-4.7188,-4.8358,-4.7681,0.0,0.0,0.0,-4.7588,-4.6726,0.0,-4.765,-4.6973,-4.6142,-4.5834,-4.6511,-4.5741,-4.5126,-4.5126,-4.5741,-4.5772,-4.4949,-4.5495,-4.5495,-4.4671,-4.461,-4.461,-4.461,-4.461,-4.4702,-4.4849,-4.4849,-4.5434,-4.6603,-4.6788,-4.7373,-4.8358,-4.8543,-4.8604,-4.8604,-4.8604,-4.8604,-4.8604,-4.8604,-4.8604,-4.8604,-4.8604,-4.8604,-4.8604,-4.8604,-4.8604,-4.8635,-4.6684,-4.6718,-4.6718,-4.6752,-4.6786,0.0,-4.777,-4.8545,-4.8984,-4.8984,-4.8984,-4.956,-5.1014,-5.3145,-5.531,-5.7476,-5.7036,-5.663,-5.663,-5.389,-5.1961,-5.1219,-5.1185,-5.1217,-5.1183,-5.1151,-5.0422,-4.8928,0.0,0.0,0.0,0.0,0.0,0.0,-4.5904,-4.6773,-4.8769,-4.8731,-4.9173,-4.9837,-4.9868,-4.9349,-4.8696,-4.9404,-4.9682,-4.9712,-4.9743,-4.9281,-4.8666,-4.8666,-4.8666,-4.8635,-4.8635,-4.8604,-4.8604,-4.8604,-4.8604,-4.8604,-4.8604,-4.8604,-4.8604,-4.8604,-4.8604,-4.8573,-4.8604,-4.8081,-4.7773,-4.8481,-4.805,-4.7588,-4.7619,-4.8142,-4.8142,-4.6819,-4.7711,0.0,0.0,-4.6419,-4.5834,-4.6511,-4.6542,-4.6542,-4.6542,-4.7127,-4.7004,-4.5649,-4.6172,-4.5988,-4.4702,-4.461,-4.461,-4.461,-4.461,-4.488,-4.5557,-4.5557,-4.5895,-4.6603,-4.725,-4.7588,-4.765,-4.8296,-4.8604,-4.8604,-4.8604,-4.8604,-4.8604,-4.8604,-4.8604,-4.8604,-4.8604,-4.8604,-4.8604,-4.8604,-4.8604,-4.8696,-4.8781,-4.8578,-4.8105,-4.7631,-4.753,-4.7936,-4.9187,-4.956,-5.0608,-5.3112,-5.345,-5.4566,-5.7577,-5.8558,-5.9539,-6.0757,-6.0182,-5.9336,-5.8321,-5.6393,-5.4735,-5.3518,-5.2976,-5.2469,-5.1961,-5.1928,-5.1228,-4.9724,-4.9724,0.0,0.0,0.0,0.0,0.0,0.0,-4.7163,-4.8652,-4.8186,-4.8404,-4.9056,-4.9056,-4.9468,-5.0069,-4.9842,-4.9404,-4.9035,-4.9497,-4.922,-4.8604,-4.8604,-4.8604,-4.8604,-4.8604,-4.8604,-4.8604,-4.8604,-4.8604,-4.8604,-4.8604,-4.8604,-4.8604,-4.8604,-4.8604,-4.8604,-4.8604,-4.8419,-4.8327,-4.8573,-4.8419,-4.8142,-4.7681,-4.8173,-4.8173,-4.6819,-4.7742,-4.805,0.0,-4.5095,-4.4548,-4.5187,-4.4849,-4.4795,-4.5218,-4.5464,-4.5218,-4.4363,-4.4918,-4.4849,-4.3994,-4.4363,-4.461,-4.461,-4.461,-4.4733,-4.4949,-4.4949,-4.5249,-4.5926,-4.6603,-4.7188,-4.7619,-4.8296,-4.8604,-4.8604,-4.8604,-4.8604,-4.8604,-4.8604,-4.8604,-4.8604,-4.8604,-4.8604,-4.8604,-4.8604,-4.8604,-4.8727,-5.0236,-4.9898,-4.9255,-4.8781,-4.868,-4.9018,-4.9932,-5.1217,-5.2976,-5.5412,-5.663,-5.8389,-6.1366,-6.2381,-6.3159,-6.3903,-6.3768,-6.255,-6.0013,-5.9167,-5.7543,-5.4702,-5.4634,-5.4228,-5.3212,-5.2874,-5.1866,-5.0177,-5.035,-4.9791,0.0,0.0,0.0,0.0,0.0,-4.7719,-4.9025,-4.8631,-4.8823,-4.951,-4.951,-5.0081,-5.0929,-5.0403,-4.9872,-4.9429,-4.9719,-4.947,-4.9015,-4.8687,-4.8604,-4.8604,-4.8604,-4.8604,-4.8604,-4.8604,-4.8604,-4.8604,-4.8604,-4.8604,-4.8604,-4.8604,-4.8604,-4.8696,-4.8943,-4.8789,-4.8696,-4.8943,-4.8789,-4.8419,-4.7742,-4.8173,-4.8235,-4.7127,-4.7681,-4.7465,0.0,-4.4363,-4.3963,-4.3895,-4.3932,-4.424,-4.4918,-4.4979,-4.4579,-4.3685,-4.4024,-4.4055,-4.3624,-4.4024,-4.4363,-4.461,-4.461,-4.461,-4.461,-4.461,-4.4949,-4.5588,-4.6265,-4.6942,-4.7619,-4.8296,-4.8604,-4.8604,-4.8604,-4.8604,-4.8604,-4.8604,-4.8604,-4.8604,-4.8604,-4.8604,-4.8604,-4.8604,-4.8604,-4.8696,-5.1082,-5.0676,-5.0234,-5.02,-5.0132,-5.0101,-5.0202,-5.3382,-5.5852,-5.6021,-5.8592,-6.1066,-6.2691,-6.4756,-6.6279,-6.7024,-6.7667,-6.6211,-6.1912,-6.2183,-6.0254,-5.5108,-5.6192,-5.6262,-5.4907,-5.4025,-5.2534,-5.0471,-5.0935,0.0,0.0,0.0,0.0,0.0,-4.7989,0.0,-4.9829,-4.986,-5.037,-5.1107,-5.1107,-5.114,-5.121,-5.1145,-5.1103,-5.0937,-5.0161,-4.9908,-4.9749,-4.8893,-4.8604,-4.8604,-4.8604,-4.8604,-4.8604,-4.8604,-4.8604,-4.8604,-4.8604,-4.8604,-4.8604,-4.8604,-4.8604,-4.8789,-4.9466,-4.9097,-4.882,-4.9497,-4.9097,-4.8419,-4.7773,-4.8173,-4.8389,-4.7711,-4.7558,-4.6603,-4.4024,-4.4178,-4.4079,-4.2817,-4.3741,-4.4756,-4.5464,-4.5495,-4.491,-4.3655,-4.3531,-4.3531,-4.3562,-4.3593,-4.3932,-4.4579,-4.461,-4.461,-4.461,-4.461,-4.491,-4.5557,-4.6265,-4.6942,-4.7588,-4.8296,-4.8604,-4.8604,-4.8604,-4.8604,-4.8604,-4.8604,-4.8604,-4.8604,-4.8604,-4.8604,-4.8604,-4.8604,-4.8604,-4.8604,-5.1082,-5.1619,-5.1783,-5.124,-5.0568,-5.0473,-5.1555,-5.4601,-5.7759,-6.0355,-6.3543,-6.6521,-6.8974,-6.9918,-7.0447,-7.0652,-7.0345,-6.8913,-6.6085,-6.5068,-6.2953,-5.9373,-5.8452,-5.7326,-5.5723,-5.4941,-5.3923,-5.2671,-5.2221,-5.1655,-5.1071,0.0,0.0,0.0,0.0,-4.9068,-4.8965,-4.9491,-5.0262,-5.1107,-5.1107,-5.1769,-5.2675,-5.2185,-5.2269,-5.2459,-5.0561,-4.9908,-4.9749,-4.8893,-4.8604,-4.8604,-4.8604,-4.8604,-4.8604,-4.8604,-4.8604,-4.8604,-4.8604,-4.8604,-4.8604,-4.8604,-4.8604,-4.8666,-4.885,-4.8758,-4.8666,-4.885,-4.8758,-4.8573,-4.8389,-4.8481,-4.8389,-4.7711,-4.6757,-4.568,-4.4517,-4.4086,-4.3747,-4.3408,-4.3187,-4.3556,-4.4726,-4.3956,-4.3217,-4.2879,-4.2386,-4.2325,-4.2817,-4.3347,-4.3932,-4.4579,-4.461,-4.461,-4.461,-4.461,-4.4702,-4.4849,-4.6018,-4.6696,-4.6911,-4.8081,-4.8604,-4.8604,-4.8604,-4.8604,-4.8604,-4.8604,-4.8604,-4.8604,-4.8604,-4.8604,-4.8604,-4.8604,-4.8604,-4.8604,-5.2291,-5.2495,-5.2595,-5.2459,-5.287,-5.3482,-5.4296,-5.6163,-5.8671,-6.198,-6.5583,-6.8436,-7.0011,-7.1547,-7.2463,-7.2463,-7.1814,-7.0277,-6.7687,-6.7305,-6.5465,-6.1431,-6.044,-5.8934,-5.6748,-5.5553,-5.4398,-5.3179,-5.231,-5.1627,-5.1215,0.0,0.0,0.0,0.0,-4.9466,-4.9138,-5.0266,-5.1057,-5.1567,-5.1977,-5.2646,0.0,-5.2967,-5.3033,-5.3159,-5.1531,-5.0691,-5.0229,-4.9015,-4.8604,-4.8604,-4.8604,-4.8604,-4.8604,-4.8604,-4.8604,-4.8604,-4.8604,-4.8604,-4.8604,-4.8604,-4.8604,-4.8696,-4.9004,-4.885,-4.8696,-4.9004,-4.882,-4.8419,-4.7835,-4.8204,-4.8296,-4.7311,-4.6511,-4.5588,-4.4363,-4.4086,-4.3932,-4.3624,-4.3771,-4.4079,-4.4579,-4.3125,-4.2048,-4.174,-4.1648,-4.1771,-4.214,-4.3063,-4.3778,-4.4148,-4.4726,-4.4918,-4.461,-4.4918,-4.5157,-4.5464,-4.6234,-4.6911,-4.7496,-4.8266,-4.8604,-4.8604,-4.8604,-4.8604,-4.8604,-4.8604,-4.8604,-4.8604,-4.8604,-4.8604,-4.8604,-4.8604,-4.8604,-4.8604,-5.3674,-5.327,-5.3034,-5.3647,-5.5792,-5.753,-5.7834,-5.8645,-6.0163,-6.2736,-6.6466,-6.8837,-6.8837,-7.1327,-7.303,-7.303,-7.2346,-7.0772,-6.8042,-6.8993,-6.7488,-6.2635,-6.2258,-6.0754,-5.7844,-5.6131,-5.4533,-5.2906,-5.1957,-5.0962,0.0,0.0,0.0,0.0,0.0,0.0,-4.9945,-5.1342,-5.1982,-5.208,-5.3069,-5.3518,-5.3518,-5.3518,-5.3518,-5.3382,-5.2589,-5.1769,-5.0881,-4.943,-4.8852,-4.8769,-4.8893,-4.8852,-4.8769,-4.8769,-4.8687,-4.8604,-4.8604,-4.8604,-4.8604,-4.8604,-4.8604,-4.8789,-4.9404,-4.9066,-4.8789,-4.9404,-4.8974,-4.8112,-4.6942,-4.7558,-4.7865,-4.6788,-4.6449,-4.5711,-4.3994,-4.424,-4.4394,-4.3809,-4.4764,0.0,-4.4548,-4.2879,-4.1555,-4.0812,-4.1217,-4.1494,-4.1586,-4.2786,-4.3531,-4.3593,-4.4825,-4.5218,-4.4764,-4.5218,-4.5834,-4.6603,-4.6603,-4.725,-4.8481,-4.8573,-4.8604,-4.8604,-4.8604,-4.8604,-4.8604,-4.8604,-4.8604,-4.8604,-4.8604,-4.8604,-4.8604,-4.8604,-4.8604,-4.8604,-5.2832,-5.3435,-5.3939,-5.4076,-5.6541,-5.9352,-6.1784,-6.4423,-6.6268,-6.6581,-6.9715,-7.1874,-7.1585,-7.2279,-7.2793,-7.2793,-7.2069,-7.1098,-6.9968,-6.9548,-6.8142,-6.5317,-6.4008,-6.1834,-5.8668,-5.7055,-5.5347,-5.355,-5.2699,-5.1813,0.0,0.0,0.0,0.0,0.0,0.0,-5.0627,-5.1103,-5.128,-5.1404,-5.2908,-5.3518,-5.3518,-5.3518,-5.3518,-5.3382,-5.2589,-5.1769,-5.107,-5.0767,-5.0229,-4.9789,-5.0461,-5.019,-4.967,-4.967,-4.9178,-4.8604,-4.8604,-4.8604,-4.8604,-4.8604,-4.8604,-4.8635,-4.8758,-4.8696,-4.8666,-4.8789,-4.8266,-4.7711,-4.7465,-4.6696,-4.6234,-4.6542,-4.5649,-4.4856,-4.4486,-4.4548,-4.4579,-4.4456,-4.4603,-4.4517,-4.384,-4.347,-4.294,-4.2294,-4.1274,-4.097,-4.1586,-4.2355,-4.3033,-4.3593,-4.4363,-4.4972,-4.5403,-4.501,-4.5372,-4.6603,-4.6603,-4.7004,-4.7804,-4.8358,-4.8604,-4.8604,-4.8604,-4.8604,-4.8604,-4.8604,-4.8604,-4.8604,-4.8604,-4.8604,-4.8604,-4.8604,-4.8604,-4.8604,-5.3597,-5.3935,-5.4688,-5.6333,-5.9114,-6.2172,-6.5194,-6.8332,-6.9708,-6.7728,-6.9413,-7.0746,-7.0587,-7.2165,-7.3084,-7.2747,-7.1946,-7.1187,-7.0429,-6.9325,-6.8014,-6.6531,-6.4634,-6.2322,-5.9563,-5.8015,-5.6506,-5.5008,-5.3101,-5.201,0.0,0.0,0.0,0.0,0.0,-5.0423,-5.0839,-5.1432,-5.1648,-5.1777,-5.301,-5.3518,-5.3518,-5.3518,-5.3518,-5.345,-5.3041,-5.2414,-5.1659,-5.122,-5.0843,-5.0499,-5.0461,-5.0221,-4.9789,-4.9349,-4.8934,-4.8604,-4.8604,-4.8604,-4.8604,-4.8604,-4.8604,-4.8604,-4.8604,-4.8604,-4.8512,-4.8173,-4.7835,-4.7496,-4.7157,-4.6542,-4.6111,-4.608,-4.5834,-4.5372,-4.4702,-4.461,-4.461,-4.461,-4.461,-4.4363,-4.3685,-4.3593,-4.3193,-4.2171,-4.1463,-4.1063,-4.1032,-4.2355,-4.3094,-4.3063,-4.4387,-4.5095,-4.5064,-4.5133,-4.5618,-4.6603,-4.6603,-4.7127,-4.8142,-4.845,-4.8604,-4.8604,-4.8604,-4.8604,-4.8604,-4.8604,-4.8604,-4.8604,-4.8604,-4.8604,-4.8604,-4.8604,-4.8604,-4.8604,-5.5327,-5.5436,-5.6367,-5.9321,-6.2312,-6.5168,-6.7575,-7.0657,-7.1725,-6.8987,-6.9275,-6.9776,-6.9776,-7.2035,-7.3326,-7.2782,-7.1808,-7.1015,-7.0429,-6.8946,-6.7704,-6.6807,-6.4876,-6.2668,-6.0254,-5.8702,-5.7293,-5.603,-5.3746,-5.2356,-5.1761,0.0,0.0,0.0,-4.9638,-5.0295,-5.0959,-5.1659,-5.2078,-5.2357,-5.3179,-5.3518,-5.3518,-5.3518,-5.3518,-5.3518,-5.3518,-5.3076,-5.2449,-5.1842,-5.148,-5.1257,-5.0805,-5.0454,-5.0026,-4.9349,-4.8893,-4.8604,-4.8604,-4.8604,-4.8604,-4.8604,-4.8604,-4.8604,-4.8604,-4.8512,-4.8235,-4.7711,-4.7373,-4.7004,-4.648,-4.6265,-4.608,-4.5834,-4.6018,-4.5834,-4.4949,-4.4825,-4.4764,-4.4641,-4.4856,-4.4671,-4.3685,-4.3747,-4.3285,-4.1925,-4.1678,-4.137,-4.0751,-4.2417,-4.3125,-4.2633,-4.4418,-4.5187,-4.4825,-4.5311,-4.5988,-4.6819,-4.6819,-4.7434,-4.8604,-4.8604,-4.8604,-4.8604,-4.8604,-4.8604,-4.8604,-4.8604,-4.8604,-4.8604,-4.8604,-4.8604,-4.8604,-4.8604,-4.8604,-4.8604,-5.8015,-5.9047,-6.0357,-6.2772,-6.5669,-6.7773,-6.8049,-7.0705,-7.2567,-7.2249,-7.2326,-7.236,-7.236,-7.2602,-7.2782,-7.2713,-7.1325,-7.0463,-7.0394,-6.8946,-6.7463,-6.6048,-6.5083,-6.322,-6.0254,-5.8702,-5.7085,-5.5477,-5.5206,-5.3482,-5.0489,-5.1582,-5.1231,-4.9701,-5.0531,-5.1006,-5.1276,-5.1245,-5.173,-5.2602,-5.3247,-5.3518,-5.3518,-5.3518,-5.3518,-5.3518,-5.3518,-5.345,-5.3382,-5.3314,-5.2799,-5.2307,-5.2938,-5.2167,-5.0957,-5.0881,-4.9797,-4.8604,-4.8604,-4.8604,-4.8604,-4.8604,-4.8604,-4.8604,-4.8604,-4.8142,-4.7681,-4.7619,-4.6634,-4.5741,-4.568,-4.5187,-4.5157,-4.6326,-4.5526,-4.4979,-4.5434,-4.5495,-4.5249,-4.4702,-4.5649,-4.5649,-4.3778,-4.4148,-4.3925,-4.2602,-4.1955,-4.1586,-4.1494,-4.2263,-4.2663,-4.2602,-4.3956,-4.4979,-4.5495,-4.5557,-4.6234,-4.7527,-4.7527,-4.7896,-4.8604,-4.8604,-4.8604,-4.8604,-4.8604,-4.8604,-4.8604,-4.8604,-4.8604,-4.8604,-4.8604,-4.8604,-4.8604,-4.8604,-4.8604,-4.8604,-6.0873,-6.1701,-6.3082,-6.5842,-6.729,-6.8704,-7.0567,-7.1877,-7.2713,-7.2713,-7.2713,-7.2713,-7.2713,-7.2257,-7.1774,-7.1325,-7.0325,-6.9532,-6.9049,-6.7601,-6.6497,-6.5911,-6.4703,-6.3048,-6.0909,-5.9392,-5.798,-5.6745,-5.5484,-5.426,-5.3105,-5.2445,-5.1177,-4.9554,-5.032,-5.075,-5.0894,-5.1765,-5.2398,-5.2827,-5.3412,-5.3617,-5.3618,-5.3517,-5.3518,-5.3518,-5.3518,-5.3518,-5.3518,-5.3518,-5.328,-5.2972,-5.2834,-5.2023,-5.0995,-5.0499,-4.955,-4.8604,-4.8604,-4.8604,-4.8604,-4.8604,-4.8604,-4.8604,-4.8604,-4.8081,-4.7617,-4.7629,-4.6559,-4.551,-4.5087,-4.5095,-4.5218,-4.5372,-4.528,-4.5126,-4.5041,-4.4972,-4.4918,-4.4603,-4.4356,-4.3895,-4.3063,-4.3248,-4.334,-4.3187,-4.2202,-4.1771,-4.2171,-4.2448,-4.2786,-4.3187,-4.4117,-4.4733,-4.4972,-4.5372,-4.6049,-4.7004,-4.7404,-4.7958,-4.8604,-4.8604,-4.8604,-4.8604,-4.8604,-4.8604,-4.8604,-4.8604,-4.8604,-4.8604,-4.8604,-4.8604,-4.8604,-4.8604,-4.8604,-4.8604,-6.4014,-6.4738,-6.6152,-6.8946,-6.9428,-7.0187,-7.236,-7.2713,-7.2713,-7.2713,-7.2464,-7.2429,-7.2636,-7.1981,-7.1291,-7.0774,-6.9842,-6.9049,-6.8497,-6.7049,-6.6117,-6.5911,-6.4634,-6.3082,-6.1358,-6.0082,-5.8737,-5.7362,-5.5928,-5.4703,-5.3745,-5.2219,-5.0975,-5.0043,-5.0827,-5.1226,-5.1358,-5.2422,-5.3056,-5.3327,-5.3645,-5.3783,-5.3783,-5.3618,-5.3551,-5.3551,-5.3551,-5.3551,-5.3551,-5.3618,-5.3651,-5.3517,-5.2868,-5.1951,-5.0995,-5.0422,-4.963,-4.8975,-4.8975,-4.8975,-4.8975,-4.8975,-4.8769,-4.8573,-4.8358,-4.7935,-4.7551,-4.7189,-4.6355,-4.5478,-4.4761,-4.501,-4.5226,-4.4949,-4.5126,-4.5187,-4.491,-4.488,-4.488,-4.488,-4.4233,-4.3618,-4.3217,-4.3371,-4.3494,-4.3593,-4.2694,-4.2479,-4.3156,-4.3002,-4.3094,-4.3593,-4.4271,-4.4664,-4.4918,-4.5557,-4.6234,-4.6911,-4.7588,-4.8142,-4.8604,-4.8604,-4.8604,-4.8604,-4.8604,-4.8604,-4.8604,-4.8604,-4.8604,-4.8604,-4.8604,-4.8604,-4.8604,-4.8604,-4.8604,-4.8604,-6.7601,-6.867,-6.9946,-7.2264,-7.2644,-7.2678,-7.2671,-7.2713,-7.2713,-7.2713,-7.1981,-7.1808,-7.2602,-7.1981,-7.1498,-7.1498,-7.0118,-6.9291,-6.9296,-6.7842,-6.6635,-6.5911,-6.5117,-6.3634,-6.1358,-6.0565,-5.9081,-5.6805,-5.6805,-5.4762,-5.0921,-5.0725,-5.0961,-5.1698,-5.2496,-5.2948,-5.3072,-5.2948,-5.3393,-5.4173,-5.4045,-5.398,-5.398,-5.3783,-5.3717,-5.3717,-5.3717,-5.3717,-5.375,-5.3915,-5.398,-5.3915,-5.3584,-5.2414,-5.1107,-5.1107,-5.0499,-4.9868,-4.9868,-4.9868,-4.9868,-4.9868,-4.9259,-4.845,-4.7773,-4.766,-4.7296,-4.6013,-4.5697,-4.5478,-4.4761,-4.4641,-4.4856,-4.5464,-4.5033,-4.4856,-4.5495,-4.5588,-4.5588,-4.5588,-4.6142,-4.6018,-4.4702,-4.5157,-4.5003,-4.3716,-4.3593,-4.387,-4.4548,-4.3963,-4.3593,-4.3593,-4.4271,-4.4949,-4.5557,-4.6234,-4.6911,-4.7619,-4.8266,-4.8604,-4.8604,-4.8604,-4.8604,-4.8604,-4.8604,-4.8604,-4.8604,-4.8604,-4.8604,-4.8604,-4.8604,-4.8604,-4.8604,-4.8604,-4.8604,-4.8604,-6.9532,-7.0256,-7.1187,-7.2464,-7.2713,-7.2498,-7.1946,-7.2326,-7.2464,-7.1946,-7.1636,-7.1601,-7.1843,-7.0739,-6.998,-6.998,-6.8601,-6.7704,-6.7704,-6.629,-6.5324,-6.5083,-6.3876,-6.2599,-6.1323,-6.0047,-5.853,-5.6805,-5.6805,-5.5606,-5.3357,-5.3293,-5.2816,-5.2067,-5.2901,-5.3266,-5.3332,-5.3817,-5.4161,-5.4367,-5.4207,-5.4143,-5.411,-5.3948,-5.3915,-5.3915,-5.3915,-5.3915,-5.3915,-5.398,-5.3639,-5.3265,-5.3679,-5.3111,-5.2243,-5.2243,-5.1594,-5.0849,-5.0849,-5.0384,-5.0026,-5.0576,-5.0104,-4.9481,-4.9413,-4.9026,-4.8174,-4.6251,-4.6166,-4.6234,-4.5478,-4.4918,-4.4823,-4.5571,-4.5073,-4.4702,-4.4918,-4.4949,-4.4949,-4.4949,-4.4702,-4.4394,-4.3963,-4.4117,-4.4271,-4.4302,-4.4302,-4.4394,-4.461,-4.3963,-4.3809,-4.4271,-4.491,-4.5372,-4.5588,-4.6726,-4.7404,-4.7619,-4.8296,-4.8604,-4.8604,-4.8604,-4.8604,-4.8604,-4.8604,-4.8604,-4.8604,-4.8604,-4.8604,-4.8604,-4.8604,-4.8604,-4.8604,-4.8604,-4.8604,-4.8604,-7.0394,-7.0774,-7.1222,-7.1739,-7.1808,-7.1636,-7.1153,-7.1498,-7.1636,-7.1153,-7.0843,-7.067,-7.067,-6.9325,-6.8635,-6.9262,-6.7876,-6.698,-6.698,-6.5566,-6.4703,-6.4703,-6.3531,-6.2393,-6.1323,-6.0358,-5.9012,-5.7219,-5.6357,-5.546,-5.4494,-5.4218,-5.3598,-5.2701,-5.3494,-5.3667,-5.3425,-5.3908,-5.4253,-5.4428,-5.3748,-5.3788,-5.4269,-5.3834,-5.3838,-5.4078,-5.4078,-5.3907,-5.3665,-5.3764,-5.3249,-5.2635,-5.3181,-5.2995,-5.2537,-5.2369,-5.1883,-5.1349,-5.1059,-5.0765,-5.0644,-5.116,-5.0693,-5.0054,-4.9924,-4.9556,-4.8763,-4.7064,-4.7001,-4.6967,-4.6269,-4.5515,-4.5179,-4.5624,-4.5067,-4.461,-4.461,-4.461,-4.4702,-4.4941,-4.461,-4.4363,-4.4363,-4.4363,-4.4425,-4.461,-4.461,-4.461,-4.461,-4.4209,-4.4178,-4.461,-4.5041,-4.5464,-4.5957,-4.6819,-4.7496,-4.7989,-4.8419,-4.8604,-4.8604,-4.8604,-4.8604,-4.8604,-4.8604,-4.8604,-4.8604,-4.8604,-4.8604,-4.8604,-4.8604,-4.8604,-4.8604,-4.8604,-4.8604,-4.8604,-7.0291,-7.0291,-7.0325,-7.0394,-7.0394,-7.036,-7.0325,-7.036,-7.036,-7.0222,-6.9635,-6.9187,-6.9118,-6.7807,-6.7497,-6.8911,-6.7669,-6.6842,-6.6842,-6.5462,-6.46,-6.4565,-6.3841,-6.2737,-6.1254,-6.1185,-6.0047,-5.784,-5.5598,-5.4494,-5.4494,-5.3804,-5.3494,-5.3494,-5.4149,-5.4046,-5.3391,-5.3356,-5.3701,-5.4218,-5.2804,-5.3049,-5.4256,-5.3441,-5.3484,-5.4068,-5.4136,-5.3656,-5.3066,-5.3225,-5.2804,-5.2119,-5.2153,-5.2153,-5.2073,-5.1797,-5.1698,-5.1496,-5.0902,-5.1183,-5.1627,-5.1759,-5.1185,-5.0406,-4.9725,-4.949,-4.9191,-4.836,-4.8064,-4.7704,-4.7033,-4.6272,-4.5805,-4.5769,-4.5179,-4.4685,-4.461,-4.461,-4.4818,-4.5434,-4.5526,-4.5526,-4.5526,-4.5526,-4.5249,-4.4671,-4.461,-4.461,-4.461,-4.461,-4.461,-4.461,-4.4671,-4.5249,-4.6511,-4.6573,-4.725,-4.8543,-4.8604,-4.8604,-4.8604,-4.8604,-4.8604,-4.8604,-4.8604,-4.8604,-4.8604,-4.8604,-4.8604,-4.8604,-4.8604,-4.8604,-4.8604,-4.8604,-4.8604,-4.8604,-6.9532,-6.9532,-6.9739,-7.0291,-7.0394,-7.0187,-6.9635,-7.0015,-6.998,-6.8808,-6.8497,-6.8152,-6.7601,-6.6704,-6.629,-6.6669,-6.5807,-6.5221,-6.5221,-6.4358,-6.36,-6.3048,-6.2255,-6.1392,-6.0461,-5.9875,-5.8737,-5.7047,-5.5357,-5.4494,-5.4494,-5.4322,-5.4253,-5.4218,-5.3839,-5.3563,-5.3356,-5.2735,-5.2567,-5.2705,-5.2326,-5.2394,-5.2774,-5.3156,-5.3053,-5.2747,-5.3363,-5.3087,-5.2433,-5.2463,-5.1977,-5.1429,-5.2015,-5.1808,-5.1572,-5.2632,-5.2472,-5.2109,-5.3071,-5.2471,-5.19,-5.3112,-5.294,-5.2255,-5.1529,-5.0946,-5.0283,-4.935,-4.8689,-4.8161,-4.7704,-4.7239,-4.6831,-4.6588,-4.5989,-4.5369,-4.4685,-4.461,-4.4671,-4.4825,-4.4856,-4.4856,-4.4856,-4.4856,-4.4756,-4.4641,-4.461,-4.461,-4.461,-4.461,-4.461,-4.461,-4.5095,-4.5495,-4.5834,-4.6326,-4.7004,-4.7835,-4.8358,-4.8604,-4.8604,-4.8604,-4.8604,-4.8604,-4.8604,-4.8604,-4.8604,-4.8604,-4.8604,-4.8604,-4.8604,-4.8604,-4.8604,-4.8604,-4.8604,-4.8604,-6.8739,-6.8739,-6.8877,-6.9256,-6.9325,-6.9187,-6.8808,-6.9084,-6.9049,-6.8221,-6.7807,-6.7428,-6.7014,-6.6014,-6.5359,-6.5359,-6.4945,-6.4703,-6.4703,-6.3669,-6.291,-6.2496,-6.1737,-6.0944,-6.022,-5.9426,-5.8116,-5.6253,-5.5426,-5.4839,-5.4494,-5.4494,-5.4322,-5.3977,-5.3598,-5.3218,-5.2804,-5.2046,-5.1877,-5.2119,-5.1494,-5.1597,-5.2188,-5.2321,-5.2287,-5.2257,-5.2701,-5.2356,-5.1671,-5.1671,-5.1218,-5.0666,-5.108,-5.0942,-5.0838,-5.2011,-5.2226,-5.2245,-5.306,-5.2866,-5.2629,-5.3494,-5.3479,-5.306,-5.2268,-5.1726,-5.1165,-5.0323,-4.9489,-4.8858,-4.8637,-4.816,-4.7704,-4.7439,-4.6831,-4.6205,-4.5697,-4.5326,-4.5104,-4.5104,-4.5104,-4.4955,-4.4648,-4.488,-4.4955,-4.461,-4.461,-4.461,-4.461,-4.461,-4.461,-4.461,-4.4941,-4.528,-4.5588,-4.6573,-4.7404,-4.8081,-4.845,-4.8604,-4.8604,-4.8604,-4.8604,-4.8604,-4.8604,-4.8604,-4.8604,-4.8604,-4.8604,-4.8604,-4.8604,-4.8604,-4.8604,-4.8604,-4.8604,-4.8604,-6.8083,-6.8083,-6.8083,-6.8083,-6.8014,-6.7911,-6.7911,-6.7842,-6.7704,-6.7601,-6.7049,-6.66,-6.6497,-6.5324,-6.4496,-6.4358,-6.4358,-6.4358,-6.4358,-6.3186,-6.2393,-6.2151,-6.1496,-6.0771,-6.0047,-5.915,-5.7667,-5.5598,-5.5495,-5.5115,-5.4494,-5.4494,-5.4184,-5.3563,-5.346,-5.2977,-5.2153,-5.1533,-5.1498,-5.177,-5.0631,-5.0873,-5.1808,-5.1321,-5.1425,-5.1877,-5.1981,-5.1563,-5.0942,-5.0942,-5.0528,-5.0011,-5.0011,-5.008,-5.0321,-5.1045,-5.1774,-5.2375,-5.2389,-5.2951,-5.3529,-5.3287,-5.3322,-5.3184,-5.236,-5.2096,-5.1867,-5.1352,-5.0438,-4.9701,-4.9671,-4.908,-4.8545,-4.8164,-4.7638,-4.7138,-4.6888,-4.6266,-4.5881,-4.5881,-4.5877,-4.5624,-4.4993,-4.5463,-4.5568,-4.4836,-4.4854,-4.4816,-4.461,-4.4816,-4.4878,-4.4764,-4.4764,-4.5064,-4.5741,-4.6973,-4.7896,-4.845,-4.8573,-4.8604,-4.8604,-4.8604,-4.8604,-4.8604,-4.8604,-4.8604,-4.8604,-4.8604,-4.8604,-4.8604,-4.8604,-4.8604,-4.8604,-4.8604,-4.8604,-4.8604,-6.8083,-6.8083,-6.8083,-6.8083,-6.7566,-6.7152,-6.7152,-6.6635,-6.5979,-6.5324,-6.5117,-6.4807,-6.4186,-6.391,-6.3531,-6.2875,-6.2841,-6.2841,-6.2841,-6.2634,-6.191,-6.0599,-6.0427,-6.0013,-5.9219,-5.784,-5.6633,-5.5598,-5.4977,-5.4632,-5.4494,-5.4494,-5.446,-5.4322,-5.3667,-5.2977,-5.2188,-5.205,-5.139,-5.039,-5.0769,-5.07,-5.0424,-5.0907,-5.0804,-5.0424,-5.1045,-5.0804,-5.0183,-5.0183,-5.008,-5.0011,-5.0011,-5.0424,-5.108,-5.1808,-5.2597,-5.3222,-5.3232,-5.3745,-5.4011,-5.2735,-5.2908,-5.3184,-5.236,-5.2188,-5.2265,-5.2657,-5.1756,-5.0793,-5.0488,-5.0065,-4.9369,-4.8261,-4.8265,-4.8001,-4.7041,-4.684,-4.6799,-4.6799,-4.6726,-4.6553,-4.648,-4.6525,-4.6255,-4.5578,-4.605,-4.5847,-4.4641,-4.5709,-4.6059,-4.5472,-4.5434,-4.5741,-4.6419,-4.7219,-4.765,-4.7773,-4.8327,-4.8604,-4.8604,-4.8604,-4.8604,-4.8604,-4.8604,-4.8604,-4.8604,-4.8604,-4.8604,-4.8604,-4.8604,-4.8604,-4.8604,-4.8604,-4.8604,-4.8604,-6.7497,-6.7187,-6.6911,-6.6911,-6.6635,-6.6393,-6.6393,-6.6117,-6.5738,-6.5393,-6.4979,-6.4565,-6.422,-6.3462,-6.2841,-6.253,-6.2082,-6.1668,-6.1289,-6.1254,-6.0944,-6.022,-5.9771,-5.9012,-5.784,-5.715,-5.6219,-5.5012,-5.4667,-5.4494,-5.4494,-5.4494,-5.4494,-5.4494,-5.3736,-5.3184,-5.2804,-5.1977,-5.1218,-5.0597,-5.0528,-5.0321,-5.0045,-5.039,-5.0321,-5.0045,-5.039,-5.0287,-5.0011,-5.0011,-5.0011,-5.0011,-5.0011,-5.0252,-5.0666,-5.139,-5.2459,-5.3494,-5.3873,-5.3356,-5.2804,-5.3322,-5.3115,-5.2873,-5.3356,-5.3149,-5.2912,-5.3194,-5.2123,-5.1055,-5.0901,-5.0405,-4.9786,-4.9074,-4.9089,-4.8987,-4.8397,-4.7968,-4.7869,-4.82,-4.8198,-4.8126,-4.7999,-4.8323,-4.8249,-4.7533,-4.775,-4.7668,-4.6988,-4.7568,-4.7575,-4.6816,-4.6385,-4.6449,-4.7127,-4.7465,-4.7804,-4.8142,-4.845,-4.8604,-4.8604,-4.8604,-4.8604,-4.8604,-4.8235,-4.8266,-4.8573,-4.8235,-4.8296,-4.8604,-4.8604,-4.8604,-4.8604,-4.8604,-4.8604,-4.8604,-6.6738,-6.629,-6.5876,-6.5876,-6.5738,-6.56,-6.56,-6.5462,-6.5359,-6.5359,-6.4807,-6.4427,-6.4427,-6.3289,-6.2393,-6.222,-6.1496,-6.0737,-5.9978,-5.9909,-5.9909,-5.9909,-5.9185,-5.815,-5.684,-5.6633,-5.5874,-5.4494,-5.4494,-5.4494,-5.4494,-5.4494,-5.4494,-5.4494,-5.3736,-5.3391,-5.3322,-5.1942,-5.1287,-5.1045,-5.0493,-5.0149,-5.0011,-5.0011,-5.0011,-5.0011,-5.0011,-5.0011,-5.0011,-5.0011,-5.0011,-5.0011,-5.0011,-5.0252,-5.0631,-5.1218,-5.2218,-5.3287,-5.4046,-5.2977,-5.2046,-5.3804,-5.3187,-5.2532,-5.3942,-5.3804,-5.346,-5.3632,-5.2597,-5.1632,-5.1632,-5.0873,-5.0169,-5.0009,-4.9825,-4.9718,-4.9555,-4.9187,-4.914,-4.9616,-4.9754,-4.9759,-4.9575,-5.0015,-5.0014,-4.929,-4.9385,-4.9346,-4.9004,-4.931,-4.922,-4.8604,-4.7434,-4.7157,-4.7835,-4.7835,-4.8112,-4.8604,-4.8604,-4.8604,-4.8604,-4.8604,-4.8604,-4.8573,-4.805,-4.8142,-4.8573,-4.805,-4.8142,-4.8604,-4.8604,-4.8604,-4.8604,-4.8604,-4.8604,-4.8604,-6.5979,-6.5911,-6.5876,-6.5876,-6.5255,-6.4772,-6.4772,-6.422,-6.3772,-6.3772,-6.3703,-6.3669,-6.3669,-6.2944,-6.2186,-6.1461,-6.0703,-5.9944,-5.915,-5.9081,-5.9081,-5.9081,-5.8392,-5.7598,-5.6805,-5.6081,-5.5322,-5.4494,-5.4494,-5.4494,-5.4494,-5.4494,-5.4494,-5.4494,-5.3736,-5.3391,-5.3356,-5.2494,-5.1705,-5.1114,-5.1045,-5.0631,-5.0011,-5.0011,-5.0011,-5.0011,-5.0011,-5.0011,-5.0011,-5.0011,-5.0011,-5.0011,-5.0011,-5.0942,-5.205,-5.2084,-5.2188,-5.2459,-5.3253,-5.3356,-5.3287,-5.3425,-5.2839,-5.2394,-5.3287,-5.3425,-5.3598,-5.4287,-5.3804,-5.3218,-5.3218,-5.2046,-5.0948,-5.0749,-5.0298,-4.9889,-4.9639,-5.0246,-5.0716,-5.0784,-5.1089,-5.131,-5.1314,-5.1128,-5.0749,-5.0054,-5.0615,-5.0366,-4.9073,-5.023,-5.0922,-5.0838,-4.8686,-4.7865,-4.8543,-4.8543,-4.8573,-4.8604,-4.8604,-4.8604,-4.8604,-4.8604,-4.8604,-4.8604,-4.8573,-4.8573,-4.8604,-4.8573,-4.8573,-4.8604,-4.8604,-4.8604,-4.8604,-4.8604,-4.8604,-4.8604,-6.5152,-6.4772,-6.4462,-6.4462,-6.422,-6.4014,-6.4014,-6.3772,-6.36,-6.36,-6.36,-6.36,-6.36,-6.2496,-6.1634,-6.1323,-6.0185,-5.9323,-5.9047,-5.9012,-5.9012,-5.9012,-5.8737,-5.8012,-5.684,-5.6495,-5.5736,-5.4494,-5.4494,-5.4494,-5.4494,-5.4494,-5.4494,-5.4494,-5.4218,-5.408,-5.4046,-5.3287,-5.2494,-5.174,-5.1287,-5.0666,-5.0011,-5.0011,-5.0011,-5.0011,-5.0011,-5.0011,-5.0011,-5.0011,-5.0011,-5.008,-5.0562,-5.108,-5.1602,-5.205,-5.2908,-5.3598,-5.346,-5.2701,-5.2321,-5.3736,-5.3529,-5.3149,-5.3908,-5.408,-5.4184,-5.446,-5.3908,-5.3391,-5.3391,-5.2528,-5.1752,-5.1685,-5.1524,-5.1339,-5.121,-5.1497,-5.1855,-5.2211,-5.2395,-5.2614,-5.2832,-5.2774,-5.2539,-5.2236,-5.2437,-5.2334,-5.1792,-5.1816,-5.1834,-5.1842,-5.051,-4.9662,-4.939,-4.939,-4.9138,-4.8604,-4.8604,-4.8604,-4.8604,-4.8604,-4.8604,-4.8604,-4.8173,-4.8235,-4.8573,-4.8173,-4.8235,-4.8604,-4.8604,-4.8604,-4.8604,-4.8604,-4.8604,-4.8604,-6.4358,-6.3945,-6.3531,-6.3289,-6.3255,-6.3255,-6.3255,-6.3255,-6.3324,-6.3565,-6.36,-6.36,-6.36,-6.2427,-6.1565,-6.1323,-6.0116,-5.9288,-5.9047,-5.9012,-5.9012,-5.9012,-5.8806,-5.8081,-5.684,-5.6564,-5.5805,-5.4494,-5.4494,-5.4494,-5.4494,-5.4494,-5.4494,-5.4494,-5.4253,-5.4287,-5.446,-5.346,-5.2701,-5.2119,-5.1425,-5.0666,-5.0011,-5.0011,-5.0011,-5.0011,-5.0011,-5.0011,-5.0011,-5.0011,-5.0149,-5.0424,-5.0942,-5.1425,-5.1977,-5.2735,-5.3529,-5.4115,-5.3839,-5.2804,-5.2252,-5.4046,-5.3942,-5.3598,-5.4356,-5.4494,-5.4494,-5.4494,-5.4115,-5.377,-5.377,-5.3115,-5.2597,-5.2597,-5.236,-5.2188,-5.2188,-5.2394,-5.2708,-5.3132,-5.3344,-5.3528,-5.3748,-5.375,-5.3651,-5.3484,-5.3518,-5.3518,-5.3518,-5.2972,-5.2694,-5.2694,-5.2131,-5.1443,-5.0685,-5.0416,-4.9986,-4.939,-4.939,-4.939,-4.939,-4.939,-4.939,-4.9358,-4.8889,-4.8951,-4.9358,-4.8858,-4.8951,-4.939,-4.939,-4.939,-4.939,-4.939,-4.939,-4.939,-6.36,-6.36,-6.3358,-6.2634,-6.2496,-6.2496,-6.2496,-6.2496,-6.2737,-6.3496,-6.36,-6.36,-6.36,-6.2944,-6.2186,-6.1358,-6.0634,-5.9875,-5.9047,-5.9012,-5.9012,-5.9012,-5.8288,-5.7564,-5.6805,-5.6012,-5.5253,-5.4494,-5.4494,-5.4494,-5.4494,-5.4494,-5.4494,-5.4494,-5.3736,-5.3839,-5.4425,-5.2873,-5.2188,-5.2119,-5.1425,-5.0666,-5.0011,-5.0011,-5.0011,-5.0011,-5.0011,-5.0011,-5.0011,-5.0011,-5.0493,-5.1114,-5.1114,-5.2183,-5.3563,-5.4287,-5.3977,-5.3563,-5.4322,-5.3977,-5.3598,-5.4322,-5.3942,-5.3598,-5.4356,-5.4494,-5.4494,-5.4494,-5.4494,-5.4494,-5.4494,-5.3908,-5.3425,-5.3425,-5.2735,-5.2222,-5.2222,-5.2908,-5.3425,-5.3425,-5.3888,-5.4143,-5.4013,-5.3816,-5.3651,-5.3484,-5.3518,-5.3518,-5.3518,-5.3518,-5.3518,-5.3518,-5.3518,-5.3144,-5.2307,-5.148,-5.1107,-5.1107,-5.1107,-5.1107,-5.1107,-5.1107,-5.1107,-5.1107,-5.1107,-5.1107,-5.1107,-5.1107,-5.1107,-5.1107,-5.1107,-5.1107,-5.1107,-5.1107,-5.1107,-5.1107,-6.36,-6.36,-6.3358,-6.2634,-6.2496,-6.2289,-6.1737,-6.2117,-6.2565,-6.2772,-6.3255,-6.36,-6.36,-6.2944,-6.2186,-6.1358,-6.0634,-5.9875,-5.9047,-5.9012,-5.9012,-5.9012,-5.8288,-5.7564,-5.6805,-5.6012,-5.5253,-5.4494,-5.4494,-5.4494,-5.4494,-5.4494,-5.4494,-5.4494,-5.4287,-5.4287,-5.446,-5.346,-5.2735,-5.2119,-5.1425,-5.0666,-5.0011,-5.0011,-5.0011,-5.0011,-5.0011,-5.0011,-5.008,-5.0597,-5.0942,-5.1287,-5.239,-5.3391,-5.4218,-5.446,-5.4356,-5.4218,-5.446,-5.4356,-5.4218,-5.446,-5.4356,-5.4253,-5.446,-5.4494,-5.4494,-5.4494,-5.4494,-5.4494,-5.4494,-5.4322,-5.4184,-5.4184,-5.3977,-5.3839,-5.3839,-5.4046,-5.4184,-5.4184,-5.4293,-5.4335,-5.4175,-5.411,-5.3948,-5.3651,-5.3551,-5.3518,-5.3518,-5.3518,-5.3518,-5.3518,-5.3518,-5.3382,-5.3144,-5.2343,-5.1659,-5.1107,-5.1107,-5.1107,-5.1107,-5.1107,-5.1107,-5.1107,-5.1107,-5.1107,-5.1107,-5.1107,-5.1107,-5.1107,-5.1107,-5.1107,-5.1107,-5.1107,-5.1107,-5.1107,-6.322,-6.3151,-6.2806,-6.1772,-6.1599,-6.153,-6.1323,-6.1703,-6.222,-6.2841,-6.3324,-6.3496,-6.3186,-6.2772,-6.2048,-6.0944,-6.0185,-5.953,-5.9047,-5.9012,-5.9012,-5.9012,-5.8012,-5.7253,-5.6805,-5.6012,-5.5253,-5.4494,-5.4494,-5.4494,-5.4494,-5.4494,-5.4494,-5.4494,-5.4494,-5.4356,-5.4046,-5.3598,-5.277,-5.1735,-5.1287,-5.0666,-5.0011,-5.0011,-5.0183,-5.0424,-5.0114,-5.0183,-5.0493,-5.0976,-5.1528,-5.2218,-5.346,-5.4149,-5.4494,-5.4494,-5.4494,-5.4494,-5.4494,-5.4494,-5.4494,-5.4494,-5.4494,-5.4494,-5.4494,-5.4494,-5.4494,-5.4494,-5.4494,-5.4494,-5.4494,-5.4494,-5.4494,-5.4494,-5.4494,-5.4494,-5.4494,-5.4494,-5.4494,-5.4494,-5.4494,-5.4399,-5.4239,-5.4207,-5.4078,-5.375,-5.3617,-5.3551,-5.3518,-5.3518,-5.3518,-5.3518,-5.3518,-5.3518,-5.3518,-5.3007,-5.252,-5.2059,-5.2059,-5.2059,-5.2059,-5.2059,-5.2059,-5.2059,-5.2059,-5.2059,-5.2059,-5.2059,-5.2059,-5.2059,-5.2059,-5.2059,-5.2059,-5.2059,-5.2059,-5.2059,-6.2703,-6.253,-6.2013,-6.0565,-6.0289,-6.0496,-6.1116,-6.1323,-6.191,-6.3324,-6.3496,-6.3255,-6.2565,-6.2427,-6.1806,-6.0323,-5.9461,-5.9012,-5.9012,-5.8944,-5.8944,-5.9012,-5.7529,-5.6736,-5.6805,-5.5943,-5.5184,-5.4494,-5.4494,-5.4494,-5.4494,-5.4494,-5.4494,-5.4494,-5.4494,-5.4115,-5.3391,-5.3322,-5.2459,-5.1114,-5.1045,-5.0597,-5.0011,-5.008,-5.0528,-5.1011,-5.0355,-5.0562,-5.1218,-5.1287,-5.2287,-5.3632,-5.4287,-5.4494,-5.4494,-5.4494,-5.4494,-5.4494,-5.4494,-5.4494,-5.4494,-5.4494,-5.4494,-5.4494,-5.4494,-5.4494,-5.4494,-5.4494,-5.4494,-5.4494,-5.4494,-5.4494,-5.4494,-5.4494,-5.4494,-5.4494,-5.4494,-5.4494,-5.4494,-5.4494,-5.4494,-5.4431,-5.4239,-5.4207,-5.4078,-5.3783,-5.375,-5.3651,-5.3551,-5.3517,-5.3517,-5.3517,-5.3551,-5.3484,-5.3518,-5.3518,-5.3518,-5.3518,-5.3518,-5.3518,-5.3518,-5.3518,-5.3518,-5.3518,-5.3518,-5.3518,-5.3518,-5.3518,-5.3518,-5.3518,-5.3518,-5.3518,-5.3518,-5.3518,-5.3518,-5.3518,-6.3393,-6.2875,-6.2186,-6.122,-6.1047,-6.0909,-6.0496,-6.1461,-6.2358,-6.2668,-6.2737,-6.2668,-6.2496,-6.1944,-6.1185,-6.0289,-5.9461,-5.9012,-5.9012,-5.8461,-5.8392,-5.8978,-5.6978,-5.6184,-5.6771,-5.546,-5.4667,-5.4494,-5.4494,-5.4494,-5.4494,-5.4494,-5.4494,-5.4494,-5.4494,-5.4115,-5.3356,-5.2735,-5.1912,-5.1045,-5.0493,-5.0149,-5.008,-5.0666,-5.0976,-5.108,-5.0942,-5.1356,-5.205,-5.2701,-5.3529,-5.4287,-5.446,-5.4494,-5.4494,-5.4494,-5.4494,-5.4494,-5.4494,-5.4494,-5.4494,-5.4494,-5.4494,-5.4494,-5.4494,-5.4494,-5.4494,-5.4494,-5.4494,-5.4494,-5.4494,-5.4494,-5.4494,-5.4494,-5.4494,-5.4494,-5.4494,-5.4494,-5.4494,-5.4494,-5.4494,-5.4463,-5.4431,-5.4303,-5.4175,-5.411,-5.398,-5.3915,-5.3882,-5.3882,-5.3816,-5.3651,-5.3651,-5.3618,-5.3518,-5.3518,-5.3518,-5.3518,-5.3518,-5.3518,-5.3518,-5.3518,-5.3518,-5.3518,-5.3518,-5.3518,-5.3518,-5.3518,-5.3518,-5.3518,-5.3518,-5.3518,-5.3518,-5.3518,-5.3518,-5.3518,-6.2565,-6.2496,-6.2255,-6.1427,-6.1013,-6.0771,-6.0737,-6.1116,-6.153,-6.1875,-6.191,-6.1772,-6.1427,-6.1013,-6.0461,-5.9702,-5.9254,-5.9012,-5.9012,-5.8633,-5.8461,-5.8495,-5.7012,-5.6184,-5.6219,-5.5081,-5.4494,-5.4494,-5.4494,-5.4494,-5.4494,-5.4494,-5.4494,-5.4494,-5.4494,-5.3873,-5.2804,-5.236,-5.1774,-5.108,-5.07,-5.0735,-5.1114,-5.1464,-5.1602,-5.1602,-5.1602,-5.2114,-5.2839,-5.3253,-5.3908,-5.4494,-5.4494,-5.4494,-5.4494,-5.4494,-5.4494,-5.4494,-5.4494,-5.4494,-5.4494,-5.4494,-5.4494,-5.4494,-5.4494,-5.4494,-5.4494,-5.4494,-5.4494,-5.4494,-5.4494,-5.4494,-5.4494,-5.4494,-5.4494,-5.4494,-5.4494,-5.4494,-5.4494,-5.4494,-5.4494,-5.4494,-5.4494,-5.4399,-5.4303,-5.4207,-5.4143,-5.4078,-5.4013,-5.398,-5.3948,-5.3849,-5.3849,-5.3816,-5.3751,-5.3751,-5.3751,-5.3751,-5.3551,-5.3518,-5.3518,-5.3518,-5.3518,-5.3518,-5.3584,-5.3618,-5.3618,-5.3618,-5.3618,-5.3584,-5.3517,-5.3518,-5.3518,-5.3518,-5.3518,-5.3518,-6.1461,-6.1841,-6.2048,-6.1254,-6.0599,-6.0392,-6.1013,-6.0703,-6.0599,-6.122,-6.1185,-6.0875,-6.0254,-6.0082,-5.9737,-5.9081,-5.9012,-5.9012,-5.9012,-5.8909,-5.8564,-5.7943,-5.7081,-5.6288,-5.56,-5.4908,-5.4494,-5.4494,-5.4494,-5.4494,-5.4494,-5.4494,-5.4494,-5.4494,-5.4494,-5.3736,-5.2425,-5.2425,-5.1946,-5.1287,-5.1287,-5.1636,-5.2188,-5.2188,-5.2291,-5.239,-5.2084,-5.2459,-5.308,-5.346,-5.3908,-5.4356,-5.446,-5.4494,-5.4494,-5.4494,-5.4494,-5.4494,-5.4494,-5.4494,-5.4494,-5.4494,-5.4494,-5.4494,-5.4494,-5.4494,-5.4494,-5.4494,-5.4494,-5.4494,-5.4494,-5.4494,-5.4494,-5.4494,-5.4494,-5.4494,-5.4494,-5.4494,-5.4494,-5.4494,-5.4494,-5.4494,-5.4494,-5.4494,-5.4431,-5.4271,-5.4271,-5.4207,-5.4078,-5.4078,-5.4078,-5.4045,-5.4045,-5.4013,-5.398,-5.398,-5.398,-5.398,-5.3718,-5.3584,-5.3584,-5.3584,-5.3584,-5.3584,-5.3684,-5.375,-5.375,-5.375,-5.375,-5.375,-5.3618,-5.3584,-5.3584,-5.3584,-5.3584,-5.3584,-6.1461,-6.1392,-6.122,-6.0461,-6.0254,-6.022,-6.0323,-6.0806,-6.1185,-6.1289,-6.0737,-6.0323,-6.022,-5.9599,-5.9116,-5.9012,-5.9012,-5.9012,-5.9012,-5.8392,-5.8012,-5.7909,-5.6529,-5.5736,-5.5598,-5.4908,-5.4494,-5.4494,-5.4494,-5.4494,-5.4494,-5.4494,-5.4494,-5.4494,-5.4494,-5.4046,-5.3253,-5.3253,-5.2804,-5.205,-5.205,-5.2084,-5.2188,-5.2188,-5.2632,-5.308,-5.1735,-5.1321,-5.1735,-5.3701,-5.4011,-5.3667,-5.4322,-5.4494,-5.4494,-5.4494,-5.4494,-5.4494,-5.4494,-5.4494,-5.4494,-5.4494,-5.4494,-5.4494,-5.4494,-5.4494,-5.4494,-5.4494,-5.4494,-5.4494,-5.4494,-5.4494,-5.4494,-5.4494,-5.4494,-5.4494,-5.4494,-5.4494,-5.4494,-5.4494,-5.4494,-5.4494,-5.4494,-5.4494,-5.4463,-5.4463,-5.4463,-5.4431,-5.4431,-5.4431,-5.4335,-5.4175,-5.4175,-5.411,-5.398,-5.398,-5.398,-5.398,-5.3948,-5.3915,-5.3915,-5.3915,-5.3915,-5.3915,-5.3948,-5.3948,-5.3948,-5.3948,-5.3948,-5.3948,-5.3915,-5.3915,-5.3915,-5.3915,-5.3915,-5.3915,-6.0807,-6.1013,-6.1185,-6.0875,-6.0461,-6.0185,-6.0185,-6.0082,-6.0013,-6.0013,-5.9737,-5.953,-5.953,-5.9219,-5.9012,-5.9012,-5.9012,-5.9012,-5.9012,-5.8702,-5.815,-5.7322,-5.6633,-5.5874,-5.5012,-5.4667,-5.4494,-5.4494,-5.4494,-5.4494,-5.4494,-5.4494,-5.4494,-5.4494,-5.4494,-5.4115,-5.3391,-5.3391,-5.3184,-5.2873,-5.2873,-5.2873,-5.2942,-5.3356,-5.3184,-5.2701,-5.2494,-5.2666,-5.3149,-5.4184,-5.4287,-5.408,-5.4391,-5.4494,-5.4494,-5.4494,-5.4494,-5.4494,-5.4494,-5.4494,-5.4494,-5.4494,-5.4494,-5.4494,-5.4494,-5.4494,-5.4494,-5.4494,-5.4494,-5.4494,-5.4494,-5.4494,-5.4494,-5.4494,-5.4494,-5.4494,-5.4494,-5.4494,-5.4494,-5.4494,-5.4494,-5.4494,-5.4494,-5.4494,-5.4494,-5.4494,-5.4494,-5.4494,-5.4494,-5.4494,-5.4463,-5.4367,-5.4367,-5.4335,-5.4271,-5.4271,-5.4271,-5.4271,-5.4271,-5.4175,-5.398,-5.398,-5.398,-5.4013,-5.4078,-5.411,-5.411,-5.411,-5.411,-5.411,-5.4013,-5.398,-5.398,-5.398,-5.398,-5.398]},{"header":{"parameterUnit":"m.s-1","parameterCategory":1,"la1":30.6,"la2":28.766,"lo1":-90.7593,"lo2":-88.6598,"dy":0.0162,"dx":0.0183,"nx":116,"ny":114,"refTime":"2023-08-07T06:00:00:Z","depth":0,"parameterNumber":3,"parameterNumberName":"V-component_of_WINDS"},"data":[0.0,0.0,0.0,0.0,0.0,0.0,0.0,0.0,0.0,0.0,0.0,0.0,0.0,0.0,0.0,0.0,0.0,0.0,0.0,0.0,0.0,0.0,0.0,0.0,0.0,0.0,0.0,0.0,0.0,0.0,0.0,0.0,0.0,0.0,0.0,0.0,0.0,0.0,0.0,0.0,0.0,0.0,0.0,0.0,0.0,0.0,0.0,0.0,0.0,0.0,0.0,0.0,0.0,0.0,0.0,0.0,0.0,0.0,0.0,0.0,0.0,0.0,0.0,0.0,0.0,0.0,0.0,0.0,0.0,0.0,0.0,0.0,0.0,0.0,0.0,0.0,0.0,0.0,0.0,0.0,0.0,0.0,0.0,0.0,0.0,0.0,0.0,0.0,0.0,0.0,0.0,0.0,0.0,0.0,0.0,0.0,0.0,0.0,0.0,0.0,0.0,0.0,0.0,0.0,0.0,0.0,0.0,0.0,0.0,0.0,0.0,0.0,0.0,0.0,0.0,0.0,0.0,0.0,0.0,0.0,0.0,0.0,0.0,0.0,0.0,0.0,0.0,0.0,0.0,0.0,0.0,0.0,0.0,0.0,0.0,0.0,0.0,0.0,0.0,0.0,0.0,0.0,0.0,0.0,0.0,0.0,0.0,0.0,0.0,0.0,0.0,0.0,0.0,0.0,0.0,0.0,0.0,0.0,0.0,0.0,0.0,0.0,0.0,0.0,0.0,0.0,0.0,0.0,0.0,0.0,0.0,0.0,0.0,0.0,0.0,0.0,0.0,0.0,0.0,0.0,0.0,0.0,0.0,0.0,0.0,0.0,0.0,0.0,0.0,0.0,0.0,0.0,0.0,0.0,0.0,0.0,0.0,0.0,0.0,0.0,0.0,0.0,0.0,0.0,0.0,0.0,0.0,0.0,0.0,0.0,0.0,0.0,0.0,0.0,0.0,0.0,0.0,0.0,0.0,0.0,0.0,0.0,0.0,0.0,0.0,0.0,0.0,0.0,0.0,0.0,0.0,0.0,0.0,0.0,0.0,0.0,0.0,0.0,0.0,0.0,0.0,0.0,0.0,0.0,0.0,0.0,0.0,0.0,0.0,0.0,0.0,0.0,0.0,0.0,0.0,0.0,0.0,0.0,0.0,0.0,0.0,0.0,0.0,0.0,0.0,0.0,0.0,0.0,0.0,0.0,0.0,0.0,0.0,0.0,0.0,0.0,0.0,0.0,0.0,0.0,0.0,0.0,0.0,0.0,0.0,0.0,0.0,0.0,0.0,0.0,0.0,0.0,0.0,0.0,0.0,0.0,0.0,0.0,0.0,0.0,0.0,0.0,0.0,0.0,0.0,0.0,0.0,0.0,0.0,0.0,0.0,0.0,0.0,0.0,0.0,0.0,0.0,0.0,0.0,0.0,0.0,0.0,0.0,0.0,0.0,0.0,0.0,0.0,0.0,0.0,0.0,0.0,0.0,0.0,0.0,0.0,0.0,0.0,0.0,0.0,0.0,0.0,0.0,0.0,0.0,0.0,0.0,0.0,0.0,0.0,0.0,0.0,0.0,0.0,0.0,0.0,0.0,0.0,0.0,0.0,0.0,0.0,0.0,0.0,0.0,0.0,0.0,0.0,0.0,0.0,0.0,0.0,0.0,0.0,0.0,0.0,0.0,0.0,0.0,0.0,0.0,0.0,0.0,0.0,0.0,0.0,0.0,0.0,0.0,0.0,0.0,0.0,0.0,0.0,0.0,0.0,0.0,0.0,0.0,0.0,0.0,0.0,0.0,0.0,0.0,0.0,0.0,0.0,0.0,0.0,0.0,0.0,0.0,0.0,0.0,0.0,0.0,0.0,0.0,0.0,0.0,0.0,0.0,0.0,0.0,0.0,0.0,0.0,0.0,0.0,0.0,0.0,0.0,0.0,0.0,0.0,0.0,0.0,0.0,0.0,0.0,0.0,0.0,0.0,0.0,0.0,0.0,0.0,0.0,0.0,0.0,0.0,0.0,0.0,0.0,0.0,0.0,0.0,0.0,0.0,0.0,0.0,0.0,0.0,0.0,0.0,0.0,0.0,0.0,0.0,0.0,0.0,0.0,0.0,0.0,0.0,0.0,0.0,0.0,0.0,0.0,0.0,0.0,0.0,0.0,0.0,0.0,0.0,0.0,0.0,0.0,0.0,0.0,0.0,0.0,0.0,0.0,0.0,0.0,0.0,0.0,0.0,0.0,0.0,0.0,0.0,0.0,0.0,0.0,0.0,0.0,0.0,0.0,0.0,0.0,0.0,0.0,0.0,0.0,0.0,0.0,0.0,0.0,0.0,0.0,0.0,0.0,0.0,0.0,0.0,0.0,0.0,0.0,0.0,0.0,0.0,0.0,0.0,0.0,0.0,0.0,0.0,0.0,0.0,0.0,0.0,0.0,0.0,0.0,0.0,0.0,0.0,0.0,0.0,0.0,0.0,0.0,0.0,0.0,0.0,0.0,0.0,0.0,0.0,0.0,0.0,0.0,0.0,0.0,0.0,0.0,0.0,0.0,0.0,0.0,0.0,0.0,0.0,0.0,0.0,0.0,0.0,0.0,0.0,0.0,0.0,0.0,0.0,0.0,0.0,0.0,0.0,0.0,0.0,0.0,0.0,0.0,0.0,0.0,0.0,0.0,0.0,0.0,0.0,0.0,0.0,0.0,0.0,0.0,0.0,0.0,0.0,0.0,0.0,0.0,0.0,0.0,0.0,0.0,0.0,0.0,0.0,0.0,0.0,0.0,0.0,0.0,0.0,0.0,0.0,0.0,0.0,0.0,0.0,0.0,0.0,0.0,0.0,0.0,0.0,0.0,0.0,0.0,0.0,0.0,0.0,0.0,0.0,0.0,0.0,0.0,0.0,0.0,0.0,0.0,0.0,0.0,0.0,0.0,0.0,0.0,0.0,0.0,0.0,0.0,0.0,0.0,0.0,0.0,0.0,0.0,0.0,0.0,0.0,0.0,0.0,0.0,0.0,0.0,0.0,0.0,0.0,0.0,0.0,0.0,0.0,0.0,0.0,0.0,0.0,0.0,0.0,0.0,0.0,0.0,0.0,0.0,0.0,0.0,0.0,0.0,0.0,0.0,0.0,0.0,0.0,0.0,0.0,0.0,0.0,0.0,0.0,0.0,0.0,0.0,0.0,0.0,0.0,0.0,0.0,0.0,0.0,0.0,0.0,0.0,0.0,0.0,0.0,0.0,0.0,0.0,0.0,0.0,0.0,0.0,0.0,0.0,0.0,0.0,0.0,0.0,0.0,0.0,0.0,0.0,0.0,0.0,0.0,0.0,0.0,0.0,0.0,0.0,0.0,0.0,0.0,0.0,0.0,0.0,0.0,0.0,0.0,0.0,0.0,0.0,0.0,0.0,0.0,0.0,0.0,0.0,0.0,0.0,0.0,0.0,0.0,0.0,0.0,0.0,0.0,0.0,0.0,0.0,0.0,0.0,0.0,0.0,0.0,0.0,0.0,0.0,0.0,0.0,0.0,0.0,0.0,0.0,0.0,0.0,0.0,0.0,0.0,0.0,0.0,0.0,0.0,0.0,0.0,0.0,0.0,0.0,0.0,0.0,0.0,0.0,0.0,0.0,0.0,0.0,0.0,0.0,0.0,0.0,0.0,0.0,0.0,0.0,0.0,0.0,0.0,0.0,0.0,0.0,0.0,0.0,0.0,0.0,0.0,0.0,0.0,0.0,0.0,0.0,0.0,0.0,0.0,0.0,0.0,0.0,0.0,0.0,0.0,0.0,0.0,0.0,0.0,0.0,0.0,0.0,0.0,0.0,0.0,0.0,0.0,0.0,0.0,0.0,0.0,0.0,0.0,0.0,0.0,0.0,0.0,0.0,0.0,0.0,0.0,0.0,0.0,0.0,0.0,0.0,0.0,0.0,0.0,0.0,0.0,0.0,0.0,0.0,0.0,0.0,0.0,0.0,0.0,0.0,0.0,0.0,0.0,0.0,0.0,0.0,0.0,0.0,0.0,0.0,0.0,0.0,0.0,0.0,0.0,0.0,0.0,0.0,0.0,0.0,0.0,0.0,0.0,0.0,0.0,0.0,0.0,0.0,0.0,0.0,0.0,0.0,0.0,0.0,0.0,0.0,0.0,0.0,0.0,0.0,0.0,0.0,0.0,0.0,0.0,0.0,0.0,0.0,0.0,0.0,0.0,0.0,0.0,0.0,0.0,0.0,0.0,0.0,0.0,0.0,0.0,0.0,0.0,0.0,0.0,0.0,0.0,0.0,0.0,0.0,0.0,0.0,0.0,0.0,0.0,0.0,0.0,0.0,0.0,0.0,0.0,0.0,0.0,0.0,0.0,0.0,0.0,0.0,0.0,0.0,0.0,0.0,0.0,0.0,0.0,0.0,0.0,0.0,0.0,0.0,0.0,0.0,0.0,0.0,0.0,0.0,0.0,0.0,0.0,0.0,0.0,0.0,0.0,0.0,0.0,0.0,0.0,0.0,0.0,0.0,0.0,0.0,0.0,0.0,0.0,0.0,0.0,0.0,0.0,0.0,0.0,0.0,0.0,0.0,0.0,0.0,0.0,0.0,0.0,0.0,0.0,0.0,0.0,0.0,0.0,0.0,0.0,0.0,0.0,0.0,0.0,0.0,0.0,0.0,0.0,0.0,0.0,0.0,0.0,0.0,0.0,0.0,0.0,0.0,0.0,0.0,0.0,0.0,0.0,0.0,0.0,0.0,0.0,0.0,0.0,0.0,0.0,0.0,0.0,0.0,0.0,0.0,0.0,0.0,0.0,0.0,0.0,0.0,0.0,0.0,0.0,0.0,0.0,0.0,0.0,0.0,0.0,0.0,0.0,0.0,0.0,0.0,0.0,0.0,0.0,0.0,0.0,0.0,0.0,0.0,0.0,0.0,0.0,0.0,0.0,0.0,0.0,0.0,0.0,0.0,0.0,0.0,0.0,0.0,0.0,0.0,0.0,0.0,0.0,0.0,0.0,0.0,0.0,0.0,0.0,0.0,0.0,0.0,0.0,0.0,0.0,0.0,0.0,0.0,0.0,0.0,0.0,0.0,0.0,0.0,0.0,0.0,0.0,0.0,0.0,0.0,0.0,0.0,0.0,0.0,0.0,0.0,0.0,0.0,0.0,0.0,0.0,0.0,0.0,0.0,0.0,0.0,0.0,0.0,0.0,0.0,0.0,0.0,0.0,0.0,0.0,0.0,0.0,0.0,0.0,0.0,0.0,0.0,0.0,0.0,0.0,0.0,0.0,0.0,0.0,0.0,0.0,0.0,0.0,0.0,0.0,0.0,0.0,0.0,0.0,0.0,0.0,0.0,0.0,0.0,0.0,0.0,0.0,0.0,0.0,0.0,0.0,0.0,0.0,0.0,0.0,0.0,0.0,0.0,0.0,0.0,0.0,0.0,0.0,0.0,0.0,0.0,0.0,0.0,0.0,0.0,0.0,0.0,0.0,0.0,0.0,0.0,0.0,0.0,0.0,0.0,0.0,0.0,0.0,0.0,0.0,0.0,0.0,0.0,0.0,0.0,0.0,0.0,0.0,0.0,0.0,0.0,0.0,0.0,0.0,0.0,0.0,0.0,0.0,0.0,0.0,0.0,0.0,0.0,0.0,0.0,0.0,0.0,0.0,0.0,0.0,0.0,0.0,0.0,0.0,0.0,0.0,0.0,0.0,0.0,0.0,0.0,0.0,0.0,0.0,0.0,0.0,0.0,0.0,0.0,0.0,0.0,0.0,0.0,0.0,0.0,0.0,0.0,0.0,0.0,0.0,0.0,0.0,0.0,0.0,0.0,0.0,0.0,0.0,0.0,0.0,0.0,0.0,0.0,0.0,0.0,0.0,0.0,0.0,0.0,0.0,0.0,0.0,0.0,0.0,0.0,0.0,0.0,0.0,0.0,0.0,0.0,0.0,0.0,0.0,0.0,0.0,0.0,0.0,0.0,0.0,0.0,0.0,0.0,0.0,0.0,0.0,0.0,0.0,0.0,0.0,0.0,0.0,0.0,0.0,0.0,0.0,0.0,0.0,0.0,0.0,0.0,0.0,0.0,0.0,0.0,0.0,0.0,0.0,0.0,0.0,0.0,0.0,-4.1831,-4.1366,0.0,0.0,0.0,0.0,0.0,0.0,0.0,0.0,0.0,0.0,0.0,0.0,0.0,0.0,0.0,0.0,0.0,0.0,0.0,0.0,0.0,0.0,0.0,0.0,0.0,0.0,0.0,0.0,0.0,0.0,0.0,0.0,0.0,0.0,0.0,0.0,0.0,0.0,0.0,0.0,0.0,0.0,0.0,0.0,0.0,0.0,0.0,0.0,0.0,0.0,0.0,0.0,0.0,0.0,0.0,0.0,0.0,0.0,0.0,0.0,0.0,0.0,0.0,0.0,0.0,0.0,0.0,0.0,0.0,0.0,0.0,0.0,0.0,0.0,0.0,0.0,0.0,0.0,0.0,0.0,0.0,0.0,0.0,0.0,0.0,0.0,0.0,0.0,0.0,0.0,0.0,0.0,0.0,0.0,0.0,0.0,0.0,0.0,0.0,0.0,0.0,0.0,0.0,0.0,0.0,0.0,0.0,0.0,0.0,0.0,0.0,0.0,0.0,0.0,-4.3805,-4.2818,0.0,0.0,0.0,0.0,0.0,0.0,0.0,0.0,0.0,0.0,0.0,0.0,0.0,0.0,0.0,0.0,0.0,0.0,0.0,0.0,0.0,0.0,0.0,0.0,0.0,0.0,0.0,0.0,0.0,0.0,0.0,0.0,0.0,0.0,0.0,0.0,0.0,0.0,0.0,0.0,0.0,0.0,0.0,0.0,0.0,0.0,0.0,0.0,0.0,0.0,0.0,0.0,0.0,0.0,0.0,0.0,0.0,0.0,0.0,0.0,0.0,0.0,0.0,0.0,0.0,0.0,0.0,0.0,0.0,0.0,0.0,0.0,0.0,0.0,0.0,0.0,0.0,0.0,0.0,0.0,0.0,0.0,0.0,0.0,0.0,0.0,0.0,0.0,0.0,0.0,0.0,0.0,0.0,0.0,0.0,0.0,0.0,0.0,0.0,0.0,0.0,0.0,0.0,0.0,0.0,0.0,0.0,0.0,-4.6011,-4.723,-4.784,-4.8478,-4.9059,-4.9359,-4.6795,-4.5198,-4.4443,-4.4008,0.0,0.0,0.0,0.0,0.0,0.0,0.0,0.0,0.0,0.0,0.0,0.0,0.0,0.0,0.0,0.0,0.0,0.0,0.0,0.0,0.0,0.0,0.0,0.0,0.0,0.0,0.0,0.0,0.0,0.0,0.0,0.0,0.0,0.0,0.0,0.0,0.0,0.0,0.0,0.0,0.0,0.0,0.0,0.0,0.0,0.0,0.0,0.0,0.0,0.0,0.0,0.0,0.0,0.0,0.0,0.0,0.0,0.0,0.0,0.0,0.0,0.0,0.0,0.0,0.0,0.0,0.0,0.0,0.0,0.0,0.0,0.0,0.0,0.0,0.0,0.0,0.0,0.0,0.0,0.0,0.0,0.0,0.0,0.0,0.0,0.0,-3.5659,-3.647,0.0,0.0,0.0,0.0,0.0,0.0,0.0,0.0,0.0,0.0,0.0,0.0,0.0,-4.4298,-4.6024,-4.7259,-4.8159,-4.8798,-5.0191,-5.1207,-5.1846,-5.2455,-5.2804,-5.2862,-5.2426,0.0,-4.6459,-4.694,0.0,0.0,0.0,0.0,0.0,0.0,0.0,0.0,0.0,0.0,0.0,0.0,0.0,0.0,0.0,0.0,0.0,0.0,0.0,0.0,0.0,0.0,0.0,0.0,0.0,0.0,0.0,0.0,0.0,0.0,0.0,0.0,0.0,0.0,0.0,0.0,0.0,0.0,0.0,0.0,0.0,0.0,0.0,0.0,0.0,0.0,0.0,0.0,0.0,0.0,0.0,0.0,0.0,0.0,0.0,0.0,0.0,0.0,0.0,0.0,0.0,0.0,0.0,0.0,0.0,0.0,0.0,0.0,0.0,0.0,0.0,0.0,0.0,0.0,0.0,0.0,0.0,0.0,0.0,0.0,0.0,0.0,0.0,0.0,0.0,-3.6054,-3.6845,-3.7936,-3.8269,-3.8588,0.0,0.0,0.0,0.0,0.0,0.0,0.0,0.0,0.0,-4.6156,-4.6853,-4.8101,-5.0046,-5.0975,-5.1904,-5.292,-5.4197,-5.5155,-5.5823,-5.6461,-5.6781,-5.6781,-5.6781,-5.4807,-5.1497,-4.964,-4.7579,-4.5518,0.0,0.0,0.0,0.0,-4.4008,-4.4153,0.0,0.0,0.0,0.0,0.0,0.0,0.0,0.0,0.0,0.0,0.0,0.0,0.0,0.0,0.0,0.0,0.0,0.0,0.0,0.0,0.0,0.0,0.0,0.0,0.0,0.0,0.0,0.0,0.0,0.0,0.0,0.0,0.0,0.0,0.0,0.0,0.0,0.0,0.0,0.0,0.0,0.0,0.0,0.0,0.0,0.0,0.0,0.0,0.0,0.0,0.0,0.0,0.0,0.0,0.0,0.0,0.0,0.0,0.0,0.0,0.0,0.0,0.0,0.0,0.0,0.0,0.0,0.0,0.0,0.0,0.0,0.0,0.0,0.0,0.0,0.0,0.0,-3.7128,-3.7941,-3.915,-3.9751,-4.0128,0.0,0.0,0.0,0.0,0.0,0.0,-4.5401,-4.665,-4.8217,-5.0084,-5.083,-5.2078,-5.4023,-5.4836,-5.5794,-5.6897,-5.8,-5.8871,-5.9539,-6.0032,-6.0264,-6.0264,-6.0264,-5.8987,-5.6607,-5.2949,-5.0104,-4.7985,-4.7172,-4.6388,-4.5721,-4.5895,-4.6214,-4.6708,0.0,0.0,0.0,0.0,0.0,0.0,0.0,0.0,0.0,0.0,0.0,0.0,0.0,0.0,0.0,0.0,0.0,0.0,0.0,0.0,0.0,0.0,0.0,0.0,0.0,0.0,0.0,0.0,0.0,0.0,0.0,0.0,0.0,0.0,0.0,0.0,0.0,0.0,0.0,0.0,0.0,0.0,0.0,0.0,0.0,0.0,0.0,0.0,0.0,0.0,0.0,0.0,0.0,0.0,0.0,0.0,0.0,0.0,0.0,0.0,0.0,0.0,0.0,0.0,0.0,0.0,0.0,0.0,0.0,0.0,0.0,0.0,0.0,0.0,0.0,0.0,0.0,0.0,0.0,-3.937,-3.9829,0.0,0.0,0.0,0.0,-4.3747,-4.6098,-4.8072,-4.9378,-5.0627,-5.2223,-5.4168,-5.4807,-5.6055,-5.8,-5.9248,-6.0206,-6.0932,-6.1542,-6.2209,-6.2848,-6.2877,-6.2906,-6.2906,-6.2906,-6.2151,-6.0642,-5.7419,-5.4226,-5.1439,-5.1962,-5.1439,-5.0423,-5.1004,-5.1265,-5.1381,0.0,0.0,0.0,0.0,0.0,0.0,0.0,0.0,0.0,0.0,0.0,0.0,0.0,0.0,0.0,0.0,0.0,0.0,0.0,0.0,0.0,0.0,0.0,0.0,0.0,0.0,0.0,0.0,0.0,0.0,0.0,0.0,0.0,0.0,0.0,0.0,0.0,0.0,0.0,0.0,0.0,0.0,0.0,0.0,0.0,0.0,0.0,0.0,0.0,0.0,0.0,0.0,0.0,0.0,0.0,0.0,0.0,0.0,0.0,0.0,0.0,0.0,0.0,0.0,0.0,0.0,0.0,0.0,0.0,0.0,0.0,0.0,0.0,0.0,0.0,0.0,0.0,0.0,0.0,-4.274,-4.3819,0.0,-4.5665,-4.6521,-4.7172,-4.7608,-5.0017,-5.1846,-5.2746,-5.4778,-5.681,-5.8755,-5.9829,-6.128,-6.3196,-6.3254,-6.3603,-6.4241,-6.4038,-6.4067,-6.4299,-6.4299,-6.4096,-6.369,-6.369,-6.2964,-6.1716,-6.099,-5.8087,-5.4052,-5.3878,-5.2775,-5.141,-5.2455,-5.2572,-5.2368,0.0,0.0,0.0,0.0,0.0,0.0,0.0,0.0,0.0,0.0,0.0,0.0,0.0,0.0,0.0,0.0,0.0,0.0,0.0,0.0,0.0,0.0,0.0,0.0,0.0,0.0,0.0,0.0,0.0,0.0,0.0,0.0,0.0,0.0,0.0,0.0,0.0,0.0,0.0,0.0,0.0,0.0,-3.5956,0.0,0.0,0.0,0.0,0.0,0.0,0.0,0.0,0.0,0.0,0.0,0.0,0.0,0.0,0.0,0.0,0.0,0.0,0.0,0.0,0.0,0.0,0.0,0.0,0.0,0.0,0.0,0.0,0.0,0.0,0.0,0.0,0.0,0.0,-4.1308,-4.3311,-4.5866,-4.7346,-4.8537,-4.9611,-5.0481,-5.1178,-5.1585,-5.4197,-5.6142,-5.7013,-5.9277,-6.1251,-6.2761,-6.3603,-6.4764,-6.6244,-6.5838,-6.5838,-6.6244,-6.5809,-6.5519,-6.5315,-6.5315,-6.4967,-6.4357,-6.4357,-6.3864,-6.308,-6.3312,-6.128,-5.7913,-5.71,-5.5707,-5.4284,-5.4894,-5.501,-5.4952,0.0,0.0,0.0,0.0,0.0,0.0,0.0,0.0,0.0,0.0,0.0,0.0,0.0,0.0,0.0,0.0,0.0,0.0,0.0,0.0,0.0,0.0,0.0,0.0,0.0,0.0,0.0,0.0,0.0,0.0,0.0,0.0,0.0,0.0,0.0,0.0,0.0,0.0,0.0,0.0,0.0,0.0,-3.8542,0.0,0.0,0.0,0.0,0.0,0.0,0.0,0.0,0.0,0.0,0.0,0.0,0.0,0.0,0.0,0.0,0.0,0.0,0.0,0.0,0.0,0.0,0.0,0.0,0.0,0.0,0.0,0.0,0.0,0.0,0.0,0.0,0.0,-4.305,-4.4211,-4.604,-4.8576,-5.0075,-5.1149,-5.1817,-5.3036,-5.4284,-5.5533,-5.8581,-6.0903,-6.2151,-6.4038,-6.5373,-6.5954,-6.6012,-6.6302,-6.6941,-6.6912,-6.6912,-6.6912,-6.6883,-6.6564,-6.5954,-6.5954,-6.5606,-6.5025,-6.5025,-6.4996,-6.4938,-6.4328,-6.369,-6.2993,-6.1745,-6.0467,-5.9248,-5.861,-5.8784,-5.9306,0.0,0.0,0.0,0.0,0.0,0.0,0.0,0.0,0.0,0.0,0.0,0.0,0.0,0.0,0.0,0.0,0.0,0.0,0.0,0.0,0.0,0.0,0.0,0.0,0.0,0.0,0.0,0.0,0.0,0.0,0.0,0.0,0.0,0.0,0.0,0.0,0.0,0.0,0.0,0.0,0.0,0.0,-3.9245,0.0,0.0,0.0,0.0,0.0,0.0,0.0,0.0,0.0,0.0,0.0,0.0,0.0,0.0,0.0,0.0,0.0,0.0,0.0,0.0,0.0,0.0,0.0,0.0,0.0,0.0,0.0,0.0,0.0,0.0,0.0,-4.3311,-4.4356,-4.4356,-4.7085,-5.0191,-5.321,-5.4691,-5.6084,-5.7681,-5.8987,-5.9887,-6.0235,-6.279,-6.4502,-6.4851,-6.6273,-6.7173,-6.7347,-6.7783,-6.8102,-6.8276,-6.7841,-6.7609,-6.7609,-6.7115,-6.6796,-6.6622,-6.6622,-6.6273,-6.5664,-6.5664,-6.5402,-6.4967,-6.4793,-6.4357,-6.369,-6.2906,-6.1483,-5.9974,-6.0293,-5.9945,-5.9306,0.0,0.0,0.0,0.0,0.0,0.0,0.0,0.0,0.0,0.0,0.0,0.0,0.0,0.0,0.0,0.0,0.0,0.0,0.0,0.0,0.0,0.0,0.0,0.0,0.0,0.0,0.0,0.0,0.0,0.0,0.0,0.0,0.0,0.0,0.0,0.0,0.0,0.0,0.0,0.0,0.0,0.0,-4.1856,-3.9496,-3.799,-3.6985,-3.573,-3.5451,-3.5564,-3.4921,0.0,0.0,0.0,0.0,0.0,0.0,0.0,0.0,0.0,0.0,0.0,0.0,0.0,0.0,0.0,0.0,0.0,0.0,0.0,0.0,0.0,0.0,0.0,0.0,-4.6388,-4.8391,-4.9175,-5.1033,-5.3559,-5.7013,-5.8319,-5.9597,-6.1251,-6.2558,-6.3312,-6.3312,-6.5431,-6.6738,-6.6738,-6.7957,-6.8567,-6.8276,-6.8886,-6.9089,-6.8828,-6.845,-6.8276,-6.8276,-6.787,-6.7551,-6.7289,-6.6999,-6.6535,-6.5925,-6.5635,-6.5315,-6.4996,-6.4996,-6.4764,-6.4386,0.0,0.0,0.0,0.0,-6.0932,-6.009,0.0,0.0,0.0,0.0,0.0,0.0,0.0,0.0,0.0,0.0,0.0,0.0,0.0,0.0,0.0,0.0,0.0,0.0,0.0,0.0,0.0,0.0,0.0,0.0,0.0,0.0,0.0,0.0,0.0,0.0,0.0,0.0,0.0,0.0,0.0,0.0,0.0,0.0,0.0,0.0,0.0,0.0,-4.5422,-4.2208,-4.0827,-4.0325,-3.814,-3.7373,-3.7322,-3.6791,0.0,0.0,0.0,0.0,0.0,0.0,0.0,0.0,0.0,0.0,0.0,0.0,0.0,0.0,0.0,0.0,0.0,0.0,0.0,0.0,0.0,0.0,0.0,0.0,-5.0162,-5.3704,-5.5678,-5.562,-5.6665,-6.0119,-6.1106,-6.1977,-6.3196,-6.4444,-6.517,-6.5112,-6.6883,-6.7957,-6.787,-6.9031,0.0,0.0,0.0,-6.9466,-6.8828,-6.8886,-6.8886,-6.8828,-6.8828,-6.8538,-6.7957,-6.7289,-6.6651,-6.6012,-6.5373,-6.5054,-6.4996,-6.4996,-6.4996,-6.4909,-6.4212,-6.3545,-6.2906,-6.2238,-6.1658,-6.1193,0.0,0.0,0.0,0.0,0.0,0.0,0.0,0.0,0.0,0.0,0.0,0.0,0.0,0.0,0.0,0.0,0.0,0.0,0.0,0.0,0.0,0.0,0.0,0.0,0.0,0.0,0.0,0.0,0.0,0.0,0.0,0.0,0.0,0.0,0.0,0.0,0.0,0.0,0.0,0.0,0.0,0.0,-4.7179,-4.4744,-4.2735,-4.0899,-3.917,-3.906,-3.9633,-3.8881,-3.992,-4.1365,-4.0619,0.0,0.0,0.0,0.0,0.0,0.0,0.0,0.0,0.0,0.0,0.0,0.0,0.0,0.0,0.0,0.0,0.0,0.0,0.0,0.0,-5.0046,-5.3413,-5.652,-5.8929,-6.0061,-6.1106,-6.2383,-6.3109,-6.3777,-6.4561,-6.578,-6.6302,-6.578,-6.7551,-6.8421,-6.7899,-6.8596,-6.8944,-6.8828,-6.9437,-6.9466,-6.8828,-6.935,-6.935,-6.8828,-6.8828,0.0,-6.8625,-6.7986,-6.7318,-6.6651,-6.6012,-6.546,-6.4996,-6.4996,-6.4996,-6.488,-6.3719,-6.2877,-6.2209,-6.16,-6.1309,-6.1193,0.0,0.0,0.0,0.0,0.0,0.0,0.0,0.0,0.0,0.0,0.0,0.0,0.0,0.0,0.0,0.0,0.0,0.0,0.0,0.0,0.0,0.0,0.0,0.0,0.0,0.0,0.0,0.0,0.0,0.0,0.0,0.0,0.0,0.0,0.0,0.0,0.0,0.0,0.0,0.0,0.0,0.0,-4.9364,-4.7129,-4.4895,-4.276,-4.1103,-4.0951,-4.1368,-4.0391,-4.1463,-4.3068,-4.2273,-4.1599,-4.0902,0.0,0.0,0.0,0.0,0.0,0.0,0.0,0.0,0.0,0.0,0.0,0.0,0.0,0.0,-4.4066,-4.6011,0.0,-5.112,-5.3994,-5.6636,-5.9074,-6.1338,-6.247,-6.3196,-6.3516,-6.3835,-6.427,-6.4909,-6.5838,-6.6418,-6.6418,-6.7609,-6.8218,-6.7899,-6.8799,-6.9002,-6.8363,-6.9263,-6.9466,-6.8828,-6.9147,-6.9147,-6.8828,-6.8828,-6.8828,-6.8799,-6.8189,-6.7522,-6.6854,-6.6215,-6.5577,-6.4996,-6.4996,-6.4996,-6.488,-6.3951,-6.337,-6.3022,-6.2732,-6.2616,-6.2616,0.0,0.0,0.0,0.0,0.0,0.0,0.0,0.0,0.0,0.0,0.0,0.0,0.0,0.0,0.0,0.0,0.0,0.0,0.0,0.0,0.0,0.0,0.0,0.0,0.0,0.0,0.0,0.0,0.0,0.0,0.0,0.0,0.0,0.0,0.0,0.0,0.0,0.0,0.0,0.0,0.0,0.0,-5.087,-4.8736,-4.6677,-4.4694,-4.2891,-4.2372,-4.243,-4.1268,-4.2262,-4.3921,-4.3485,-4.2934,-4.2295,-4.1512,-4.0728,0.0,0.0,0.0,0.0,0.0,0.0,0.0,0.0,0.0,-4.1947,-4.3892,-4.5837,-4.7898,-5.022,-5.2717,-5.5184,-5.7507,-5.9597,-6.1483,-6.3051,-6.3835,-6.4212,-6.4212,-6.4212,-6.4415,-6.4938,-6.5577,-6.6128,-6.6651,-6.7318,-6.7754,-6.787,-6.8857,-6.9002,-6.8102,-6.9176,-6.9466,-6.8828,-6.8944,-6.8944,-6.8828,-6.8828,-6.877,-6.8625,-6.7986,-6.7318,-6.6651,-6.6012,-6.546,-6.4967,-6.4851,-6.4793,-6.4735,-6.3951,-6.3748,-6.3864,-6.3946,-6.3888,-6.3864,0.0,0.0,0.0,0.0,0.0,0.0,0.0,0.0,0.0,0.0,0.0,0.0,0.0,0.0,0.0,0.0,0.0,0.0,0.0,0.0,0.0,0.0,0.0,0.0,0.0,0.0,0.0,0.0,0.0,0.0,0.0,0.0,0.0,0.0,0.0,0.0,0.0,0.0,0.0,0.0,0.0,0.0,-5.0318,-4.856,-4.7154,-4.5773,-4.3168,-4.232,-4.2382,-4.1314,-4.2306,-4.4066,-4.4531,-4.4269,-4.3544,-4.2324,0.0,-3.9828,-3.8551,-3.826,-3.858,-3.9625,-3.9944,-4.0757,0.0,0.0,-4.6575,-4.8566,-5.0481,-5.2252,-5.3704,-5.6055,-5.8232,-5.9655,-6.1977,-6.3627,-6.3893,-6.4473,-6.488,-6.488,-6.488,-6.4909,-6.4967,-6.5577,-6.5954,-6.6041,-6.6622,-6.726,-6.7841,-6.8015,-6.8276,-6.8712,-6.9408,-6.9466,-6.8828,-6.9379,-6.9379,-6.8828,-6.8828,-6.8538,-6.7957,-6.7289,-6.6651,-6.6012,-6.5373,-6.5054,-6.4938,-6.4386,-6.4091,-6.4009,-6.279,-6.2674,-6.3283,-6.3835,-6.369,-6.3283,0.0,0.0,0.0,0.0,0.0,0.0,0.0,0.0,0.0,0.0,0.0,0.0,0.0,0.0,0.0,0.0,0.0,0.0,0.0,0.0,0.0,0.0,0.0,0.0,0.0,0.0,0.0,0.0,0.0,0.0,0.0,0.0,0.0,0.0,0.0,0.0,0.0,0.0,0.0,0.0,0.0,0.0,-4.8786,-4.7129,-4.5221,-4.3187,-4.1379,-4.0843,0.0,0.0,-4.0923,-4.3456,-4.3689,-4.3602,-4.3224,-4.2353,-4.1163,0.0,-3.9015,-3.9334,-4.0118,-4.1018,-4.2382,-4.4095,-4.6563,-4.813,-4.9727,-5.2049,-5.3733,-5.53,-5.6984,-5.8464,-5.9945,-6.16,-6.279,-6.3748,-6.4473,-6.4183,-6.3893,-6.3893,-6.3545,-6.3748,-6.488,-6.5228,-6.5519,-6.5896,-6.6186,-6.6622,-6.726,-6.7667,-6.8015,-6.8276,-6.8886,-6.9089,-6.8828,-6.9089,-6.9089,-6.8828,-6.845,-6.8131,-6.787,-6.7202,-6.6535,-6.5802,-6.488,-6.4444,-6.4386,-6.3748,-6.3486,-6.3457,-6.3283,-6.3167,-6.3138,-6.3399,-6.3312,-6.3196,0.0,0.0,0.0,0.0,0.0,0.0,0.0,0.0,0.0,0.0,0.0,0.0,0.0,0.0,0.0,0.0,0.0,0.0,0.0,0.0,0.0,0.0,0.0,0.0,0.0,0.0,0.0,0.0,0.0,0.0,0.0,0.0,0.0,0.0,0.0,0.0,0.0,0.0,0.0,0.0,0.0,0.0,-4.6778,-4.4844,-4.2484,-4.0099,-3.9295,-3.8859,0.0,0.0,-3.8922,-4.1468,-4.2051,-4.2179,-4.2121,-4.1686,-4.0612,-3.9567,-3.9479,-4.0379,-4.1657,-4.2847,-4.5053,-4.7491,-4.9582,-5.1323,-5.3123,-5.5387,-5.6839,-5.8116,-5.9335,-6.0206,-6.1135,-6.2354,-6.3022,-6.3545,-6.4096,-6.3399,-6.2674,-6.2325,-6.1716,-6.1948,-6.3516,-6.4299,-6.4996,-6.5635,-6.5838,-6.6302,-6.7115,-6.7434,-6.7783,-6.8131,-6.8421,-6.8654,-6.8828,-6.8828,-6.8741,-6.8567,-6.8102,-6.7696,-6.7318,-6.6651,-6.6012,-6.528,-6.4381,-6.3888,-6.3719,-6.308,-6.2935,-6.3109,-6.3225,-6.3196,-6.308,-6.2877,-6.2935,-6.3167,0.0,0.0,0.0,0.0,0.0,0.0,0.0,0.0,0.0,0.0,0.0,0.0,0.0,0.0,0.0,0.0,0.0,0.0,0.0,0.0,0.0,0.0,0.0,0.0,0.0,0.0,0.0,0.0,0.0,0.0,0.0,0.0,0.0,0.0,0.0,0.0,0.0,0.0,0.0,0.0,0.0,0.0,-4.4418,-4.1706,-3.927,-3.7312,-3.7287,0.0,0.0,0.0,-3.6417,-3.76,-3.9603,-4.0176,0.0,-4.0176,-3.9247,-3.8522,-3.9741,-4.1047,-4.2673,-4.514,-4.7695,-5.0278,-5.2804,-5.53,-5.7507,-5.8871,-6.0177,-6.0874,-6.0264,-6.1193,-6.1861,-6.1338,-6.2819,-6.3574,-6.2354,-6.2151,-6.1658,-6.0438,-5.9742,-5.9626,-6.0264,-6.2616,-6.4328,-6.4967,-6.5577,-6.6506,-6.7783,-6.726,-6.7492,-6.877,-6.8218,-6.8218,-6.8828,-6.8828,-6.8509,-6.7899,-6.7899,-6.7231,-6.5954,-6.5344,-6.4706,-6.4033,-6.4004,-6.369,-6.308,-6.2412,-6.2499,-6.2964,-6.1745,-6.2035,-6.3022,-6.2354,-6.2529,-6.308,0.0,0.0,0.0,0.0,0.0,0.0,0.0,0.0,0.0,0.0,0.0,0.0,0.0,0.0,0.0,0.0,0.0,0.0,0.0,0.0,0.0,0.0,0.0,0.0,0.0,0.0,0.0,0.0,0.0,0.0,0.0,0.0,0.0,0.0,0.0,0.0,0.0,0.0,0.0,0.0,0.0,0.0,-4.1605,-3.8818,-3.6609,-3.4851,0.0,0.0,0.0,0.0,0.0,0.0,-3.7374,0.0,0.0,-3.8231,-3.8551,-3.9334,-4.1453,-4.3892,-4.6592,-4.963,-5.2252,-5.472,-5.6868,-5.8319,-5.9364,-5.98,-5.89,-5.7826,-5.7158,-5.7042,-5.739,-5.8435,-6.0235,-6.1629,-6.2035,-6.1367,-6.038,-5.9103,-5.8755,-5.8726,-5.8929,-6.0874,-6.2587,-6.3661,-6.4328,-6.5228,-6.6506,-6.636,-6.6854,-6.816,-6.7551,-6.7522,-6.8189,-6.7754,-6.7434,-6.7202,-6.6796,-6.5925,-6.4613,-6.4444,-6.4009,-6.3399,-6.3399,-6.3283,-6.308,-6.2848,-6.2616,-6.2441,-6.2441,-6.2441,-6.2441,-6.2674,-6.2616,-6.2441,0.0,0.0,0.0,0.0,0.0,0.0,0.0,0.0,0.0,0.0,0.0,0.0,0.0,0.0,0.0,0.0,0.0,0.0,0.0,0.0,0.0,0.0,0.0,0.0,0.0,0.0,0.0,0.0,0.0,0.0,0.0,0.0,0.0,0.0,0.0,0.0,0.0,0.0,0.0,0.0,0.0,0.0,-3.8191,-3.578,-3.4098,0.0,0.0,0.0,0.0,0.0,0.0,0.0,-3.5513,-3.6083,-3.6751,-3.7418,-3.8696,-4.0583,-4.3834,-4.6882,-4.993,-5.3123,-5.5707,-5.7826,-5.9306,-5.9742,-5.9684,-5.8987,-5.7187,-5.5329,-5.3965,-5.3588,-5.3878,-5.5068,-5.6897,-5.8523,-5.9568,-5.9219,-5.8552,-5.771,-5.7623,-5.771,-5.7913,-5.9306,-6.099,-6.2935,-6.3893,-6.4822,-6.5802,-6.5925,-6.6418,-6.7492,-6.6883,-6.6854,-6.7522,-6.7086,-6.6767,-6.6535,-6.5896,-6.5054,-6.3975,-6.3975,-6.3545,-6.2732,-6.2732,-6.2616,-6.2412,-6.2412,-6.2296,-6.2122,-6.2325,-6.2296,-6.2122,-6.2325,-6.2006,-6.1454,0.0,0.0,0.0,0.0,0.0,0.0,0.0,0.0,0.0,0.0,0.0,0.0,0.0,0.0,0.0,0.0,0.0,0.0,0.0,0.0,0.0,0.0,0.0,0.0,0.0,0.0,0.0,0.0,0.0,0.0,0.0,0.0,0.0,0.0,0.0,0.0,0.0,0.0,0.0,0.0,0.0,0.0,-3.4449,-3.2767,0.0,0.0,0.0,0.0,0.0,0.0,0.0,0.0,0.0,-3.498,-3.5915,-3.7825,-3.9799,-4.2324,-4.6824,-4.9901,-5.263,-5.5823,-5.8,-5.948,-6.0032,-5.9597,-5.8552,-5.6665,-5.5097,-5.3326,0.0,-5.0888,-5.1352,-5.1527,-5.3268,-5.4807,-5.5474,-5.6142,-5.6549,-5.652,-5.6549,-5.681,-5.7448,-5.8116,-5.98,-6.2906,-6.4183,-6.5141,-6.5838,-6.5867,-6.6186,-6.6825,-6.6215,-6.6186,-6.6825,-6.6796,-6.6476,-6.5838,-6.5228,-6.459,-6.3888,-6.3917,-6.3283,-6.2064,-6.2122,-6.1803,-6.1251,-6.128,-6.16,-6.2035,-6.1454,-6.1542,-6.1919,-6.1367,-6.0729,-6.0235,0.0,0.0,0.0,0.0,0.0,0.0,0.0,0.0,0.0,0.0,0.0,0.0,0.0,0.0,0.0,0.0,0.0,0.0,0.0,0.0,0.0,0.0,0.0,0.0,0.0,0.0,0.0,0.0,0.0,0.0,0.0,0.0,0.0,0.0,0.0,0.0,0.0,0.0,0.0,0.0,0.0,0.0,-3.3319,0.0,0.0,0.0,0.0,0.0,0.0,0.0,0.0,0.0,0.0,-3.6577,-3.7941,-4.0379,-4.2789,-4.5634,-5.0182,-5.3239,-5.5852,-5.8552,-5.9597,-5.9887,-5.9597,-5.7913,-5.5997,-5.4546,-5.0975,-4.7898,-4.723,-4.6824,-4.755,-5.0452,-5.3326,-5.5736,-5.7332,-5.8145,-5.8377,-5.7884,-5.8261,-5.8987,-6.009,-6.0758,-6.1861,-6.3661,-6.3196,-6.3545,-6.5141,-6.5228,-6.5519,-6.6157,-6.5548,-6.5548,-6.6157,-6.5693,-6.5141,-6.4439,-6.4357,-6.369,-6.2616,-6.3109,-6.2645,-6.1483,-6.2412,-6.247,-6.189,-6.2412,-6.2412,-6.2064,-6.1919,-6.1367,-6.0671,-6.0496,-6.0061,-5.9626,0.0,0.0,0.0,0.0,0.0,0.0,0.0,0.0,0.0,0.0,0.0,0.0,0.0,0.0,0.0,0.0,0.0,0.0,0.0,0.0,0.0,0.0,0.0,0.0,0.0,0.0,0.0,0.0,0.0,0.0,0.0,0.0,0.0,0.0,0.0,0.0,0.0,0.0,0.0,0.0,0.0,0.0,0.0,0.0,0.0,0.0,0.0,0.0,0.0,0.0,0.0,-3.6845,-3.8028,-3.9479,-4.1308,-4.4182,0.0,-4.932,-5.35,-5.6142,-5.8145,-6.0148,-6.0003,-5.9045,-5.7855,-5.5387,-5.2659,-5.022,-4.6998,-4.4443,-4.3892,-4.3718,-4.4734,0.0,0.0,0.0,-5.6258,-5.7187,-5.7971,0.0,-5.948,-6.0206,-6.1454,-6.189,-6.2645,-6.3888,-6.337,-6.3545,-6.4909,-6.4996,-6.5141,-6.5489,-6.517,-6.5141,-6.5519,-6.517,-6.4677,-6.3975,-6.3975,-6.3341,-6.2122,-6.279,-6.2558,-6.1629,-6.2354,-6.2441,-6.2093,-6.2209,-6.2035,-6.1658,-6.1367,-6.0816,-6.0177,-5.9916,-5.9597,-5.9393,0.0,0.0,0.0,0.0,0.0,0.0,0.0,0.0,0.0,0.0,0.0,0.0,0.0,0.0,0.0,0.0,0.0,0.0,0.0,0.0,0.0,0.0,0.0,0.0,0.0,0.0,0.0,0.0,0.0,0.0,0.0,0.0,0.0,0.0,0.0,0.0,0.0,0.0,0.0,0.0,0.0,0.0,0.0,0.0,0.0,0.0,0.0,0.0,0.0,0.0,-3.7941,-3.8928,-4.096,-4.3108,-4.5459,-4.8478,-5.0693,-5.3036,-5.6607,-5.8464,-5.9684,-6.0787,-5.9539,-5.7536,-5.5503,-5.2455,-4.9001,-4.5372,-4.3485,-4.2208,-4.1279,-4.157,-4.2876,-4.5692,0.0,-5.0249,-5.4197,-5.5213,-5.6781,-6.0061,-6.038,-6.0903,-6.2325,-6.247,-6.2935,-6.4067,-6.4091,-6.4415,-6.4967,-6.4996,-6.4996,-6.4996,-6.4996,-6.4996,-6.4996,-6.4996,-6.4619,-6.3922,-6.3922,-6.3225,-6.2006,-6.2761,-6.2674,-6.1977,-6.2238,-6.2209,-6.1948,-6.1483,-6.128,-6.1135,-6.0555,-6.0235,-6.0032,-5.9568,-5.9306,-5.9277,0.0,0.0,0.0,0.0,0.0,0.0,0.0,0.0,0.0,0.0,-1.5089,0.0,0.0,0.0,0.0,0.0,0.0,0.0,0.0,0.0,0.0,0.0,0.0,0.0,0.0,0.0,0.0,0.0,0.0,0.0,0.0,0.0,0.0,0.0,0.0,0.0,0.0,0.0,0.0,0.0,0.0,0.0,0.0,0.0,0.0,0.0,0.0,0.0,0.0,0.0,-3.9189,-4.1018,-4.3456,-4.6679,-4.993,-5.2049,-5.4052,-5.6084,-5.8348,-5.948,-6.009,-6.0322,-5.8552,-5.6084,-5.3617,-4.9756,0.0,0.0,-4.1482,-4.0118,-4.0931,-4.1192,-4.2615,-4.6795,-4.8624,-5.1091,-5.5474,-5.6171,-5.7623,0.0,-6.1338,-6.1948,-6.427,-6.4473,-6.459,-6.4793,-6.4822,-6.488,-6.4967,-6.4996,-6.4996,-6.4996,-6.4996,-6.4996,-6.4996,-6.4996,-6.4415,-6.3254,-6.3254,-6.2587,-6.1396,-6.2558,-6.2441,-6.1425,-6.3022,-6.2819,-6.1396,-6.1774,-6.1658,-6.1193,-6.1077,-6.038,-5.951,-5.9887,-5.9364,-5.8639,0.0,0.0,0.0,0.0,0.0,0.0,0.0,0.0,0.0,-1.4995,-1.5008,-1.5098,0.0,0.0,0.0,0.0,0.0,0.0,0.0,0.0,0.0,0.0,0.0,0.0,0.0,0.0,-2.25,-2.3101,0.0,0.0,0.0,-2.382,0.0,0.0,0.0,0.0,0.0,0.0,0.0,0.0,0.0,0.0,0.0,0.0,0.0,0.0,0.0,0.0,0.0,0.0,-3.9247,-4.1715,-4.5285,-4.8827,-5.2107,-5.4371,-5.6142,-5.7739,-5.9335,-6.0235,-6.0555,-5.9887,-5.7303,-5.4052,-5.0801,0.0,0.0,0.0,-3.9799,-3.9479,-4.0408,-4.1134,0.0,-4.5779,-4.7637,-5.0162,-5.4313,-5.5213,-5.6955,-6.1135,-6.1367,-6.2064,-6.427,-6.4793,-6.4996,-6.4996,-6.4996,-6.4996,-6.4996,-6.4996,-6.4996,-6.4996,-6.4996,-6.4996,-6.4996,-6.4996,-6.4357,-6.308,-6.308,-6.2587,-6.1687,-6.2645,-6.2935,-6.2703,-6.3283,-6.3022,-6.2151,-6.1774,-6.1454,-6.1164,-6.0816,-6.0322,-5.9771,-5.9742,-5.9539,-5.9364,0.0,0.0,0.0,0.0,0.0,0.0,0.0,-1.4576,-1.4723,-1.5062,-1.5102,-1.512,-1.529,-1.5002,-1.5216,0.0,0.0,0.0,0.0,0.0,0.0,0.0,0.0,0.0,0.0,0.0,0.0,-2.2964,-2.2711,0.0,0.0,0.0,0.0,0.0,-2.6299,-2.6835,0.0,0.0,0.0,0.0,0.0,0.0,0.0,0.0,0.0,0.0,0.0,0.0,0.0,0.0,-3.8495,-4.1163,-4.5111,-4.9117,-5.2775,-5.4778,-5.6781,-5.8552,-5.9684,-6.0496,-6.0671,-5.9393,-5.6084,-5.2136,-4.842,-4.4618,0.0,0.0,-3.8725,-3.9392,-3.9973,0.0,0.0,0.0,-4.5982,-4.842,-5.2543,-5.3675,-5.5823,0.0,-6.1222,0.0,-6.3801,-6.4619,-6.4996,-6.4996,-6.4851,-6.4793,-6.4793,-6.4793,-6.4793,-6.4793,-6.4793,-6.4851,-6.4996,-6.4851,-6.4212,-6.308,-6.308,-6.2674,-6.1919,-6.2732,-6.3225,-6.3428,-6.3196,-6.2935,-6.2616,-6.1745,-6.1309,-6.1135,-6.0613,-6.0322,-6.0148,-5.9829,-5.9916,-6.0206,0.0,0.0,0.0,0.0,0.0,0.0,0.0,-1.475,-1.503,-1.5324,-1.5351,-1.5349,-1.5304,-1.5196,-1.5376,0.0,0.0,0.0,0.0,0.0,0.0,0.0,0.0,0.0,0.0,0.0,0.0,-2.2578,-2.2867,0.0,0.0,0.0,0.0,0.0,0.0,-2.5673,-2.7226,0.0,0.0,0.0,0.0,0.0,0.0,0.0,0.0,0.0,0.0,0.0,0.0,0.0,0.0,-3.8841,-4.1018,-4.6301,-5.1759,-5.1991,0.0,0.0,-5.919,-5.9829,-5.9974,-5.8726,-5.5068,-5.0946,-4.7666,0.0,-4.0612,-3.8609,-3.8725,-3.9392,-3.9973,0.0,0.0,0.0,0.0,-4.6098,0.0,-5.2339,-5.4633,-5.9684,0.0,0.0,-6.383,-6.4619,-6.4996,-6.4996,-6.4444,-6.4125,-6.4125,-6.4125,-6.4125,-6.4125,-6.4125,-6.4386,-6.4967,-6.4415,-6.3777,-6.308,-6.308,-6.2441,-6.1309,-6.2529,-6.2499,-6.1513,-6.2616,-6.2441,-6.1396,-6.1832,-6.1687,-6.1193,-6.1135,-6.0729,-6.0264,-6.0816,-6.0671,-6.0293,0.0,0.0,0.0,0.0,0.0,0.0,0.0,-1.4616,-1.487,-1.5337,-1.5543,-1.5572,-1.5318,-1.5994,-1.6637,0.0,0.0,0.0,0.0,0.0,0.0,0.0,0.0,0.0,0.0,0.0,-2.1836,-2.2519,-2.2676,0.0,0.0,0.0,0.0,0.0,0.0,-2.7307,-2.7978,-2.7978,0.0,0.0,0.0,0.0,0.0,0.0,0.0,0.0,0.0,0.0,0.0,0.0,0.0,0.0,-3.6808,-4.0321,0.0,0.0,-5.1672,-5.4662,-5.6461,-5.829,-5.9248,-5.7594,-5.4081,-5.022,-4.6998,0.0,-4.006,-3.8522,-3.8725,-3.9392,-3.9973,0.0,0.0,0.0,0.0,0.0,0.0,0.0,-5.173,-5.7274,-5.8668,-6.0322,-6.3196,-6.4038,-6.4415,-6.4415,-6.4183,-6.369,-6.2906,-6.3254,-6.3457,-6.3457,-6.3457,-6.3603,-6.3835,-6.3603,-6.3138,-6.2499,-6.2906,-6.2616,-6.1774,-6.2674,-6.2819,-6.2354,-6.2441,-6.2209,-6.1716,-6.16,-6.1425,-6.1193,-6.1193,-6.1048,-6.0816,-6.1106,-6.1019,-6.0845,0.0,0.0,0.0,0.0,0.0,0.0,-1.4482,-1.4522,-1.4696,-1.5204,-1.5499,-1.5527,-1.5226,-1.6359,-1.7307,-1.7668,0.0,0.0,0.0,0.0,0.0,0.0,0.0,0.0,0.0,0.0,-2.1704,-2.2725,-2.2822,-2.3885,0.0,0.0,-2.6629,-2.8139,0.0,0.0,0.0,0.0,0.0,0.0,0.0,0.0,0.0,0.0,0.0,0.0,0.0,0.0,0.0,0.0,0.0,0.0,0.0,0.0,0.0,0.0,-4.8014,-5.1265,-5.3646,-5.6171,-5.7768,-5.6229,-5.2949,-4.932,0.0,0.0,-3.9741,-3.8463,-3.8725,-3.9392,-3.9973,0.0,0.0,0.0,0.0,0.0,-4.6185,-4.7259,-4.9484,-5.4025,0.0,-5.7484,-6.1145,-6.3183,-6.3832,-6.2837,-6.2985,-6.2475,-6.0983,-6.112,-6.1565,-6.2203,-6.2604,-6.2778,-6.2778,-6.2981,-6.2964,-6.2674,-6.3138,-6.272,-6.1541,-6.2203,-6.2289,-6.1915,-6.1426,-6.1437,-6.1803,-6.1367,-6.1193,-6.1193,-6.1193,-6.1193,-6.1193,-6.1193,-6.1193,-6.1193,0.0,0.0,0.0,0.0,0.0,0.0,0.0,-1.4522,-1.4629,-1.4981,-1.5187,-1.5212,-1.4925,-1.602,-1.7054,-1.7651,0.0,0.0,0.0,0.0,0.0,0.0,0.0,0.0,0.0,0.0,-2.1829,-2.3183,-2.3598,-2.4492,-2.5777,-2.5777,-2.6299,-2.7226,0.0,0.0,0.0,0.0,0.0,0.0,0.0,0.0,0.0,0.0,0.0,0.0,0.0,0.0,0.0,0.0,0.0,0.0,0.0,0.0,0.0,0.0,-4.424,-4.9175,-5.112,-5.35,-5.53,-5.4691,-5.1614,-4.8072,0.0,0.0,-3.9741,-3.8463,-3.8725,-3.9392,-3.9973,-4.0641,0.0,0.0,0.0,0.0,-4.5547,-4.6998,-4.8403,0.0,-5.1804,-5.4205,-5.7432,-6.2145,-6.3557,-6.0115,-6.057,-6.0153,-5.8157,-5.7428,-5.8045,-6.0083,-6.1389,-6.2083,-6.2033,-6.2744,-6.3399,-6.3946,-6.3975,-6.2624,-6.0111,-6.073,-6.0336,-5.9121,-5.9121,-5.9891,-6.1222,-6.1193,-6.1193,-6.1193,-6.1193,-6.1193,-6.1193,-6.1193,-6.1193,-6.1193,0.0,0.0,0.0,0.0,0.0,0.0,0.0,-1.4229,-1.4421,-1.4848,-1.5094,-1.5489,-1.6106,-1.7223,-1.8202,-1.8754,0.0,0.0,0.0,0.0,0.0,0.0,0.0,0.0,0.0,0.0,-2.1292,-2.2328,-2.2448,-2.3618,-2.5777,-2.5777,-2.6629,-2.8099,-2.8099,-2.8219,0.0,0.0,0.0,0.0,0.0,0.0,-2.9131,0.0,0.0,0.0,0.0,0.0,0.0,0.0,0.0,0.0,0.0,0.0,0.0,0.0,0.0,0.0,-4.5866,-4.8275,-5.0046,-4.9407,-4.7375,-4.5053,-4.3369,0.0,-3.9247,-3.8376,-3.8725,-3.9392,-3.9973,-4.0641,0.0,0.0,0.0,0.0,0.0,0.0,0.0,-5.2012,-5.5934,-5.8529,-5.8961,-6.0767,-6.1225,-5.9248,-5.9308,-5.8827,-5.7363,-5.7488,-5.7901,-5.8612,-5.8585,-5.8815,-5.9188,-5.9036,-5.9006,-5.92,-5.9681,-5.9266,-5.7981,-5.8649,-5.8484,-5.7679,-5.7679,-5.8467,-5.9768,-5.9768,-6.0348,-6.1193,-6.1193,-6.1193,-6.1193,-6.1193,-6.1193,-6.1193,0.0,0.0,0.0,0.0,0.0,0.0,0.0,-1.4082,-1.4233,-1.4679,-1.5149,-1.5771,-1.6587,-1.7945,-1.8963,-1.9289,0.0,0.0,0.0,0.0,0.0,0.0,0.0,0.0,0.0,-2.0605,-2.1332,-2.2859,-2.2859,-2.4213,-2.6835,-2.6835,-2.7406,-2.8522,-2.8522,-2.8522,0.0,0.0,0.0,0.0,0.0,0.0,-2.9131,0.0,0.0,0.0,0.0,0.0,0.0,0.0,0.0,0.0,0.0,0.0,0.0,0.0,-3.7041,0.0,0.0,-4.4763,-4.6592,-4.6185,-4.485,0.0,0.0,0.0,-3.9073,-3.8667,-3.8899,-3.945,-4.0321,-4.0815,0.0,0.0,0.0,0.0,0.0,0.0,0.0,-5.1994,-5.5599,-5.7537,-5.6847,-5.8738,-5.9237,-5.7335,-5.7757,-5.7317,-5.5551,-5.5986,-5.6302,-5.6302,-5.6992,-5.7362,-5.7491,-5.7428,-5.7499,-5.7716,-5.8135,-5.7737,-5.6608,-5.7022,-5.6888,-5.6287,-5.6287,-5.7322,0.0,-5.8529,-5.9121,-6.0348,-5.983,-5.9645,-5.9707,-6.0226,-6.0409,-6.047,0.0,0.0,0.0,0.0,0.0,0.0,0.0,0.0,0.0,0.0,-1.5379,-1.6165,-1.655,-1.8215,-1.9292,0.0,0.0,0.0,0.0,0.0,0.0,0.0,0.0,0.0,0.0,-2.0644,-2.19,-2.4399,-2.4478,-2.5859,-2.8419,-2.8419,-2.8419,-2.8522,-2.8522,-2.8522,-2.8522,-2.8522,-2.8522,-2.8562,-2.8934,-2.9091,0.0,0.0,0.0,0.0,0.0,0.0,0.0,0.0,0.0,0.0,0.0,0.0,0.0,0.0,0.0,0.0,0.0,0.0,0.0,0.0,0.0,0.0,0.0,0.0,0.0,-3.9189,-3.9276,-3.9683,-4.0873,-4.1134,0.0,0.0,0.0,0.0,0.0,-4.5438,-4.7675,-5.0523,-5.2032,-5.2673,-5.2186,-5.613,-5.758,-5.4845,-5.5846,-5.5538,-5.3048,-5.3457,-5.3733,-5.3708,-5.6235,-5.7304,-5.6572,-5.7317,-5.7953,-5.8587,-5.8494,-5.7464,-5.5684,-5.5684,-5.5356,-5.4887,-5.4887,-5.6352,-5.8718,-5.7423,-5.7742,-5.8996,-5.7679,-5.7231,-5.7487,-5.878,-5.9245,-5.9431,0.0,0.0,0.0,0.0,0.0,0.0,0.0,0.0,0.0,0.0,-1.6,-1.6919,-1.8456,-1.9015,-1.9587,0.0,0.0,0.0,0.0,0.0,0.0,0.0,0.0,0.0,0.0,-2.1203,-2.2172,-2.3505,-2.4122,-2.5462,-2.751,-2.751,-2.7834,-2.8522,-2.8522,-2.8522,-2.8522,-2.8522,-2.8522,-2.8562,-2.8934,-2.9013,0.0,0.0,0.0,0.0,-2.974,-3.0381,0.0,0.0,0.0,0.0,0.0,0.0,0.0,0.0,-3.5218,-3.6577,-3.7854,0.0,-3.977,-3.977,-3.9538,-3.9247,0.0,0.0,0.0,0.0,0.0,0.0,-4.1047,0.0,0.0,0.0,0.0,-4.1395,-4.1653,-4.5934,-4.9818,-5.176,-5.3803,-5.4433,-5.2866,-5.4505,-5.5382,-5.4632,-5.489,-5.448,-5.298,-5.3833,-5.416,-5.3708,-5.4377,-5.4567,-5.4442,-5.4227,-5.4159,-5.4355,-5.4287,-5.4074,-5.363,-5.363,-5.3486,-5.3384,-5.3384,-5.435,-5.5959,-5.5591,-5.6936,-5.9058,-5.8718,-5.9245,-6.0287,-6.0621,-6.0681,-6.0742,0.0,0.0,0.0,0.0,0.0,0.0,0.0,0.0,0.0,0.0,0.0,0.0,0.0,0.0,0.0,0.0,0.0,0.0,0.0,0.0,0.0,0.0,0.0,0.0,-2.0605,-2.1395,-2.2443,-2.3804,-2.4596,-2.5938,-2.7817,-2.7817,-2.8059,-2.8522,-2.8522,-2.8522,-2.8522,-2.8522,-2.8522,-2.8522,-2.8855,0.0,0.0,0.0,0.0,0.0,-2.956,-3.019,0.0,-3.1182,-3.2334,-3.3556,0.0,0.0,0.0,0.0,-3.5071,-3.5751,-3.6493,-3.7411,-3.8289,-3.858,-3.8434,-3.8234,0.0,0.0,0.0,0.0,0.0,0.0,0.0,0.0,0.0,0.0,-4.0603,-4.1197,-4.2306,-4.5341,-4.8656,-5.2062,-5.2751,-5.3155,-5.3627,-5.3532,-5.3632,-5.4135,-5.3959,-5.3557,-5.2955,-5.3708,-5.3909,-5.3356,-5.3356,-5.3457,-5.3708,-5.3181,-5.2929,-5.2929,-5.2929,-5.2929,-5.2929,-5.2929,-5.2929,-5.2929,-5.2929,-5.37,-5.4953,-5.4283,-5.5326,-5.7129,-5.6547,-5.7129,-5.8431,-5.9058,-5.9707,-6.0348,0.0,0.0,0.0,0.0,0.0,0.0,0.0,0.0,0.0,0.0,0.0,0.0,0.0,0.0,0.0,0.0,0.0,0.0,0.0,0.0,0.0,0.0,0.0,-2.0819,-2.0898,-2.1783,-2.3105,-2.4824,-2.5607,-2.6855,-2.8522,-2.8522,-2.8522,-2.8522,-2.8522,-2.8522,-2.8522,-2.8522,-2.8522,-2.8498,-2.8736,0.0,0.0,0.0,0.0,0.0,0.0,0.0,0.0,-3.1344,-3.2557,-3.377,-3.3477,0.0,0.0,0.0,0.0,0.0,-3.5878,-3.7073,-3.8236,-3.8697,-3.8371,-3.8063,0.0,0.0,0.0,0.0,0.0,0.0,0.0,-4.1142,0.0,-4.0024,-4.0026,-4.1271,-4.4332,-4.4999,-4.6913,-5.1606,-5.0971,-5.1147,-5.3808,-5.2955,-5.2628,-5.3632,-5.3306,-5.3005,-5.2929,-5.3406,-5.3457,-5.2955,-5.2929,-5.313,-5.3582,-5.3155,-5.2929,-5.2929,-5.2929,-5.2929,-5.2929,-5.2929,-5.2929,-5.2929,-5.2929,-5.3589,-5.4619,-5.3384,-5.37,-5.4887,-5.37,-5.4106,-5.5459,-5.6585,-5.7687,-5.8856,0.0,0.0,0.0,0.0,0.0,0.0,0.0,0.0,0.0,0.0,0.0,0.0,0.0,0.0,0.0,0.0,0.0,0.0,0.0,0.0,0.0,0.0,-2.1603,-2.1847,-2.2278,-2.3699,-2.5028,-2.6171,-2.698,-2.778,-2.8522,-2.8522,-2.8522,-2.8522,-2.8522,-2.8522,-2.8522,-2.8522,-2.8522,-2.8498,-2.8736,0.0,0.0,0.0,0.0,0.0,0.0,0.0,0.0,-3.0604,-3.1319,-3.2028,-3.1607,0.0,0.0,0.0,0.0,0.0,-3.6385,-3.7181,-3.7725,-3.7056,-3.6838,-3.6866,0.0,0.0,0.0,0.0,0.0,0.0,0.0,-3.9929,-3.9997,-3.8958,-4.0077,-4.254,-4.6702,-4.7814,-4.88,-5.0518,-5.1733,-5.2251,-5.1825,-5.2402,-5.3055,-5.3658,-5.3632,-5.3381,-5.2955,-5.3406,-5.3457,-5.2955,-5.2929,-5.2955,-5.3055,-5.298,-5.2929,-5.2929,-5.2929,-5.2929,-5.2929,-5.2929,-5.2929,-5.2929,-5.2929,-5.2998,-5.3179,-5.2998,-5.37,-5.502,-5.4753,-5.5499,-5.6715,-5.6909,-5.684,-5.6875,0.0,0.0,0.0,0.0,0.0,0.0,0.0,0.0,0.0,0.0,0.0,0.0,0.0,0.0,0.0,0.0,0.0,0.0,0.0,0.0,0.0,-2.2205,-2.3026,-2.34,-2.3217,-2.4303,-2.5409,-2.6507,-2.7316,-2.7993,-2.8522,-2.8522,-2.8522,-2.8522,-2.8522,-2.8522,-2.8522,-2.8522,-2.8522,-2.8498,0.0,0.0,0.0,0.0,0.0,0.0,0.0,0.0,0.0,0.0,-3.1694,-3.2592,-3.2148,0.0,0.0,0.0,0.0,0.0,-3.5219,-3.5588,-3.5732,-3.5799,-3.6389,-3.703,-3.7466,0.0,0.0,0.0,0.0,0.0,0.0,0.0,-4.0777,-4.1611,-4.2506,-4.4041,-4.6677,-4.728,-4.8083,-4.9766,-5.067,-5.1398,-5.2101,-5.2352,-5.2703,-5.3256,-5.3005,-5.2854,-5.2929,-5.3155,-5.3181,-5.2929,-5.2929,-5.2929,-5.2929,-5.2929,-5.2929,-5.2929,-5.2628,-5.2628,-5.2929,-5.2628,-5.2653,-5.2904,-5.2603,-5.2302,-5.2051,-5.2051,-5.243,-5.3007,-5.3007,-5.4207,-5.5972,-5.6428,-5.6675,-5.6953,0.0,0.0,0.0,0.0,0.0,0.0,0.0,0.0,0.0,0.0,0.0,0.0,0.0,0.0,0.0,0.0,0.0,0.0,0.0,0.0,-2.2074,-2.2682,-2.4107,-2.4755,-2.4371,-2.5158,-2.6039,-2.6969,-2.7584,-2.8114,-2.8522,-2.8522,-2.8522,-2.8522,-2.8522,-2.8522,-2.8522,-2.8522,-2.8522,-2.8522,0.0,0.0,0.0,0.0,0.0,0.0,0.0,0.0,0.0,0.0,0.0,0.0,0.0,0.0,0.0,-3.3621,-3.3322,-3.3224,-3.4168,-3.4386,-3.4521,-3.5027,0.0,-3.7008,-3.7514,-3.8162,0.0,0.0,0.0,0.0,0.0,-3.9738,-4.1617,-4.4077,-4.4852,-4.5748,-4.7255,-4.7581,-4.8335,-5.0167,-5.0368,-5.1046,-5.2754,-5.2553,-5.2409,-5.2767,-5.2391,-5.2341,-5.2767,-5.2792,-5.2792,-5.2929,-5.2804,-5.2729,-5.2729,-5.2603,-5.2678,-5.2929,-5.2377,-5.2327,-5.2703,-5.2176,-5.2151,-5.2528,-5.2101,-5.1599,-5.1071,-5.1071,-5.1071,-5.1071,-5.1071,-5.2317,-5.4218,-5.5024,-5.5956,-5.6903,0.0,0.0,0.0,0.0,0.0,0.0,0.0,0.0,0.0,0.0,0.0,0.0,0.0,0.0,0.0,0.0,0.0,0.0,0.0,0.0,-2.2155,-2.2927,-2.4205,-2.5363,-2.629,-2.7081,-2.7756,-2.8371,-2.841,-2.8474,-2.8522,-2.8522,-2.8522,-2.8522,-2.8522,-2.8522,-2.8522,-2.8522,-2.8522,-2.8522,-2.8522,0.0,0.0,0.0,0.0,0.0,0.0,0.0,0.0,0.0,0.0,0.0,0.0,0.0,-3.2634,-3.3225,-3.3706,-3.4015,-3.4109,-3.4948,-3.5734,-3.5311,-3.5437,0.0,-3.7003,-3.7303,0.0,-3.7887,0.0,0.0,0.0,-3.9398,-4.1414,-4.4155,-4.5874,-4.7883,-5.0544,-5.1373,-5.1925,-5.2603,-5.2678,-5.2754,-5.2904,-5.2904,-5.2742,-5.2446,-5.2396,-5.2396,-5.2446,-5.2446,-5.2585,-5.2861,-5.2427,-5.2176,-5.2176,-5.1649,-5.1925,-5.2929,-5.2377,-5.2126,-5.2151,-5.1599,-5.1373,-5.1398,-5.1348,-5.1021,-5.0469,-5.0469,-5.0469,-5.0469,-5.0469,-5.0911,-5.1655,-5.2362,-5.384,-5.5566,0.0,0.0,0.0,0.0,0.0,0.0,0.0,0.0,0.0,0.0,0.0,0.0,0.0,0.0,0.0,0.0,0.0,0.0,0.0,0.0,-2.2826,-2.341,-2.5171,-2.6482,-2.7215,-2.755,-2.793,-2.8522,-2.8522,-2.8522,-2.8522,-2.8522,-2.8522,-2.8522,-2.8522,-2.8522,-2.8522,-2.8522,-2.8522,-2.8546,-2.8859,-2.9003,0.0,0.0,0.0,0.0,0.0,0.0,0.0,0.0,-3.1227,0.0,0.0,0.0,-3.2241,-3.2676,-3.3071,-3.3427,-3.3896,-3.4778,-3.5491,-3.5462,-3.5906,0.0,0.0,-3.8342,-3.8916,-3.8642,-3.9622,-4.0375,-3.9697,-4.0927,-4.2961,-4.5723,-4.7581,-4.9515,-5.195,-5.2477,-5.2703,-5.2904,-5.2929,-5.2929,-5.2929,-5.2929,-5.2792,-5.2446,-5.2123,-5.1787,-5.1555,-5.1234,-5.0981,-5.0702,-5.1028,-5.1063,-5.0714,-5.0713,-5.0946,-5.1373,-5.0795,-5.072,-5.1021,-5.0494,-5.0419,-5.072,-5.0393,-4.9715,-4.8862,-4.8862,-4.8862,-4.8962,-5.0017,-5.0343,-5.0308,-5.093,-5.1921,-5.305,0.0,0.0,0.0,0.0,0.0,0.0,0.0,0.0,0.0,0.0,0.0,0.0,0.0,0.0,0.0,0.0,0.0,0.0,-2.1357,-2.2622,-2.3498,-2.3809,-2.5794,-2.6952,-2.7055,-2.7645,-2.8138,-2.8522,-2.8522,-2.8522,-2.8522,-2.8522,-2.8522,-2.8522,-2.8691,-2.8763,-2.8763,-2.8931,-2.9003,-2.9051,-2.9388,-2.9556,0.0,0.0,0.0,0.0,0.0,0.0,0.0,0.0,0.0,0.0,0.0,0.0,0.0,0.0,-3.2762,-3.3116,-3.3906,-3.4715,-3.5357,0.0,0.0,0.0,-3.8241,-3.931,-4.0084,-3.9946,-4.1157,-4.1986,-4.1178,-4.2108,-4.389,-4.6617,-4.851,-5.0303,-5.2466,-5.2723,-5.2723,-5.2723,-5.2654,-5.2585,-5.2723,-5.2654,-5.2297,-5.158,-5.1234,-5.0728,-5.0087,-4.9719,-4.9418,-4.9183,-4.9554,-4.9611,-4.924,-4.9327,-4.9282,-4.9171,-4.8796,-4.906,-4.9891,-4.9314,-4.9264,-4.9615,-4.9213,-4.8535,-4.7657,-4.7657,-4.7657,-4.7782,-4.9113,-4.9515,-4.9428,-5.0192,-5.0907,-5.1632,0.0,0.0,0.0,0.0,0.0,0.0,0.0,0.0,0.0,0.0,0.0,0.0,0.0,0.0,0.0,0.0,0.0,0.0,-2.2957,-2.3694,-2.4131,-2.4131,-2.589,-2.6534,-2.5747,-2.7553,-2.8522,-2.8522,-2.8522,-2.8522,-2.8522,-2.8522,-2.8522,-2.8546,-2.9051,-2.9292,-2.934,-2.9869,-3.0086,-3.0086,-3.0086,-3.0086,-3.0158,0.0,0.0,0.0,0.0,0.0,0.0,0.0,0.0,0.0,0.0,0.0,0.0,0.0,-3.2987,-3.3367,-3.4188,-3.495,-3.5644,0.0,0.0,0.0,-3.916,-3.9865,-4.0508,-4.1957,-4.2213,-4.2213,-4.2213,-4.2665,-4.3915,-4.6642,-4.8535,-5.0237,-5.2123,-5.2377,-5.2377,-5.2352,-5.203,-5.1935,-5.2352,-5.2005,-5.1215,-4.9679,-4.9631,-4.9236,-4.8123,-4.805,-4.8248,-4.8592,-4.8075,-4.7804,-4.7804,-4.7262,-4.6846,-4.6576,-4.6576,-4.7396,-4.8736,-4.8159,-4.7908,-4.7908,-4.7908,-4.7606,-4.7068,-4.7068,-4.7129,-4.7118,-4.7707,-4.8259,-4.8951,-5.0214,-5.1047,-5.1678,0.0,0.0,0.0,0.0,0.0,0.0,0.0,0.0,0.0,0.0,0.0,0.0,0.0,0.0,0.0,0.0,0.0,0.0,-2.2696,-2.3951,-2.4834,-2.5225,-2.6685,-2.7373,-2.7118,-2.8044,-2.8522,-2.8522,-2.8522,-2.8522,-2.8522,-2.8522,-2.8715,-2.9076,-2.922,-2.9508,-2.9869,-3.0013,-3.0086,-3.011,-3.0494,-3.0639,-3.0663,0.0,0.0,0.0,0.0,0.0,0.0,0.0,0.0,0.0,0.0,0.0,0.0,0.0,-3.3448,-3.3905,-3.451,-3.526,0.0,-3.6284,0.0,0.0,0.0,-4.0347,0.0,0.0,-4.3263,-4.2861,-4.3237,-4.3765,-4.4803,-4.696,-4.8571,-5.0172,-5.1778,-5.2238,-5.2308,-5.203,-5.189,-5.157,-5.0919,-5.0709,-5.0063,-4.8676,-4.8238,-4.7911,-4.7696,-4.7292,-4.714,-4.7271,-4.7296,-4.7182,-4.6792,-4.6483,-4.613,-4.576,-4.5699,-4.6377,-4.7606,-4.7431,-4.7355,-4.7355,-4.7355,-4.7054,-4.6552,-4.6552,-4.6778,-4.7093,-4.7305,-4.7682,-4.8272,-4.9052,-4.9469,-4.9836,0.0,0.0,0.0,0.0,0.0,0.0,0.0,0.0,0.0,0.0,0.0,0.0,0.0,0.0,0.0,0.0,0.0,0.0,0.0,-2.4271,-2.5325,-2.5647,-2.6954,-2.7825,-2.8017,-2.8354,-2.8522,-2.8522,-2.8522,-2.8522,-2.8522,-2.8715,-2.9003,-2.9316,-2.9749,-3.011,-3.0422,-3.0657,-3.0754,-3.0759,-3.1312,-3.1384,-3.1259,0.0,0.0,0.0,0.0,0.0,0.0,0.0,0.0,0.0,0.0,0.0,0.0,0.0,-3.386,-3.4293,-3.509,-3.5721,0.0,-3.6748,-3.7853,-3.9087,-4.0232,0.0,0.0,0.0,-4.4477,-4.3937,-4.4037,-4.4335,-4.5147,-4.6947,-4.8004,-4.9206,-5.0994,-5.0936,-5.0832,-5.1195,-5.0567,-5.0006,-4.9701,-4.9322,-4.853,-4.7005,-4.6593,-4.619,-4.5645,-4.5309,-4.514,-4.514,-4.5329,-4.531,-4.4971,-4.4816,-4.4683,-4.4546,-4.4486,-4.496,-4.5995,-4.6359,-4.6681,-4.6803,-4.6803,-4.6627,-4.6301,-4.6301,-4.6502,-4.6803,-4.6803,-4.7129,-4.7631,-4.7983,-4.8259,-4.8586,0.0,0.0,0.0,0.0,0.0,0.0,0.0,0.0,0.0,0.0,0.0,0.0,0.0,0.0,0.0,0.0,0.0,0.0,0.0,0.0,-2.58,-2.5846,-2.7088,-2.7978,-2.8498,-2.8522,-2.8522,-2.8522,-2.8522,-2.8522,-2.8522,-2.9051,-2.9316,-2.9412,-3.0422,-3.0946,-3.1019,-3.15,-3.1717,-3.1765,-3.2274,-3.2202,-3.1837,-3.2298,0.0,0.0,0.0,0.0,0.0,0.0,0.0,0.0,0.0,0.0,0.0,-3.3862,-3.422,-3.4677,-3.5697,0.0,0.0,-3.7402,-3.8286,0.0,-4.0998,-4.2962,-4.4642,-4.5448,-4.544,-4.5183,-4.4741,-4.4642,-4.5073,-4.6767,-4.7002,-4.7798,-4.9971,-4.9072,-4.8682,-5.0097,-4.8734,-4.7919,-4.8616,-4.7913,-4.6752,-4.5053,-4.4933,-4.4347,-4.2964,-4.2891,-4.2916,-4.2964,-4.2916,-4.2891,-4.2891,-4.2843,-4.2914,-4.3079,-4.3128,-4.3482,-4.4094,-4.5136,-4.5849,-4.615,-4.615,-4.615,-4.615,-4.615,-4.615,-4.615,-4.6225,-4.6552,-4.7004,-4.7043,-4.7431,-4.7832,0.0,0.0,0.0,0.0,0.0,0.0,0.0,0.0,0.0,0.0,0.0,0.0,0.0,0.0,0.0,0.0,0.0,0.0,0.0,0.0,-2.7457,-2.7862,-2.8163,-2.8402,-2.8522,-2.8522,-2.8522,-2.8522,-2.8522,-2.8522,-2.8522,-2.9051,-2.9508,-2.9941,-3.0591,-3.1139,-3.1548,-3.1669,-3.1717,-3.1765,-3.2274,-3.2418,-3.2322,-3.2466,-3.2418,0.0,0.0,0.0,0.0,0.0,0.0,0.0,0.0,-3.3477,-3.3862,-3.3958,-3.4342,-3.4848,0.0,-3.603,0.0,0.0,-3.9009,-4.0776,-4.2225,-4.3149,-4.3796,-4.4067,-4.4741,-4.5368,-4.5662,-4.5368,-4.5699,-4.7499,-4.7366,-4.7547,-4.9145,-4.901,-4.8907,-4.9294,-4.9008,-4.8358,-4.7292,-4.701,-4.603,-4.401,-4.3866,-4.3721,-4.3361,-4.3337,-4.3553,-4.3925,-4.3577,-4.3337,-4.3337,-4.2952,-4.2602,-4.2252,-4.2662,-4.2899,-4.2919,-4.4051,-4.4702,-4.4995,-4.4995,-4.4995,-4.4995,-4.4995,-4.4995,-4.502,-4.5497,-4.5723,-4.5949,-4.6803,-4.7143,-4.7478,0.0,0.0,0.0,0.0,0.0,0.0,0.0,0.0,0.0,0.0,0.0,0.0,0.0,0.0,0.0,0.0,0.0,0.0,0.0,0.0,0.0,-2.8459,-2.8522,-2.8619,-2.8883,-2.8643,-2.8643,-2.8883,-2.8883,-2.8883,-2.8907,-2.9436,-2.9965,-3.0494,-3.1067,-3.1452,-3.1717,-3.1717,-3.1717,-3.1765,-3.2274,-3.2346,-3.213,-3.2394,-3.2322,-3.213,-3.2394,0.0,0.0,0.0,0.0,0.0,0.0,0.0,-3.4366,-3.4366,-3.4558,-3.4943,0.0,0.0,0.0,0.0,0.0,-4.0951,-4.219,-4.2998,-4.3494,-4.3589,-4.467,-4.5691,-4.5959,-4.6008,-4.6284,-4.7206,-4.6892,-4.7013,-4.8503,-4.7793,-4.7382,-4.8195,-4.7425,-4.6583,-4.6006,-4.5477,-4.4611,-4.3265,-4.2928,-4.2663,-4.2399,-4.2399,-4.2543,-4.2832,-4.2303,-4.2014,-4.2014,-4.1749,-4.1485,-4.122,-4.1749,-4.2021,-4.2126,-4.3573,-4.4353,-4.4618,-4.4618,-4.4618,-4.4618,-4.4618,-4.4618,-4.4644,-4.4945,-4.5246,-4.5547,-4.6125,-4.6527,-4.6839,0.0,0.0,0.0,0.0,0.0,0.0,0.0,0.0,0.0,0.0,0.0,0.0,0.0,0.0,0.0,0.0,0.0,0.0,0.0,0.0,0.0,-2.8603,-2.8643,-2.8907,-2.9436,-2.9003,-2.9003,-2.9436,-2.9436,-2.9484,-2.9581,-3.0013,-3.0446,-3.0946,-3.1476,-3.1717,-3.1717,-3.1717,-3.1717,-3.1765,-3.2274,-3.2226,-3.191,-3.2418,-3.2298,-3.1934,-3.2539,-3.2659,-3.2683,-3.3742,0.0,0.0,0.0,0.0,-3.4775,-3.4775,-3.4775,-3.5015,0.0,0.0,0.0,0.0,-3.9874,0.0,-4.1485,-4.2495,-4.3265,-4.3361,-4.4587,-4.5669,-4.5766,-4.6078,-4.6367,-4.6535,-4.6054,-4.6175,-4.7666,-4.6223,-4.5525,-4.692,-4.5477,-4.4429,-4.4765,-4.4034,-4.3265,-4.2723,-4.2193,-4.1653,-4.1196,-4.1004,-4.0956,-4.1052,-4.0547,-4.0258,-4.0258,-4.0258,-4.0258,-4.0258,-4.0691,-4.1055,-4.1363,-4.284,-4.3763,-4.4227,-4.4285,-4.4342,-4.4342,-4.4342,-4.4342,-4.4342,-4.4443,-4.4769,-4.5221,-4.5296,-4.5698,-4.6175,0.0,0.0,0.0,0.0,0.0,0.0,0.0,0.0,0.0,0.0,0.0,0.0,0.0,0.0,0.0,0.0,0.0,0.0,-2.7914,0.0,0.0,-2.9172,-2.9196,-2.9436,-2.9965,-2.9917,-2.9917,-2.9989,-2.9989,-3.0206,-3.0706,-3.0778,-3.085,-3.0946,-3.1476,-3.1717,-3.1717,-3.1717,-3.1717,-3.1765,-3.2274,-3.2466,-3.2442,-3.2971,-3.2851,-3.2515,-3.343,-3.326,-3.2731,-3.4222,-3.4366,0.0,0.0,0.0,-3.4775,-3.4775,-3.4775,-3.5015,0.0,0.0,0.0,0.0,0.0,-3.9874,0.0,0.0,-4.2303,-4.2819,-4.377,-4.4645,-4.5101,-4.4861,-4.4909,-4.5886,-4.5213,-4.4885,-4.6078,-4.5149,-4.4645,-4.5317,-4.4741,-4.4117,-4.377,-4.3601,-4.312,-4.2158,-4.1581,-4.1268,-4.1172,-4.0306,-4.0018,-4.0499,-3.9994,-3.9705,-3.9705,-3.9705,-3.9705,-3.9705,-3.9777,-3.9968,-4.022,-4.0421,-4.1397,-4.2793,-4.3075,-4.3187,-4.3187,-4.3187,-4.3187,-4.3237,-4.374,-4.3966,-4.4091,-4.4568,-4.5095,-4.5598,0.0,0.0,0.0,0.0,0.0,0.0,0.0,0.0,0.0,0.0,0.0,0.0,0.0,0.0,0.0,-2.7834,-2.747,-2.7463,-2.8175,-2.8456,-2.8714,-2.8907,-2.8907,-2.9141,-2.9699,-2.9441,-2.9697,-3.0518,-3.0518,0.0,0.0,-3.1649,-3.1793,-3.1817,-3.2346,-3.2418,-3.213,-3.213,-3.1961,-3.1765,-3.2274,-3.2491,-3.2563,-3.3092,-3.314,-3.3044,-3.3718,-3.3694,-3.3501,-3.4462,-3.4631,-3.4462,-3.4703,0.0,0.0,0.0,-3.4775,-3.5015,-3.6122,0.0,0.0,0.0,0.0,-3.9369,-4.021,-4.098,-4.1677,-4.2265,-4.2928,-4.3697,-4.4477,-4.4933,-4.5125,-4.5005,-4.4837,-4.4789,-4.4957,-4.4309,-4.3962,-4.4202,-4.377,-4.3361,-4.312,-4.2832,-4.2327,-4.1581,-4.1028,-4.0619,-4.0306,-3.985,-3.9705,-3.9946,-3.9441,-3.9176,-3.9176,-3.9176,-3.932,-3.9609,-3.9609,-3.9664,-3.9751,-3.9892,-4.0771,-4.2066,-4.2232,-4.2574,-4.2986,-4.2986,-4.2986,-4.3011,-4.3237,-4.3539,-4.384,-4.4066,-4.4518,-4.4995,0.0,0.0,0.0,0.0,0.0,0.0,0.0,0.0,0.0,0.0,0.0,0.0,0.0,0.0,0.0,0.0,-2.7883,-2.7575,-2.8123,-2.8727,-2.9067,-2.9164,-2.9164,-2.9462,-2.9973,-2.9602,-2.995,-3.1115,0.0,0.0,-3.1934,-3.2442,-3.2779,-3.2899,-3.3164,-3.3068,-3.2707,-3.2707,-3.2466,-3.2151,-3.2539,-3.2707,-3.2755,-3.3284,-3.3404,-3.338,-3.4006,-3.4102,-3.4078,-3.4607,-3.4775,-3.4775,-3.4775,-3.4775,0.0,0.0,0.0,-3.5208,0.0,0.0,0.0,0.0,0.0,-3.9032,0.0,-4.0403,-4.0932,-4.1461,-4.199,-4.2591,-4.3385,-4.4395,-4.4852,-4.4082,-4.4275,-4.4395,-4.401,-4.3481,-4.312,-4.312,-4.2543,-4.2265,-4.241,-4.1749,-4.1268,-4.1004,-4.0379,-3.9874,-3.9609,-3.9345,-3.9248,-3.9393,-3.8888,-3.8599,-3.8599,-3.8599,-3.8815,-3.92,-3.92,-3.92,-3.92,-3.9395,-4.0068,-4.1101,-4.1538,-4.2127,-4.2874,-4.2986,-4.2986,-4.2986,-4.2986,-4.3237,-4.3589,-4.3589,-4.394,-4.4418,0.0,0.0,0.0,0.0,0.0,0.0,0.0,0.0,0.0,0.0,0.0,0.0,-2.8339,-2.7713,-2.7801,-2.9138,-2.8355,-2.7996,-2.8543,-2.9489,-3.026,-3.0764,-3.0788,0.0,-3.1557,-3.1557,-3.1601,0.0,0.0,0.0,-3.2466,-3.2996,-3.3501,-3.3886,-3.3501,-3.326,-3.326,-3.326,-3.3236,-3.3212,-3.3236,-3.326,-3.3308,-3.3766,-3.3693,-3.3428,-3.4438,-3.4414,-3.4078,-3.4607,-3.4775,-3.4775,-3.4775,-3.4775,-3.4775,0.0,0.0,0.0,0.0,0.0,0.0,0.0,0.0,0.0,0.0,-3.932,-3.985,-4.0379,-4.0908,-4.1293,-4.1341,-4.2206,-4.2964,-4.2916,-4.2916,-4.294,-4.2916,-4.2458,-4.2062,-4.2062,-4.1148,-4.0715,-4.122,-4.0331,-3.9922,-4.0403,-3.9489,-3.9104,-3.9585,-3.8623,-3.831,-3.8839,-3.831,-3.8022,-3.8022,-3.8022,-3.8046,-3.807,-3.807,-3.807,-3.807,-3.8123,-3.8597,-3.9501,-4.1052,-4.2016,-4.2513,-4.2849,-4.2986,-4.2986,-4.2986,-4.2986,-4.3011,-4.3011,-4.3363,-4.384,0.0,0.0,0.0,0.0,0.0,0.0,0.0,0.0,0.0,0.0,0.0,0.0,0.0,-2.7389,-2.7515,-2.8272,-2.8064,-2.7966,-2.8255,-2.8858,-2.897,-2.8556,-2.851,-2.8919,-2.9738,-2.9784,0.0,0.0,0.0,-3.2175,-3.302,-3.3212,-3.3741,-3.4486,-3.4366,-3.4078,-3.3765,-3.3765,-3.3573,-3.3308,-3.3645,-3.3765,-3.3837,-3.4294,-3.4438,-3.4318,-3.4655,-3.4919,-3.4967,-3.4823,-3.5015,-3.5231,-3.4895,-3.4775,-3.4775,-3.4775,-3.4968,-3.5184,0.0,0.0,0.0,0.0,-3.7493,-3.795,-3.8647,-3.896,-3.9248,-3.9777,-4.0306,-4.0571,-4.0234,-4.1581,-4.2482,-4.1413,-4.1822,-4.2073,-4.1341,-4.1076,-4.0956,-4.0956,-4.0331,-3.997,-4.0138,-3.9826,-3.9537,-3.9393,-3.9032,-3.8743,-3.8575,-3.819,-3.807,-3.8286,-3.8094,-3.7974,-3.7974,-3.7974,-3.7974,-3.7974,-3.7974,-3.7974,-3.7974,-3.7974,-3.834,-3.9056,-3.9986,-4.1007,-4.1991,-4.2349,-4.2715,-4.2986,-4.2986,-4.2986,-4.2986,-4.2986,-4.3112,-4.3263,0.0,0.0,0.0,0.0,0.0,0.0,0.0,0.0,0.0,0.0,0.0,0.0,0.0,0.0,-2.7063,-2.7302,-2.8144,-2.8586,-2.8313,-2.8873,-2.905,-2.8727,-2.8727,-2.8866,-2.9189,0.0,0.0,0.0,0.0,0.0,0.0,-3.302,-3.3573,-3.451,-3.451,-3.4414,-3.427,-3.427,-3.4102,-3.3861,-3.4366,-3.451,-3.4583,-3.5111,-3.5352,-3.5352,-3.5352,-3.5593,-3.5833,-3.5473,-3.5593,-3.5785,-3.5256,-3.4919,-3.4775,-3.4775,-3.4775,-3.4847,-3.5256,0.0,0.0,0.0,0.0,-3.7421,-3.8334,-3.8527,-3.8695,-3.9224,-3.9609,-3.9801,-3.9633,-4.0763,-4.1365,-4.0306,-4.0715,-4.0932,-4.0234,-4.0138,-4.0138,-4.0138,-3.9657,-3.9417,-3.9585,-3.9272,-3.8984,-3.8815,-3.8647,-3.8383,-3.7998,-3.7974,-3.7974,-3.7974,-3.7974,-3.7974,-3.7974,-3.7974,-3.7974,-3.7974,-3.7974,-3.7974,-3.7974,-3.7974,-3.819,-3.8527,-3.9033,-4.0173,-4.1607,-4.2048,-4.2539,-4.2986,-4.2986,-4.2986,-4.2986,-4.2986,-4.2986,-4.2986,0.0,0.0,0.0,0.0,0.0,0.0,0.0,0.0,0.0,-2.4616,0.0,0.0,0.0,0.0,0.0,-2.6413,-2.8649,-2.9692,-2.8751,-2.9555,-3.0509,-3.154,-3.154,-3.1095,-3.017,0.0,0.0,0.0,0.0,0.0,0.0,0.0,-3.3092,-3.3982,-3.4006,-3.4294,-3.4775,-3.4775,-3.4799,-3.4847,-3.54,-3.5617,-3.5689,-3.6218,-3.6411,-3.6411,-3.6411,-3.6411,-3.6435,-3.6411,-3.6411,-3.6338,-3.5785,-3.5256,-3.4799,-3.4775,-3.4775,-3.4775,0.0,0.0,0.0,0.0,-3.6771,-3.73,-3.7829,-3.795,-3.8118,-3.8671,-3.8815,-3.896,-3.9465,-3.9585,-3.9585,-3.9561,-3.9585,-3.9609,-3.9585,-3.9585,-3.9585,-3.9585,-3.9128,-3.8984,-3.9513,-3.8599,-3.8214,-3.8743,-3.8286,-3.7974,-3.7974,-3.7974,-3.7974,-3.7974,-3.7974,-3.7974,-3.7974,-3.7974,-3.7974,-3.7974,-3.7974,-3.7974,-3.7974,-3.7974,-3.7974,-3.8027,-3.8315,-3.9482,-4.1305,-4.1888,-4.2434,-4.2961,-4.2961,-4.2961,-4.2986,-4.2986,-4.2986,-4.2986,0.0,0.0,0.0,0.0,0.0,0.0,0.0,0.0,0.0,0.0,0.0,0.0,-2.6368,-2.6212,-2.6288,-2.699,-2.671,-2.7028,-2.8178,-2.7437,-2.7556,-2.8895,-2.8247,-2.8202,-2.8955,0.0,0.0,0.0,0.0,0.0,0.0,0.0,0.0,0.0,-3.439,-3.4655,-3.4775,-3.4775,-3.4991,-3.54,-3.5569,-3.5833,-3.6194,-3.6338,-3.6411,-3.6411,-3.6411,-3.6651,-3.6916,-3.6531,-3.6651,-3.6819,-3.5905,-3.5521,-3.5328,-3.4895,-3.4775,-3.4775,-3.4775,0.0,0.0,0.0,0.0,0.0,-3.7204,-3.7421,-3.7565,-3.8094,-3.8527,-3.8743,-3.8479,-3.8767,-3.8912,-3.8503,-3.9104,-3.9465,-3.908,-3.9032,-3.9032,-3.9032,-3.8551,-3.8262,-3.8407,-3.8166,-3.8046,-3.819,-3.807,-3.7974,-3.7974,-3.7974,-3.7974,-3.7974,-3.7974,-3.7974,-3.7974,-3.7974,-3.7974,-3.7974,-3.7974,-3.7974,-3.7974,-3.7974,-3.7974,-3.8027,-3.8315,-3.896,-3.9903,-4.0418,-4.1259,-4.2108,-4.2329,-4.269,-4.2986,-4.2986,-4.2986,-4.2986,0.0,0.0,0.0,0.0,0.0,0.0,0.0,0.0,0.0,0.0,0.0,0.0,-2.6679,-2.6877,-2.6993,-2.7181,-2.6764,-2.7002,-2.8173,-2.7413,-2.7435,-2.8712,-2.8193,-2.807,-2.8487,0.0,0.0,0.0,0.0,0.0,0.0,0.0,0.0,0.0,0.0,0.0,-3.4775,-3.4775,-3.5087,-3.5641,-3.5857,-3.6386,-3.7084,-3.7324,-3.7541,-3.7733,-3.7733,-3.7805,-3.7829,-3.7517,-3.7324,-3.7084,-3.6459,-3.6122,-3.5833,-3.5304,-3.5111,-3.5063,-3.4847,-3.4943,-3.528,-3.5809,0.0,0.0,-3.7012,-3.7012,-3.7012,-3.7541,-3.7902,-3.8118,-3.7998,-3.8238,-3.8359,-3.8046,-3.8503,-3.8815,-3.8503,-3.8479,-3.8479,-3.8479,-3.819,-3.7974,-3.7974,-3.7974,-3.7974,-3.7974,-3.7974,-3.7974,-3.7974,-3.7974,-3.7974,-3.7974,-3.7974,-3.7878,-3.7661,-3.7878,-3.7878,-3.7661,-3.7878,-3.7974,-3.7974,-3.7974,-3.7974,-3.8027,-3.8157,-3.8432,-3.8776,-3.9202,-4.0108,-4.1205,-4.1425,-4.1828,-4.2301,-4.2301,-4.2507,-4.2818,0.0,0.0,0.0,0.0,0.0,0.0,0.0,0.0,0.0,0.0,-2.6079,-2.7179,-2.7194,-2.7852,-2.7925,-2.7004,-2.7723,-2.8325,-2.8404,-2.8366,-2.8807,-2.9839,-2.979,-2.9367,-2.848,0.0,0.0,0.0,0.0,0.0,0.0,0.0,0.0,0.0,0.0,0.0,-3.4775,-3.4847,-3.5232,-3.5737,-3.6218,-3.7084,-3.8118,-3.8623,-3.9152,-3.9609,-3.9609,-3.9296,-3.8888,-3.8839,-3.8166,-3.7348,-3.7228,-3.6867,-3.6386,-3.5857,-3.5713,-3.5593,-3.5136,-3.5352,-3.5809,-3.629,-3.6411,0.0,-3.6988,-3.6795,-3.6627,-3.7108,-3.7252,-3.7421,-3.7902,-3.7974,-3.7974,-3.7974,-3.7974,-3.7974,-3.7974,-3.7974,-3.7974,-3.7974,-3.7974,-3.7974,-3.7974,-3.7974,-3.7974,-3.7974,-3.7974,-3.7974,-3.7974,-3.7974,-3.7974,-3.7974,-3.7974,-3.7733,-3.7204,-3.7709,-3.7709,-3.7204,-3.7733,-3.7974,-3.7974,-3.7974,-3.7974,-3.7974,-3.7974,-3.7974,-3.8027,-3.8262,-3.9165,-4.0365,-4.0419,-4.0764,-4.1201,-4.1201,-4.1713,-4.2382,-2.373,0.0,0.0,0.0,0.0,0.0,0.0,0.0,0.0,-2.4897,-2.5892,-2.6681,-2.7022,-2.6902,-2.6754,-2.6504,-2.6704,-2.7132,-2.795,-2.7553,-2.7914,-2.9206,-2.8532,-2.8197,-2.8344,0.0,0.0,0.0,0.0,0.0,0.0,0.0,0.0,0.0,0.0,0.0,0.0,-3.528,-3.5761,-3.6266,-3.6362,-3.73,-3.8671,-3.8767,-3.9152,-3.9609,-3.9609,-3.9537,-3.9393,-3.896,-3.8671,-3.8359,-3.7469,-3.7132,-3.694,-3.6411,-3.6242,-3.6218,-3.6122,-3.617,-3.6266,-3.6386,-3.6411,0.0,-3.6531,-3.6819,-3.706,-3.718,-3.7541,-3.7853,-3.7974,-3.7974,-3.7974,-3.7974,-3.7974,-3.7974,-3.7974,-3.7974,-3.7974,-3.7974,-3.7974,-3.7974,-3.7974,-3.7974,-3.7974,-3.7974,-3.7974,-3.7974,-3.7974,-3.7974,-3.7974,-3.7974,-3.7974,-3.7733,-3.7204,-3.7709,-3.7709,-3.7204,-3.7733,-3.7974,-3.7974,-3.7974,-3.7974,-3.7974,-3.7974,-3.7974,-3.7974,-3.8027,-3.8626,-3.9555,-3.977,-4.0198,-4.0665,-4.0665,-4.1035,-4.1502,-2.3828,0.0,0.0,0.0,0.0,0.0,0.0,0.0,0.0,-2.5952,-2.662,-2.7282,-2.7943,-2.7633,-2.7344,-2.7344,-2.7344,-2.753,-2.8095,-2.7831,-2.7944,-2.8665,-2.8232,-2.8066,-2.8281,-2.8794,0.0,0.0,0.0,0.0,0.0,0.0,0.0,0.0,0.0,0.0,0.0,-3.5129,-3.593,-3.6435,-3.6699,-3.7757,-3.9224,-3.9224,-3.9705,-4.0403,-4.0403,-4.0234,-3.9874,-3.908,-3.8815,-3.8671,-3.7853,-3.7589,-3.7493,-3.6964,-3.6795,-3.6747,-3.6483,-3.6603,-3.6795,-3.6795,-3.6603,0.0,0.0,-3.6386,-3.6242,-3.7036,-3.6988,-3.7036,-3.7829,-3.7757,-3.7685,-3.795,-3.7757,-3.7685,-3.795,-3.7757,-3.7589,-3.7589,-3.7348,-3.7204,-3.7204,-3.7204,-3.7204,-3.7204,-3.7204,-3.7204,-3.7204,-3.7204,-3.7204,-3.7204,-3.7204,-3.694,-3.6411,-3.694,-3.706,-3.6819,-3.7324,-3.7733,-3.7974,-3.7974,-3.7974,-3.7974,-3.7974,-3.7974,-3.7974,-3.7974,-3.8248,-3.8674,-3.8781,-3.915,-3.9637,-3.9637,-4.0087,-4.066,-2.4043,0.0,0.0,0.0,0.0,0.0,0.0,0.0,0.0,-2.6953,-2.7324,-2.789,-2.8859,-2.8542,-2.8359,-2.8535,-2.8379,-2.8359,-2.8535,-2.8379,-2.8301,-2.8301,-2.8301,-2.8301,-2.8301,-2.8301,0.0,0.0,0.0,0.0,0.0,0.0,0.0,0.0,0.0,0.0,0.0,-3.5173,-3.6074,-3.6603,-3.7132,-3.819,-3.9465,-3.9561,-4.0186,-4.1028,-4.1028,-4.0691,-4.009,-3.9152,-3.8815,-3.8719,-3.8166,-3.7974,-3.7902,-3.7469,-3.7348,-3.7252,-3.6819,-3.7012,-3.7348,-3.7348,-3.7036,-3.6795,0.0,0.0,0.0,-3.694,-3.6507,-3.6314,-3.7589,-3.7565,-3.7421,-3.7637,-3.7493,-3.7469,-3.7781,-3.7372,-3.7108,-3.7324,-3.6795,-3.6435,-3.6555,-3.6555,-3.6507,-3.6411,-3.6507,-3.6507,-3.6411,-3.6411,-3.6411,-3.6411,-3.6411,-3.6194,-3.5785,-3.629,-3.6555,-3.6555,-3.7084,-3.7565,-3.7974,-3.7974,-3.7974,-3.7974,-3.7974,-3.7974,-3.7974,-3.7974,-3.7974,-3.7974,-3.7974,-3.8262,-3.8671,-3.8671,-3.9147,-3.977,-2.4969,-2.5273,0.0,0.0,0.0,0.0,0.0,0.0,0.0,-2.6914,-2.7051,-2.7415,-2.8284,-2.8368,-2.8594,-2.9355,-2.873,-2.8613,-2.9375,-2.8711,-2.8301,-2.8301,-2.8301,-2.8301,-2.8301,-2.8301,-2.8794,0.0,0.0,0.0,0.0,0.0,0.0,0.0,-3.4726,0.0,0.0,-3.6047,-3.6627,-3.7156,-3.7685,-3.831,-3.896,-3.9417,-3.997,-4.0475,-4.0475,-4.0138,-3.9609,-3.9008,-3.8815,-3.8719,-3.8166,-3.7974,-3.7974,-3.7902,-3.7902,-3.7878,-3.7805,-3.7853,-3.7902,-3.7902,-3.7853,-3.7685,-3.7276,0.0,-3.6964,-3.7156,0.0,-3.706,-3.7252,0.0,0.0,-3.6723,-3.7324,-3.7757,-3.7348,-3.6819,-3.6843,-3.7781,-3.7012,-3.6579,-3.706,-3.7108,-3.6916,-3.6435,-3.6843,-3.6892,-3.6435,-3.6411,-3.6411,-3.6411,-3.6411,-3.6362,-3.6314,-3.6843,-3.7108,-3.7108,-3.7637,-3.7926,-3.7974,-3.7974,-3.7974,-3.7974,-3.7974,-3.7974,-3.7974,-3.7974,-3.7974,-3.7974,-3.7974,-3.8022,-3.807,-3.807,-3.8431,-3.9014,-2.5223,-2.543,0.0,0.0,0.0,0.0,0.0,0.0,0.0,-2.7383,-2.7598,-2.7988,-2.8594,-2.8652,-2.8906,-2.9512,-2.9293,-2.918,-2.9607,-2.9238,-2.9043,-2.9043,-2.9043,-2.8926,-2.8652,-2.8652,-2.9373,0.0,-3.0897,0.0,0.0,0.0,0.0,0.0,-3.465,-3.4934,-3.5188,-3.6036,-3.6723,-3.7252,-3.7757,-3.8118,-3.8383,-3.8936,-3.9489,-3.997,-4.0282,-4.0066,-3.9537,-3.9008,-3.8815,-3.8719,-3.8166,-3.7974,-3.7974,-3.7974,-3.7974,-3.7974,-3.7974,-3.7974,-3.7974,-3.7974,-3.7757,-3.7541,-3.7637,-3.718,-3.6916,-3.7517,0.0,0.0,0.0,0.0,0.0,0.0,-3.7036,-3.7348,-3.6819,-3.6266,-3.6218,-3.6988,-3.6122,-3.5569,-3.5809,-3.6098,-3.605,-3.5521,-3.5978,-3.605,-3.5521,-3.5497,-3.5497,-3.5497,-3.5497,-3.5497,-3.5497,-3.5713,-3.6122,-3.6747,-3.6964,-3.7397,-3.7974,-3.7974,-3.7974,-3.7974,-3.7974,-3.7974,-3.7974,-3.7974,-3.7974,-3.7974,-3.7974,-3.7974,-3.7974,-3.7974,-3.8142,-3.8359,-2.5723,-2.5859,0.0,0.0,0.0,0.0,0.0,-2.8027,-2.8184,-2.7871,-2.8105,-2.8496,-2.9043,-2.9414,-2.9902,-3.0566,-3.0527,-3.0449,-3.0449,-3.0,-2.9744,-2.957,-2.9626,-2.9414,-2.9101,-2.9101,-2.9843,0.0,0.0,0.0,0.0,0.0,0.0,0.0,0.0,-3.5017,-3.5004,-3.5808,-3.645,-3.6949,-3.7329,-3.7708,-3.8046,-3.8599,-3.9056,-3.9441,-3.9826,-3.9609,-3.9104,-3.8719,-3.8599,-3.8527,-3.8118,-3.7974,-3.7974,-3.7974,-3.7974,-3.7974,-3.7974,-3.7974,-3.7974,-3.7974,-3.7685,-3.7517,-3.7902,-3.7276,-3.6867,-3.7781,-3.7252,0.0,0.0,0.0,-3.718,-3.6507,0.0,-3.7228,-3.6699,-3.605,-3.5809,-3.6338,-3.5737,-3.5256,-3.5256,-3.5737,-3.5761,-3.5039,-3.5545,-3.5545,-3.4823,-3.4775,-3.4775,-3.4775,-3.4775,-3.4847,-3.504,-3.504,-3.5497,-3.6411,-3.6555,-3.7012,-3.7781,-3.7926,-3.7974,-3.7974,-3.7974,-3.7974,-3.7974,-3.7974,-3.7974,-3.7974,-3.7974,-3.7974,-3.7974,-3.7974,-3.7974,-3.7998,-2.6953,-2.6973,-2.6973,-2.6992,-2.7012,0.0,-2.765,-2.8027,-2.8281,-2.8281,-2.8281,-2.8613,-2.9453,-3.0684,-3.1934,-3.3184,-3.293,-3.2695,-3.2695,-3.1113,-3.0,-2.9646,-2.9626,-2.957,-2.9551,-2.9607,-2.9923,-3.0648,0.0,0.0,0.0,0.0,0.0,0.0,-3.5783,-3.5486,-3.5352,-3.5405,-3.5726,-3.6208,-3.6231,-3.6935,-3.8046,-3.8599,-3.8815,-3.8839,-3.8864,-3.8503,-3.8022,-3.8022,-3.8022,-3.7998,-3.7998,-3.7974,-3.7974,-3.7974,-3.7974,-3.7974,-3.7974,-3.7974,-3.7974,-3.7974,-3.7974,-3.795,-3.7974,-3.7565,-3.7324,-3.7878,-3.7541,-3.718,-3.7204,-3.7613,-3.7613,-3.6579,-3.7276,0.0,0.0,-3.6266,-3.5809,-3.6338,-3.6362,-3.6362,-3.6362,-3.6819,-3.6723,-3.5665,-3.6074,-3.593,-3.4847,-3.4775,-3.4775,-3.4775,-3.4775,-3.5064,-3.5593,-3.5593,-3.5857,-3.6411,-3.6916,-3.718,-3.7228,-3.7733,-3.7974,-3.7974,-3.7974,-3.7974,-3.7974,-3.7974,-3.7974,-3.7974,-3.7974,-3.7974,-3.7974,-3.7974,-3.7974,-3.8046,-2.8164,-2.8047,-2.7773,-2.75,-2.7441,-2.7676,-2.8398,-2.8613,-2.9219,-3.0664,-3.0859,-3.1504,-3.3242,-3.3809,-3.4375,-3.5078,-3.4746,-3.4258,-3.3672,-3.2559,-3.1601,-3.0898,-3.0586,-3.0293,-3.0,-2.998,-3.0326,-3.0996,-3.0996,0.0,0.0,0.0,0.0,0.0,0.0,-3.6518,-3.708,-3.6725,-3.6891,-3.7388,-3.7388,-3.7362,-3.7473,-3.8418,-3.8599,-3.831,-3.8671,-3.8455,-3.7974,-3.7974,-3.7974,-3.7974,-3.7974,-3.7974,-3.7974,-3.7974,-3.7974,-3.7974,-3.7974,-3.7974,-3.7974,-3.7974,-3.7974,-3.7974,-3.7974,-3.7829,-3.7757,-3.795,-3.7829,-3.7613,-3.7252,-3.7637,-3.7637,-3.6579,-3.73,-3.7541,0.0,-3.5232,-3.4727,-3.5304,-3.504,-3.4919,-3.5328,-3.5521,-3.5328,-3.4583,-3.5015,-3.504,-3.4294,-3.4583,-3.4775,-3.4775,-3.4775,-3.4871,-3.5039,-3.5039,-3.5352,-3.5881,-3.6411,-3.6867,-3.7204,-3.7733,-3.7974,-3.7974,-3.7974,-3.7974,-3.7974,-3.7974,-3.7974,-3.7974,-3.7974,-3.7974,-3.7974,-3.7974,-3.7974,-3.807,-2.9004,-2.8809,-2.8437,-2.8164,-2.8105,-2.8301,-2.8828,-2.957,-3.0586,-3.1992,-3.2695,-3.3711,-3.543,-3.6016,-3.6465,-3.6894,-3.6816,-3.6113,-3.4648,-3.416,-3.3223,-3.1582,-3.1543,-3.123,-3.049,-3.045,-3.0934,-3.1889,-3.1615,-3.2489,0.0,0.0,0.0,0.0,0.0,-3.6948,-3.7364,-3.698,-3.6791,-3.6719,-3.6719,-3.647,-3.616,-3.6957,-3.7411,-3.7672,-3.7807,-3.7618,-3.7441,-3.7868,-3.7974,-3.7974,-3.7974,-3.7974,-3.7974,-3.7974,-3.7974,-3.7974,-3.7974,-3.7974,-3.7974,-3.7974,-3.7974,-3.8046,-3.8238,-3.8118,-3.8046,-3.8238,-3.8118,-3.7829,-3.73,-3.7637,-3.7685,-3.6819,-3.7252,-3.7084,0.0,-3.4583,-3.427,-3.4294,-3.4246,-3.4486,-3.5015,-3.5063,-3.4751,-3.4054,-3.4318,-3.4342,-3.4006,-3.4318,-3.4583,-3.4775,-3.4775,-3.4775,-3.4775,-3.4775,-3.5039,-3.5617,-3.6146,-3.6675,-3.7204,-3.7733,-3.7974,-3.7974,-3.7974,-3.7974,-3.7974,-3.7974,-3.7974,-3.7974,-3.7974,-3.7974,-3.7974,-3.7974,-3.7974,-3.8046,-2.9492,-2.9258,-2.893,-2.891,-2.8871,-2.8926,-2.8984,-3.082,-3.2246,-3.2344,-3.3828,-3.5168,-3.6103,-3.7293,-3.817,-3.8599,-3.8969,-3.8131,-3.5655,-3.5811,-3.47,-3.1737,-3.2361,-3.2238,-3.1065,-3.0956,-3.1644,-3.309,-3.2371,0.0,0.0,0.0,0.0,0.0,-3.7493,0.0,-3.6286,-3.6309,-3.5598,-3.4391,-3.4391,-3.4413,-3.4379,-3.4336,-3.5369,-3.6754,-3.636,-3.6177,-3.6394,-3.7601,-3.7974,-3.7974,-3.7974,-3.7974,-3.7974,-3.7974,-3.7974,-3.7974,-3.7974,-3.7974,-3.7974,-3.7974,-3.7974,-3.8118,-3.8647,-3.8359,-3.8142,-3.8671,-3.8359,-3.7829,-3.7324,-3.7637,-3.7805,-3.7276,-3.7156,-3.6411,-3.4318,-3.4438,-3.4438,-3.3452,-3.4174,-3.4968,-3.5521,-3.5545,-3.5088,-3.403,-3.3934,-3.3934,-3.3958,-3.3982,-3.4246,-3.4751,-3.4775,-3.4775,-3.4775,-3.4775,-3.5088,-3.5593,-3.6146,-3.6675,-3.718,-3.7733,-3.7974,-3.7974,-3.7974,-3.7974,-3.7974,-3.7974,-3.7974,-3.7974,-3.7974,-3.7974,-3.7974,-3.7974,-3.7974,-3.7974,-2.9492,-2.9577,-2.9447,-2.9138,-2.8975,-2.9141,-2.9766,-3.1207,-3.2845,-3.4758,-3.5951,-3.7349,-3.9123,-3.9357,-3.9452,-3.9567,-3.9395,-3.8593,-3.7009,-3.6347,-3.5165,-3.3165,-3.2651,-3.2104,-3.1447,-3.1163,-3.1133,-3.1492,-3.2158,-3.2987,-3.3883,0.0,0.0,0.0,0.0,-3.8078,-3.7572,-3.7976,-3.6686,-3.4391,-3.4391,-3.4103,-3.3639,-3.3245,-3.3621,-3.4475,-3.5733,-3.6177,-3.6394,-3.7601,-3.7974,-3.7974,-3.7974,-3.7974,-3.7974,-3.7974,-3.7974,-3.7974,-3.7974,-3.7974,-3.7974,-3.7974,-3.7974,-3.8022,-3.8166,-3.8094,-3.8022,-3.8166,-3.8094,-3.795,-3.7805,-3.7878,-3.7805,-3.7276,-3.6531,-3.5689,-3.4703,-3.4366,-3.4102,-3.3838,-3.3741,-3.403,-3.4944,-3.4342,-3.3765,-3.3501,-3.3116,-3.3068,-3.3452,-3.379,-3.4246,-3.4751,-3.4775,-3.4775,-3.4775,-3.4775,-3.4847,-3.504,-3.5954,-3.6483,-3.6651,-3.7565,-3.7974,-3.7974,-3.7974,-3.7974,-3.7974,-3.7974,-3.7974,-3.7974,-3.7974,-3.7974,-3.7974,-3.7974,-3.7974,-3.7974,-2.966,-2.9776,-2.9757,-2.968,-3.0065,-3.049,-3.1033,-3.2018,-3.3533,-3.5694,-3.7105,-3.8326,-3.951,-3.9966,-4.0167,-4.0167,-3.9807,-3.8955,-3.7423,-3.7308,-3.6195,-3.3964,-3.3416,-3.2668,-3.1456,-3.1032,-3.0934,-3.1247,-3.2607,-3.3607,-3.4302,0.0,0.0,0.0,0.0,-3.8647,-3.8305,-3.7535,-3.6251,-3.4619,-3.3353,-3.2658,0.0,-3.1984,-3.2102,-3.2496,-3.4108,-3.5002,-3.5663,-3.7441,-3.7974,-3.7974,-3.7974,-3.7974,-3.7974,-3.7974,-3.7974,-3.7974,-3.7974,-3.7974,-3.7974,-3.7974,-3.7974,-3.8046,-3.8286,-3.8166,-3.8046,-3.8286,-3.8142,-3.7829,-3.7372,-3.7661,-3.7733,-3.6964,-3.6338,-3.5617,-3.4583,-3.4366,-3.4246,-3.4006,-3.4198,-3.4438,-3.4751,-3.3693,-3.2851,-3.2611,-3.2539,-3.2635,-3.2923,-3.3645,-3.4126,-3.4414,-3.4944,-3.5015,-3.4775,-3.5015,-3.528,-3.5521,-3.6122,-3.6651,-3.7108,-3.7709,-3.7974,-3.7974,-3.7974,-3.7974,-3.7974,-3.7974,-3.7974,-3.7974,-3.7974,-3.7974,-3.7974,-3.7974,-3.7974,-3.7974,-2.9829,-2.9833,-2.9853,-3.0198,-3.1325,-3.2218,-3.2555,-3.3264,-3.4386,-3.5947,-3.7605,-3.8649,-3.8649,-3.9639,-4.0273,-4.0273,-3.9896,-3.9028,-3.7426,-3.8047,-3.7217,-3.4451,-3.4244,-3.3331,-3.1407,-3.0794,-3.0853,-3.1554,-3.3021,-3.4536,0.0,0.0,0.0,0.0,0.0,0.0,-3.8411,-3.6117,-3.498,-3.4553,-3.1966,-3.0898,-3.0898,-3.0898,-3.0898,-3.1054,-3.2305,-3.3459,-3.4725,-3.6827,-3.7655,-3.7761,-3.7601,-3.7655,-3.7761,-3.7761,-3.7868,-3.7974,-3.7974,-3.7974,-3.7974,-3.7974,-3.7974,-3.8118,-3.8599,-3.8334,-3.8118,-3.8599,-3.8262,-3.7589,-3.6675,-3.7156,-3.7397,-3.6555,-3.629,-3.5713,-3.4294,-3.4486,-3.4607,-3.415,-3.4895,0.0,-3.4727,-3.3501,-3.2466,-3.1958,-3.2202,-3.2418,-3.2491,-3.3428,-3.3934,-3.3982,-3.4943,-3.5328,-3.4895,-3.5328,-3.5809,-3.6411,-3.6411,-3.6916,-3.7878,-3.795,-3.7974,-3.7974,-3.7974,-3.7974,-3.7974,-3.7974,-3.7974,-3.7974,-3.7974,-3.7974,-3.7974,-3.7974,-3.7974,-3.7974,-2.9815,-2.9696,-2.9592,-2.9667,-3.0939,-3.2394,-3.3808,-3.5252,-3.6356,-3.7001,-3.795,-3.872,-3.9171,-3.904,-3.8909,-3.8909,-3.8522,-3.8102,-3.7399,-3.7272,-3.6423,-3.4913,-3.4213,-3.3225,-3.1854,-3.1059,-3.0679,-3.0606,-3.19,-3.3247,0.0,0.0,0.0,0.0,0.0,0.0,-3.7377,-3.5369,-3.3781,-3.2434,-3.1321,-3.0898,-3.0898,-3.0898,-3.0898,-3.1054,-3.2305,-3.3459,-3.4447,-3.4891,-3.5663,-3.634,-3.5333,-3.5717,-3.6503,-3.6503,-3.7227,-3.7974,-3.7974,-3.7974,-3.7974,-3.7974,-3.7974,-3.7998,-3.8094,-3.8046,-3.8022,-3.8118,-3.7709,-3.7276,-3.7084,-3.6483,-3.6122,-3.6362,-3.5665,-3.4967,-3.4679,-3.4727,-3.4751,-3.4655,-3.4847,-3.4703,-3.4174,-3.3886,-3.3549,-3.3044,-3.2319,-3.201,-3.2491,-3.3092,-3.3621,-3.3982,-3.4583,-3.5136,-3.5473,-3.5087,-3.5449,-3.6411,-3.6411,-3.6723,-3.7348,-3.7781,-3.7974,-3.7974,-3.7974,-3.7974,-3.7974,-3.7974,-3.7974,-3.7974,-3.7974,-3.7974,-3.7974,-3.7974,-3.7974,-3.7974,-2.9404,-2.9437,-2.977,-3.0587,-3.2096,-3.3669,-3.5306,-3.6812,-3.7553,-3.7349,-3.7688,-3.8013,-3.8226,-3.8674,-3.886,-3.8579,-3.8255,-3.7851,-3.7448,-3.6861,-3.6164,-3.5375,-3.4367,-3.3224,-3.2004,-3.1172,-3.076,-3.0806,-3.2064,-3.3374,0.0,0.0,0.0,0.0,0.0,-3.7652,-3.7022,-3.4609,-3.3142,-3.2354,-3.1303,-3.0898,-3.0898,-3.0898,-3.0898,-3.1015,-3.1556,-3.2514,-3.3628,-3.4224,-3.4781,-3.5278,-3.5333,-3.574,-3.634,-3.6935,-3.7548,-3.7974,-3.7974,-3.7974,-3.7974,-3.7974,-3.7974,-3.7974,-3.7974,-3.7974,-3.7902,-3.7637,-3.7372,-3.7108,-3.6843,-3.6362,-3.6026,-3.6002,-3.5809,-3.5449,-3.4847,-3.4775,-3.4775,-3.4775,-3.4775,-3.4583,-3.4054,-3.3982,-3.367,-3.2947,-3.2394,-3.2082,-3.2058,-3.3092,-3.3669,-3.3645,-3.4679,-3.5232,-3.5208,-3.5183,-3.5641,-3.6411,-3.6411,-3.6819,-3.7613,-3.7853,-3.7974,-3.7974,-3.7974,-3.7974,-3.7974,-3.7974,-3.7974,-3.7974,-3.7974,-3.7974,-3.7974,-3.7974,-3.7974,-3.7974,-2.9573,-2.9865,-3.0525,-3.2042,-3.3657,-3.5108,-3.6405,-3.7767,-3.8338,-3.7652,-3.7613,-3.759,-3.759,-3.8503,-3.8988,-3.8597,-3.8181,-3.7759,-3.7448,-3.6659,-3.5999,-3.5522,-3.4495,-3.3321,-3.2038,-3.1212,-3.0865,-3.0978,-3.1976,-3.3194,-3.4749,0.0,0.0,0.0,-3.648,-3.6041,-3.5848,-3.3628,-3.2463,-3.2085,-3.1247,-3.0898,-3.0898,-3.0898,-3.0898,-3.0898,-3.0898,-3.1498,-3.2457,-3.3346,-3.3832,-3.4168,-3.4836,-3.5411,-3.6013,-3.6935,-3.7601,-3.7974,-3.7974,-3.7974,-3.7974,-3.7974,-3.7974,-3.7974,-3.7974,-3.7902,-3.7685,-3.7276,-3.7012,-3.6723,-3.6314,-3.6146,-3.6002,-3.5809,-3.5954,-3.5809,-3.5039,-3.4943,-3.4895,-3.4799,-3.4967,-3.4823,-3.4054,-3.4102,-3.3742,-3.2755,-3.2563,-3.2322,-3.191,-3.314,-3.3693,-3.3308,-3.4703,-3.5304,-3.4943,-3.54,-3.593,-3.6579,-3.6579,-3.706,-3.7974,-3.7974,-3.7974,-3.7974,-3.7974,-3.7974,-3.7974,-3.7974,-3.7974,-3.7974,-3.7974,-3.7974,-3.7974,-3.7974,-3.7974,-3.7974,-3.1336,-3.1727,-3.2177,-3.3376,-3.4917,-3.6036,-3.6182,-3.7594,-3.8585,-3.8517,-3.8456,-3.8475,-3.8475,-3.8603,-3.8597,-3.856,-3.7924,-3.7466,-3.7429,-3.6659,-3.587,-3.5119,-3.4605,-3.3615,-3.2038,-3.1212,-3.0593,-3.02,-3.0287,-3.1425,-3.3418,-3.4385,-3.5458,-3.6526,-3.53,-3.384,-3.2197,-3.2099,-3.1313,-3.014,-3.0665,-3.0898,-3.0898,-3.0898,-3.0898,-3.0898,-3.0898,-3.0937,-3.1054,-3.117,-3.196,-3.2685,-3.173,-3.2835,-3.4614,-3.4725,-3.6263,-3.7974,-3.7974,-3.7974,-3.7974,-3.7974,-3.7974,-3.7974,-3.7974,-3.7613,-3.7252,-3.7204,-3.6435,-3.5737,-3.5689,-3.5304,-3.528,-3.6194,-3.5569,-3.5063,-3.5497,-3.5545,-3.5352,-3.4847,-3.5665,-3.5665,-3.4126,-3.4414,-3.4318,-3.3284,-3.2779,-3.2491,-3.2418,-3.302,-3.3332,-3.3284,-3.4342,-3.5063,-3.5545,-3.5593,-3.6122,-3.7132,-3.7132,-3.7421,-3.7974,-3.7974,-3.7974,-3.7974,-3.7974,-3.7974,-3.7974,-3.7974,-3.7974,-3.7974,-3.7974,-3.7974,-3.7974,-3.7974,-3.7974,-3.7974,-3.2537,-3.2894,-3.3541,-3.5009,-3.5779,-3.6531,-3.7521,-3.8218,-3.856,-3.856,-3.856,-3.856,-3.856,-3.842,-3.8163,-3.7924,-3.7393,-3.6971,-3.6714,-3.5944,-3.5357,-3.5045,-3.4403,-3.3523,-3.2386,-3.1579,-3.1072,-3.081,-3.0835,-3.1643,-3.3103,-3.3491,-3.3793,-3.3898,-3.2678,-3.1712,-3.0959,-3.0568,-3.0024,-2.9584,-3.0296,-3.0567,-3.0645,-3.082,-3.0898,-3.0898,-3.0898,-3.0898,-3.0898,-3.0898,-3.1228,-3.1672,-3.1903,-3.3063,-3.4558,-3.5278,-3.6665,-3.7974,-3.7974,-3.7974,-3.7974,-3.7974,-3.7974,-3.7974,-3.7974,-3.7565,-3.6952,-3.5973,-3.4926,-3.4372,-3.4989,-3.5232,-3.5328,-3.5449,-3.5376,-3.5256,-3.5111,-3.5136,-3.5015,-3.4847,-3.4655,-3.4294,-3.3645,-3.3789,-3.3861,-3.3741,-3.2971,-3.2635,-3.2947,-3.3164,-3.3428,-3.3741,-3.439,-3.4871,-3.5136,-3.5449,-3.5978,-3.6723,-3.7036,-3.7469,-3.7974,-3.7974,-3.7974,-3.7974,-3.7974,-3.7974,-3.7974,-3.7974,-3.7974,-3.7974,-3.7974,-3.7974,-3.7974,-3.7974,-3.7974,-3.7974,-3.4037,-3.4422,-3.5174,-3.6659,-3.6916,-3.7319,-3.8475,-3.856,-3.856,-3.856,-3.853,-3.8511,-3.8621,-3.8273,-3.7906,-3.7631,-3.7136,-3.6714,-3.6421,-3.565,-3.5155,-3.5045,-3.4367,-3.3541,-3.2625,-3.1946,-3.1396,-3.0983,-3.1001,-3.1424,-3.2054,-3.2235,-3.2163,-3.1881,-3.0691,-3.0099,-2.9951,-2.9508,-2.9334,-2.9408,-3.0043,-3.0274,-3.0274,-3.0645,-3.0762,-3.0762,-3.0762,-3.0762,-3.0762,-3.0645,-3.0587,-3.082,-3.1845,-3.3176,-3.4558,-3.5388,-3.6557,-3.7495,-3.7495,-3.7495,-3.7495,-3.7495,-3.7761,-3.795,-3.7781,-3.7116,-3.6077,-3.4601,-3.3756,-3.3499,-3.458,-3.5087,-3.5255,-3.5039,-3.5256,-3.5304,-3.5088,-3.5064,-3.5064,-3.5064,-3.4559,-3.4078,-3.3765,-3.3885,-3.3982,-3.3982,-3.3356,-3.3188,-3.3717,-3.3597,-3.3669,-3.3982,-3.451,-3.4895,-3.5015,-3.5593,-3.6122,-3.6651,-3.718,-3.7613,-3.7974,-3.7974,-3.7974,-3.7974,-3.7974,-3.7974,-3.7974,-3.7974,-3.7974,-3.7974,-3.7974,-3.7974,-3.7974,-3.7974,-3.7974,-3.7974,-3.5944,-3.6512,-3.7191,-3.8322,-3.8524,-3.8542,-3.864,-3.856,-3.856,-3.856,-3.8273,-3.8181,-3.8603,-3.8273,-3.8016,-3.8016,-3.7283,-3.6842,-3.6749,-3.6072,-3.543,-3.5045,-3.4623,-3.3835,-3.2625,-3.2203,-3.1414,-3.0204,-3.0204,-3.0121,-2.9846,-3.0178,-3.0621,-3.1063,-2.9852,-2.9124,-2.8816,-2.9124,-2.9368,-2.949,-2.9804,-2.9922,-2.9922,-3.0274,-3.0392,-3.0392,-3.0392,-3.0392,-3.0333,-3.0039,-2.9922,-3.0039,-3.0704,-3.2514,-3.4391,-3.4391,-3.5278,-3.6231,-3.6231,-3.6231,-3.6231,-3.6231,-3.712,-3.7853,-3.7324,-3.5996,-3.4521,-3.343,-3.3201,-3.3499,-3.458,-3.4799,-3.4967,-3.5521,-3.5184,-3.4967,-3.5545,-3.5617,-3.5617,-3.5617,-3.605,-3.5954,-3.4847,-3.528,-3.516,-3.4078,-3.3982,-3.4198,-3.4727,-3.427,-3.3982,-3.3982,-3.451,-3.5039,-3.5593,-3.6122,-3.6651,-3.7204,-3.7709,-3.7974,-3.7974,-3.7974,-3.7974,-3.7974,-3.7974,-3.7974,-3.7974,-3.7974,-3.7974,-3.7974,-3.7974,-3.7974,-3.7974,-3.7974,-3.7974,-3.7974,-3.6971,-3.7356,-3.7851,-3.853,-3.856,-3.8548,-3.8255,-3.8456,-3.853,-3.8255,-3.8089,-3.8071,-3.8199,-3.7613,-3.7209,-3.7209,-3.6476,-3.5999,-3.5999,-3.5247,-3.4733,-3.4605,-3.3963,-3.3285,-3.2606,-3.1928,-3.1121,-3.0204,-3.0204,-2.9878,-2.9273,-2.9389,-2.9201,-2.8861,-2.8723,-2.8621,-2.8581,-2.8917,-2.9102,-2.9213,-2.9509,-2.9627,-2.9686,-2.9981,-3.0039,-3.0039,-3.0039,-3.0039,-3.0039,-2.9922,-2.9732,-2.9601,-3.0062,-3.1285,-3.2566,-3.2566,-3.3586,-3.4703,-3.4703,-3.5443,-3.6013,-3.5168,-3.5904,-3.6364,-3.4922,-3.3146,-3.1961,-3.2763,-3.2476,-3.2448,-3.3499,-3.4311,-3.4627,-3.403,-3.443,-3.4847,-3.5015,-3.5039,-3.5039,-3.5039,-3.4847,-3.4607,-3.427,-3.439,-3.451,-3.4534,-3.4534,-3.4607,-3.4775,-3.427,-3.415,-3.451,-3.5088,-3.5449,-3.5617,-3.6507,-3.7036,-3.7204,-3.7733,-3.7974,-3.7974,-3.7974,-3.7974,-3.7974,-3.7974,-3.7974,-3.7974,-3.7974,-3.7974,-3.7974,-3.7974,-3.7974,-3.7974,-3.7974,-3.7974,-3.7974,-3.7429,-3.7631,-3.7869,-3.8144,-3.8181,-3.8089,-3.7833,-3.8016,-3.8089,-3.7833,-3.7668,-3.7576,-3.7576,-3.6861,-3.6494,-3.673,-3.6091,-3.5614,-3.5614,-3.4862,-3.4403,-3.4403,-3.378,-3.3175,-3.2606,-3.2093,-3.1377,-3.0424,-2.9965,-2.9489,-2.8975,-2.8828,-2.8498,-2.8022,-2.8443,-2.8535,-2.8407,-2.8663,-2.8847,-2.9016,-2.888,-2.9053,-2.9313,-2.9458,-2.9613,-2.9745,-2.9745,-2.9651,-2.9442,-2.9343,-2.9063,-2.8802,-2.9025,-2.9603,-3.0409,-3.1234,-3.2184,-3.3029,-3.3476,-3.392,-3.424,-3.4103,-3.4516,-3.4481,-3.2499,-3.1117,-3.047,-3.1373,-3.1257,-3.1308,-3.2398,-3.3449,-3.3967,-3.33,-3.4115,-3.4775,-3.4775,-3.4775,-3.4847,-3.5112,-3.4775,-3.4583,-3.4583,-3.4583,-3.4631,-3.4775,-3.4775,-3.4775,-3.4775,-3.4462,-3.4438,-3.4775,-3.5111,-3.5521,-3.5905,-3.6579,-3.7108,-3.7493,-3.7829,-3.7974,-3.7974,-3.7974,-3.7974,-3.7974,-3.7974,-3.7974,-3.7974,-3.7974,-3.7974,-3.7974,-3.7974,-3.7974,-3.7974,-3.7974,-3.7974,-3.7974,-3.7374,-3.7374,-3.7393,-3.7429,-3.7429,-3.7411,-3.7393,-3.7411,-3.7411,-3.7338,-3.7026,-3.6787,-3.6751,-3.6054,-3.5889,-3.6641,-3.5981,-3.554,-3.554,-3.4807,-3.4348,-3.433,-3.3945,-3.3358,-3.257,-3.2533,-3.1928,-3.0754,-2.9562,-2.8975,-2.8975,-2.8608,-2.8443,-2.8443,-2.8792,-2.8737,-2.8388,-2.837,-2.8553,-2.8828,-2.8077,-2.8281,-2.8924,-2.879,-2.904,-2.9356,-2.9394,-2.9133,-2.8663,-2.8449,-2.8077,-2.7785,-2.7803,-2.7803,-2.82,-3.0283,-3.091,-3.1171,-3.235,-3.1905,-3.1482,-3.2895,-3.2923,-3.2112,-3.0248,-2.9884,-2.985,-2.9562,-2.967,-3.0172,-3.1278,-3.2325,-3.3051,-3.3101,-3.3967,-3.4677,-3.4775,-3.4775,-3.5016,-3.5497,-3.5569,-3.5569,-3.5569,-3.5569,-3.5352,-3.4823,-3.4775,-3.4775,-3.4775,-3.4775,-3.4775,-3.4775,-3.4823,-3.5352,-3.6338,-3.6386,-3.6916,-3.7926,-3.7974,-3.7974,-3.7974,-3.7974,-3.7974,-3.7974,-3.7974,-3.7974,-3.7974,-3.7974,-3.7974,-3.7974,-3.7974,-3.7974,-3.7974,-3.7974,-3.7974,-3.7974,-3.6971,-3.6971,-3.7081,-3.7374,-3.7429,-3.7319,-3.7026,-3.7228,-3.7209,-3.6586,-3.6421,-3.6237,-3.5944,-3.5467,-3.5247,-3.5449,-3.499,-3.4678,-3.4678,-3.422,-3.3817,-3.3523,-3.3101,-3.2643,-3.2148,-3.1836,-3.1231,-3.0332,-2.9434,-2.8975,-2.8975,-2.8883,-2.8847,-2.8828,-2.8627,-2.848,-2.837,-2.804,-2.8024,-2.8097,-2.7895,-2.7932,-2.8134,-2.8413,-2.8357,-2.8268,-2.8523,-2.8376,-2.8026,-2.7969,-2.7636,-2.7417,-2.773,-2.762,-2.7566,-2.8726,-2.8936,-2.9108,-3.0026,-3.0677,-3.103,-3.0819,-3.0258,-2.9565,-2.8784,-2.8385,-2.8449,-2.9433,-2.9472,-2.9513,-3.0172,-3.0824,-3.144,-3.1869,-3.2728,-3.3648,-3.4677,-3.4775,-3.4823,-3.4943,-3.4967,-3.4967,-3.4967,-3.4967,-3.4968,-3.4799,-3.4775,-3.4775,-3.4775,-3.4775,-3.4775,-3.4775,-3.5232,-3.5545,-3.5809,-3.6194,-3.6723,-3.7372,-3.7781,-3.7974,-3.7974,-3.7974,-3.7974,-3.7974,-3.7974,-3.7974,-3.7974,-3.7974,-3.7974,-3.7974,-3.7974,-3.7974,-3.7974,-3.7974,-3.7974,-3.7974,-3.6549,-3.6549,-3.6622,-3.6824,-3.6861,-3.6787,-3.6586,-3.6732,-3.6714,-3.6274,-3.6054,-3.5852,-3.5632,-3.51,-3.4752,-3.4752,-3.4532,-3.4403,-3.4403,-3.3853,-3.345,-3.323,-3.2826,-3.2404,-3.2019,-3.1598,-3.0901,-2.991,-2.947,-2.9159,-2.8975,-2.8975,-2.8883,-2.87,-2.8498,-2.8297,-2.8077,-2.7673,-2.7656,-2.7785,-2.738,-2.7435,-2.7822,-2.782,-2.7801,-2.7858,-2.8022,-2.7838,-2.7546,-2.7546,-2.7233,-2.694,-2.716,-2.7086,-2.7031,-2.7655,-2.7915,-2.8293,-2.9487,-2.9834,-2.9776,-2.9348,-2.8886,-2.851,-2.8085,-2.7939,-2.807,-2.8616,-2.8501,-2.8422,-2.8721,-2.944,-3.0099,-3.0587,-3.144,-3.2353,-3.3201,-3.377,-3.4066,-3.4066,-3.4066,-3.4262,-3.4726,-3.436,-3.4262,-3.4775,-3.4775,-3.4775,-3.4775,-3.4775,-3.4775,-3.4775,-3.5112,-3.5376,-3.5617,-3.6386,-3.7036,-3.7565,-3.7853,-3.7974,-3.7974,-3.7974,-3.7974,-3.7974,-3.7974,-3.7974,-3.7974,-3.7974,-3.7974,-3.7974,-3.7974,-3.7974,-3.7974,-3.7974,-3.7974,-3.7974,-3.6201,-3.6201,-3.6201,-3.6201,-3.6164,-3.6109,-3.6109,-3.6072,-3.5999,-3.5944,-3.565,-3.5412,-3.5357,-3.4733,-3.4293,-3.422,-3.422,-3.422,-3.422,-3.3596,-3.3175,-3.3046,-3.2698,-3.2313,-3.1928,-3.1451,-3.0662,-2.9562,-2.9507,-2.9305,-2.8975,-2.8975,-2.881,-2.848,-2.8425,-2.8168,-2.7803,-2.7473,-2.7454,-2.7526,-2.6921,-2.705,-2.762,-2.7288,-2.7343,-2.7656,-2.7711,-2.7416,-2.7086,-2.7086,-2.6866,-2.6591,-2.6591,-2.6628,-2.6756,-2.7141,-2.7601,-2.8216,-2.9565,-2.92,-2.8462,-2.8333,-2.8352,-2.8278,-2.7914,-2.7992,-2.8088,-2.7809,-2.7528,-2.7408,-2.7463,-2.8194,-2.8953,-2.9732,-3.0349,-3.0979,-3.1775,-3.2471,-3.2878,-3.2878,-3.2951,-3.33,-3.4213,-3.3717,-3.3641,-3.4482,-3.4651,-3.47,-3.4775,-3.47,-3.4748,-3.4895,-3.4895,-3.5208,-3.5737,-3.6699,-3.7421,-3.7853,-3.795,-3.7974,-3.7974,-3.7974,-3.7974,-3.7974,-3.7974,-3.7974,-3.7974,-3.7974,-3.7974,-3.7974,-3.7974,-3.7974,-3.7974,-3.7974,-3.7974,-3.7974,-3.6201,-3.6201,-3.6201,-3.6201,-3.5925,-3.5705,-3.5705,-3.543,-3.5082,-3.4733,-3.4623,-3.4458,-3.4128,-3.3982,-3.378,-3.3431,-3.3413,-3.3413,-3.3413,-3.3303,-3.2918,-3.2221,-3.2129,-3.1909,-3.1488,-3.0754,-3.0112,-2.9562,-2.9232,-2.9048,-2.8975,-2.8975,-2.8957,-2.8883,-2.8535,-2.8168,-2.7822,-2.7748,-2.7325,-2.6793,-2.6995,-2.6958,-2.6811,-2.7068,-2.7013,-2.6811,-2.7141,-2.7013,-2.6683,-2.6683,-2.6628,-2.6591,-2.6591,-2.6811,-2.716,-2.762,-2.7967,-2.8373,-2.8602,-2.8803,-2.8718,-2.804,-2.8132,-2.8278,-2.7914,-2.7822,-2.8009,-2.8516,-2.7882,-2.7364,-2.7842,-2.7396,-2.8003,-3.1043,-3.0086,-2.9994,-3.2862,-3.2192,-3.1418,-3.1418,-3.1666,-3.192,-3.2095,-3.3186,-3.3761,-3.3496,-3.3843,-3.4313,-3.4799,-3.4366,-3.4551,-3.5447,-3.5497,-3.5737,-3.6266,-3.6892,-3.7228,-3.7324,-3.7757,-3.7974,-3.7974,-3.7974,-3.7974,-3.7974,-3.7974,-3.7974,-3.7974,-3.7974,-3.7974,-3.7974,-3.7974,-3.7974,-3.7974,-3.7974,-3.7974,-3.7974,-3.5889,-3.5724,-3.5577,-3.5577,-3.543,-3.5302,-3.5302,-3.5155,-3.4954,-3.477,-3.455,-3.433,-3.4147,-3.3743,-3.3413,-3.3248,-3.301,-3.279,-3.2588,-3.257,-3.2404,-3.2019,-3.1781,-3.1377,-3.0754,-3.0387,-2.9892,-2.925,-2.9067,-2.8975,-2.8975,-2.8975,-2.8975,-2.8975,-2.8572,-2.8278,-2.8077,-2.7636,-2.7233,-2.6903,-2.6866,-2.6756,-2.6609,-2.6793,-2.6756,-2.6609,-2.6793,-2.6738,-2.6591,-2.6591,-2.6591,-2.6591,-2.6591,-2.6719,-2.694,-2.7325,-2.7893,-2.8443,-2.8645,-2.837,-2.8077,-2.8352,-2.8242,-2.8113,-2.837,-2.826,-2.8208,-2.8508,-2.786,-2.7289,-2.7493,-2.7013,-2.7172,-2.8979,-2.8413,-2.8354,-3.0022,-3.012,-3.013,-3.0485,-3.0706,-3.1179,-3.2224,-3.2441,-3.2621,-3.2975,-3.328,-3.3533,-3.3748,-3.354,-3.3935,-3.5039,-3.5673,-3.629,-3.6819,-3.7084,-3.7348,-3.7613,-3.7853,-3.7974,-3.7974,-3.7974,-3.7974,-3.7974,-3.7685,-3.7709,-3.795,-3.7685,-3.7733,-3.7974,-3.7974,-3.7974,-3.7974,-3.7974,-3.7974,-3.7974,-3.5485,-3.5247,-3.5027,-3.5027,-3.4954,-3.488,-3.488,-3.4807,-3.4752,-3.4752,-3.4458,-3.4257,-3.4257,-3.3651,-3.3175,-3.3083,-3.2698,-3.2294,-3.1891,-3.1854,-3.1854,-3.1854,-3.1469,-3.0919,-3.0222,-3.0112,-2.9709,-2.8975,-2.8975,-2.8975,-2.8975,-2.8975,-2.8975,-2.8975,-2.8572,-2.8388,-2.8352,-2.7618,-2.727,-2.7141,-2.6848,-2.6664,-2.6591,-2.6591,-2.6591,-2.6591,-2.6591,-2.6591,-2.6591,-2.6591,-2.6591,-2.6591,-2.6591,-2.6719,-2.6921,-2.7233,-2.7765,-2.8333,-2.8737,-2.8168,-2.7673,-2.8608,-2.8355,-2.8005,-2.8682,-2.8608,-2.8425,-2.8517,-2.7967,-2.7453,-2.7453,-2.705,-2.6957,-2.7578,-2.7264,-2.7135,-2.7752,-2.8398,-2.8945,-2.9445,-2.9748,-3.0418,-3.1888,-3.1634,-3.1709,-3.247,-3.261,-3.2739,-3.2899,-3.2793,-3.3278,-3.4509,-3.5907,-3.6843,-3.7372,-3.7372,-3.7589,-3.7974,-3.7974,-3.7974,-3.7974,-3.7974,-3.7974,-3.795,-3.7541,-3.7613,-3.795,-3.7541,-3.7613,-3.7974,-3.7974,-3.7974,-3.7974,-3.7974,-3.7974,-3.7974,-3.5082,-3.5045,-3.5027,-3.5027,-3.4697,-3.444,-3.444,-3.4147,-3.3908,-3.3908,-3.3872,-3.3853,-3.3853,-3.3468,-3.3065,-3.268,-3.2276,-3.1873,-3.1451,-3.1414,-3.1414,-3.1414,-3.1047,-3.0626,-3.0204,-2.9819,-2.9415,-2.8975,-2.8975,-2.8975,-2.8975,-2.8975,-2.8975,-2.8975,-2.8572,-2.8388,-2.837,-2.7911,-2.7564,-2.7178,-2.7141,-2.6921,-2.6591,-2.6591,-2.6591,-2.6591,-2.6591,-2.6591,-2.6591,-2.6591,-2.6591,-2.6591,-2.6591,-2.7086,-2.7748,-2.7767,-2.7822,-2.7893,-2.8315,-2.837,-2.8333,-2.8407,-2.8095,-2.7932,-2.8333,-2.8407,-2.8498,-2.8865,-2.8608,-2.8297,-2.8297,-2.7673,-2.7734,-2.9522,-2.8024,-2.7229,-2.9021,-2.8356,-2.7752,-2.7789,-2.8611,-2.9252,-2.9402,-3.0949,-3.1788,-3.1353,-3.1781,-3.2319,-3.2867,-3.2386,-3.2754,-3.4371,-3.6191,-3.7397,-3.7926,-3.7926,-3.795,-3.7974,-3.7974,-3.7974,-3.7974,-3.7974,-3.7974,-3.7974,-3.795,-3.795,-3.7974,-3.795,-3.795,-3.7974,-3.7974,-3.7974,-3.7974,-3.7974,-3.7974,-3.7974,-3.4642,-3.444,-3.4275,-3.4275,-3.4147,-3.4037,-3.4037,-3.3908,-3.3817,-3.3817,-3.3817,-3.3817,-3.3817,-3.323,-3.2771,-3.2606,-3.2001,-3.1543,-3.1396,-3.1377,-3.1377,-3.1377,-3.1231,-3.0846,-3.0222,-3.0039,-2.9635,-2.8975,-2.8975,-2.8975,-2.8975,-2.8975,-2.8975,-2.8975,-2.8828,-2.8755,-2.8737,-2.8333,-2.7911,-2.7583,-2.727,-2.694,-2.6591,-2.6591,-2.6591,-2.6591,-2.6591,-2.6591,-2.6591,-2.6591,-2.6591,-2.6628,-2.6885,-2.716,-2.7509,-2.7748,-2.8132,-2.8498,-2.8425,-2.8022,-2.782,-2.8572,-2.8462,-2.826,-2.8663,-2.8755,-2.881,-2.8957,-2.8663,-2.8388,-2.8388,-2.793,-2.7807,-2.8502,-2.7902,-2.7586,-2.8313,-2.8033,-2.7863,-2.8274,-2.8671,-2.9164,-2.9815,-3.0546,-3.1025,-3.1,-3.1197,-3.1445,-3.1661,-3.2143,-3.2705,-3.3346,-3.4714,-3.5916,-3.6881,-3.6881,-3.7281,-3.7974,-3.7974,-3.7974,-3.7974,-3.7974,-3.7974,-3.7974,-3.7637,-3.7685,-3.795,-3.7637,-3.7685,-3.7974,-3.7974,-3.7974,-3.7974,-3.7974,-3.7974,-3.7974,-3.422,-3.4,-3.378,-3.3651,-3.3633,-3.3633,-3.3633,-3.3633,-3.367,-3.3798,-3.3817,-3.3817,-3.3817,-3.3193,-3.2735,-3.2606,-3.1964,-3.1524,-3.1396,-3.1377,-3.1377,-3.1377,-3.1267,-3.0882,-3.0222,-3.0075,-2.9672,-2.8975,-2.8975,-2.8975,-2.8975,-2.8975,-2.8975,-2.8975,-2.8847,-2.8865,-2.8957,-2.8425,-2.8022,-2.7785,-2.7343,-2.694,-2.6591,-2.6591,-2.6591,-2.6591,-2.6591,-2.6591,-2.6591,-2.6591,-2.6664,-2.6811,-2.7086,-2.7343,-2.7636,-2.804,-2.8462,-2.8773,-2.8627,-2.8077,-2.7783,-2.8737,-2.8682,-2.8498,-2.8902,-2.8975,-2.8975,-2.8975,-2.8773,-2.859,-2.859,-2.8242,-2.7967,-2.7967,-2.7914,-2.7822,-2.7822,-2.7932,-2.8173,-2.8623,-2.8888,-2.9367,-3.0177,-3.0333,-3.0509,-3.0879,-3.0898,-3.0898,-3.0898,-3.1672,-3.2133,-3.2133,-3.2892,-3.3888,-3.508,-3.5466,-3.6068,-3.6881,-3.6881,-3.6881,-3.6881,-3.6881,-3.6881,-3.6858,-3.6507,-3.6554,-3.6858,-3.6484,-3.6554,-3.6881,-3.6881,-3.6881,-3.6881,-3.6881,-3.6881,-3.6881,-3.3817,-3.3817,-3.3688,-3.3303,-3.323,-3.323,-3.323,-3.323,-3.3358,-3.3762,-3.3817,-3.3817,-3.3817,-3.3468,-3.3065,-3.2625,-3.2239,-3.1836,-3.1396,-3.1377,-3.1377,-3.1377,-3.0992,-3.0607,-3.0204,-2.9782,-2.9379,-2.8975,-2.8975,-2.8975,-2.8975,-2.8975,-2.8975,-2.8975,-2.8572,-2.8627,-2.8938,-2.8113,-2.7822,-2.7785,-2.7343,-2.694,-2.6591,-2.6591,-2.6591,-2.6591,-2.6591,-2.6591,-2.6591,-2.6591,-2.6848,-2.7178,-2.7178,-2.7746,-2.848,-2.8865,-2.87,-2.848,-2.8883,-2.87,-2.8498,-2.8883,-2.8682,-2.8498,-2.8902,-2.8975,-2.8975,-2.8975,-2.8975,-2.8975,-2.8975,-2.8663,-2.8407,-2.8407,-2.804,-2.784,-2.784,-2.8132,-2.8407,-2.8407,-2.9031,-2.9627,-2.9863,-3.0216,-3.0509,-3.0879,-3.0898,-3.0898,-3.0898,-3.0898,-3.0898,-3.0898,-3.0898,-3.146,-3.2685,-3.3832,-3.4391,-3.4391,-3.4391,-3.4391,-3.4391,-3.4391,-3.4391,-3.4391,-3.4391,-3.4391,-3.4391,-3.4391,-3.4391,-3.4391,-3.4391,-3.4391,-3.4391,-3.4391,-3.4391,-3.4391,-3.3817,-3.3817,-3.3688,-3.3303,-3.323,-3.312,-3.2826,-3.3028,-3.3266,-3.3376,-3.3633,-3.3817,-3.3817,-3.3468,-3.3065,-3.2625,-3.2239,-3.1836,-3.1396,-3.1377,-3.1377,-3.1377,-3.0992,-3.0607,-3.0204,-2.9782,-2.9379,-2.8975,-2.8975,-2.8975,-2.8975,-2.8975,-2.8975,-2.8975,-2.8865,-2.8865,-2.8957,-2.8425,-2.804,-2.7785,-2.7343,-2.694,-2.6591,-2.6591,-2.6591,-2.6591,-2.6591,-2.6591,-2.6628,-2.6903,-2.7086,-2.727,-2.7856,-2.8388,-2.8828,-2.8957,-2.8902,-2.8828,-2.8957,-2.8902,-2.8828,-2.8957,-2.8902,-2.8847,-2.8957,-2.8975,-2.8975,-2.8975,-2.8975,-2.8975,-2.8975,-2.8883,-2.881,-2.881,-2.87,-2.8627,-2.8627,-2.8737,-2.881,-2.881,-2.902,-2.9272,-2.9568,-2.9686,-2.9981,-3.0509,-3.0762,-3.0898,-3.0898,-3.0898,-3.0898,-3.0898,-3.0898,-3.1054,-3.146,-3.2628,-3.3628,-3.4391,-3.4391,-3.4391,-3.4391,-3.4391,-3.4391,-3.4391,-3.4391,-3.4391,-3.4391,-3.4391,-3.4391,-3.4391,-3.4391,-3.4391,-3.4391,-3.4391,-3.4391,-3.4391,-3.3615,-3.3578,-3.3395,-3.2845,-3.2753,-3.2716,-3.2606,-3.2808,-3.3083,-3.3413,-3.367,-3.3762,-3.3596,-3.3376,-3.2991,-3.2404,-3.2001,-3.1653,-3.1396,-3.1377,-3.1377,-3.1377,-3.0846,-3.0442,-3.0204,-2.9782,-2.9379,-2.8975,-2.8975,-2.8975,-2.8975,-2.8975,-2.8975,-2.8975,-2.8975,-2.8902,-2.8737,-2.8498,-2.8058,-2.7508,-2.727,-2.694,-2.6591,-2.6591,-2.6683,-2.6811,-2.6646,-2.6683,-2.6848,-2.7105,-2.7398,-2.7765,-2.8425,-2.8792,-2.8975,-2.8975,-2.8975,-2.8975,-2.8975,-2.8975,-2.8975,-2.8975,-2.8975,-2.8975,-2.8975,-2.8975,-2.8975,-2.8975,-2.8975,-2.8975,-2.8975,-2.8975,-2.8975,-2.8975,-2.8975,-2.8975,-2.8975,-2.8975,-2.8975,-2.8975,-2.8975,-2.9153,-2.945,-2.9509,-2.9745,-3.0333,-3.0567,-3.0762,-3.0898,-3.0898,-3.0898,-3.0898,-3.0898,-3.0898,-3.0898,-3.1614,-3.2342,-3.3006,-3.3006,-3.3006,-3.3006,-3.3006,-3.3006,-3.3006,-3.3006,-3.3006,-3.3006,-3.3006,-3.3006,-3.3006,-3.3006,-3.3006,-3.3006,-3.3006,-3.3006,-3.3006,-3.334,-3.3248,-3.2973,-3.2203,-3.2056,-3.2166,-3.2496,-3.2606,-3.2918,-3.367,-3.3762,-3.3633,-3.3266,-3.3193,-3.2863,-3.2074,-3.1616,-3.1377,-3.1377,-3.1341,-3.1341,-3.1377,-3.0589,-3.0167,-3.0204,-2.9745,-2.9342,-2.8975,-2.8975,-2.8975,-2.8975,-2.8975,-2.8975,-2.8975,-2.8975,-2.8773,-2.8388,-2.8352,-2.7893,-2.7178,-2.7141,-2.6903,-2.6591,-2.6628,-2.6866,-2.7123,-2.6774,-2.6885,-2.7233,-2.727,-2.7801,-2.8517,-2.8865,-2.8975,-2.8975,-2.8975,-2.8975,-2.8975,-2.8975,-2.8975,-2.8975,-2.8975,-2.8975,-2.8975,-2.8975,-2.8975,-2.8975,-2.8975,-2.8975,-2.8975,-2.8975,-2.8975,-2.8975,-2.8975,-2.8975,-2.8975,-2.8975,-2.8975,-2.8975,-2.8975,-2.8975,-2.9094,-2.945,-2.9509,-2.9745,-3.0274,-3.0333,-3.0509,-3.0762,-3.082,-3.082,-3.082,-3.084,-3.0879,-3.0898,-3.0898,-3.0898,-3.0898,-3.0898,-3.0898,-3.0898,-3.0898,-3.0898,-3.0898,-3.0898,-3.0898,-3.0898,-3.0898,-3.0898,-3.0898,-3.0898,-3.0898,-3.0898,-3.0898,-3.0898,-3.0898,-3.3707,-3.3431,-3.3065,-3.2551,-3.2459,-3.2386,-3.2166,-3.268,-3.3156,-3.3321,-3.3358,-3.3321,-3.323,-3.2936,-3.2533,-3.2056,-3.1616,-3.1377,-3.1377,-3.1084,-3.1047,-3.1359,-3.0296,-2.9874,-3.0185,-2.9489,-2.9067,-2.8975,-2.8975,-2.8975,-2.8975,-2.8975,-2.8975,-2.8975,-2.8975,-2.8773,-2.837,-2.804,-2.7675,-2.7141,-2.6848,-2.6664,-2.6628,-2.694,-2.7105,-2.716,-2.7086,-2.7306,-2.7748,-2.8022,-2.8462,-2.8865,-2.8957,-2.8975,-2.8975,-2.8975,-2.8975,-2.8975,-2.8975,-2.8975,-2.8975,-2.8975,-2.8975,-2.8975,-2.8975,-2.8975,-2.8975,-2.8975,-2.8975,-2.8975,-2.8975,-2.8975,-2.8975,-2.8975,-2.8975,-2.8975,-2.8975,-2.8975,-2.8975,-2.8975,-2.8975,-2.9035,-2.9094,-2.9331,-2.9568,-2.9686,-2.9922,-3.0039,-3.0098,-3.0098,-3.0216,-3.0509,-3.0509,-3.0645,-3.0898,-3.0898,-3.0898,-3.0898,-3.0898,-3.0898,-3.0898,-3.0898,-3.0898,-3.0898,-3.0898,-3.0898,-3.0898,-3.0898,-3.0898,-3.0898,-3.0898,-3.0898,-3.0898,-3.0898,-3.0898,-3.0898,-3.3266,-3.323,-3.3101,-3.2661,-3.2441,-3.2313,-3.2294,-3.2496,-3.2716,-3.29,-3.2918,-3.2845,-3.2661,-3.2441,-3.2148,-3.1744,-3.1506,-3.1377,-3.1377,-3.1176,-3.1084,-3.1102,-3.0314,-2.9874,-2.9892,-2.9287,-2.8975,-2.8975,-2.8975,-2.8975,-2.8975,-2.8975,-2.8975,-2.8975,-2.8975,-2.8645,-2.8077,-2.7914,-2.7601,-2.716,-2.6958,-2.6976,-2.7178,-2.7436,-2.7509,-2.7509,-2.7509,-2.771,-2.8095,-2.8315,-2.8663,-2.8975,-2.8975,-2.8975,-2.8975,-2.8975,-2.8975,-2.8975,-2.8975,-2.8975,-2.8975,-2.8975,-2.8975,-2.8975,-2.8975,-2.8975,-2.8975,-2.8975,-2.8975,-2.8975,-2.8975,-2.8975,-2.8975,-2.8975,-2.8975,-2.8975,-2.8975,-2.8975,-2.8975,-2.8975,-2.8975,-2.8975,-2.8975,-2.9153,-2.9331,-2.9509,-2.9627,-2.9745,-2.9863,-2.9922,-2.9981,-3.0157,-3.0157,-3.0216,-3.0411,-3.0411,-3.0411,-3.0411,-3.0762,-3.0898,-3.0898,-3.0898,-3.0898,-3.0898,-3.0704,-3.0645,-3.0645,-3.0645,-3.0645,-3.0704,-3.082,-3.0898,-3.0898,-3.0898,-3.0898,-3.0898,-3.268,-3.2881,-3.2991,-3.257,-3.2221,-3.2111,-3.2441,-3.2276,-3.2221,-3.2551,-3.2533,-3.2368,-3.2038,-3.1946,-3.1763,-3.1414,-3.1377,-3.1377,-3.1377,-3.1322,-3.1139,-3.0809,-3.0351,-2.9929,-2.9641,-2.9195,-2.8975,-2.8975,-2.8975,-2.8975,-2.8975,-2.8975,-2.8975,-2.8975,-2.8975,-2.8572,-2.7875,-2.7875,-2.7693,-2.727,-2.727,-2.7528,-2.7822,-2.7822,-2.7877,-2.7856,-2.7767,-2.7893,-2.8223,-2.8425,-2.8663,-2.8902,-2.8957,-2.8975,-2.8975,-2.8975,-2.8975,-2.8975,-2.8975,-2.8975,-2.8975,-2.8975,-2.8975,-2.8975,-2.8975,-2.8975,-2.8975,-2.8975,-2.8975,-2.8975,-2.8975,-2.8975,-2.8975,-2.8975,-2.8975,-2.8975,-2.8975,-2.8975,-2.8975,-2.8975,-2.8975,-2.8975,-2.8975,-2.8975,-2.9094,-2.939,-2.939,-2.9509,-2.9745,-2.9745,-2.9745,-2.9804,-2.9804,-2.9863,-2.9922,-2.9922,-2.9922,-2.9922,-3.047,-3.0704,-3.0704,-3.0704,-3.0704,-3.0704,-3.045,-3.0333,-3.0333,-3.0333,-3.0333,-3.0333,-3.0645,-3.0704,-3.0704,-3.0704,-3.0704,-3.0704,-3.268,-3.2643,-3.2551,-3.2148,-3.2038,-3.2019,-3.2074,-3.2331,-3.2533,-3.2588,-3.2294,-3.2074,-3.2019,-3.1689,-3.1433,-3.1377,-3.1377,-3.1377,-3.1377,-3.1047,-3.0846,-3.0791,-3.0057,-2.9635,-2.9562,-2.9195,-2.8975,-2.8975,-2.8975,-2.8975,-2.8975,-2.8975,-2.8975,-2.8975,-2.8975,-2.8737,-2.8315,-2.8315,-2.8077,-2.7748,-2.7748,-2.7767,-2.7822,-2.7822,-2.7985,-2.8223,-2.7508,-2.7288,-2.7508,-2.8553,-2.8718,-2.8535,-2.8883,-2.8975,-2.8975,-2.8975,-2.8975,-2.8975,-2.8975,-2.8975,-2.8975,-2.8975,-2.8975,-2.8975,-2.8975,-2.8975,-2.8975,-2.8975,-2.8975,-2.8975,-2.8975,-2.8975,-2.8975,-2.8975,-2.8975,-2.8975,-2.8975,-2.8975,-2.8975,-2.8975,-2.8975,-2.8975,-2.8975,-2.8975,-2.9035,-2.9035,-2.9035,-2.9094,-2.9094,-2.9094,-2.9272,-2.9568,-2.9568,-2.9686,-2.9922,-2.9922,-2.9922,-2.9922,-2.9981,-3.0039,-3.0039,-3.0039,-3.0039,-3.0039,-2.9981,-2.9981,-2.9981,-2.9981,-2.9981,-2.9981,-3.0039,-3.0039,-3.0039,-3.0039,-3.0039,-3.0039,-3.2162,-3.2441,-3.2533,-3.2368,-3.2148,-3.2001,-3.2001,-3.1946,-3.1909,-3.1909,-3.1763,-3.1653,-3.1653,-3.1488,-3.1377,-3.1377,-3.1377,-3.1377,-3.1377,-3.1212,-3.0919,-3.0479,-3.0112,-2.9709,-2.925,-2.9067,-2.8975,-2.8975,-2.8975,-2.8975,-2.8975,-2.8975,-2.8975,-2.8975,-2.8975,-2.8773,-2.8388,-2.8388,-2.8278,-2.8113,-2.8113,-2.8113,-2.815,-2.837,-2.8278,-2.8022,-2.7911,-2.8003,-2.826,-2.881,-2.8865,-2.8755,-2.892,-2.8975,-2.8975,-2.8975,-2.8975,-2.8975,-2.8975,-2.8975,-2.8975,-2.8975,-2.8975,-2.8975,-2.8975,-2.8975,-2.8975,-2.8975,-2.8975,-2.8975,-2.8975,-2.8975,-2.8975,-2.8975,-2.8975,-2.8975,-2.8975,-2.8975,-2.8975,-2.8975,-2.8975,-2.8975,-2.8975,-2.8975,-2.8975,-2.8975,-2.8975,-2.8975,-2.8975,-2.8975,-2.9035,-2.9213,-2.9213,-2.9272,-2.939,-2.939,-2.939,-2.939,-2.939,-2.9568,-2.9922,-2.9922,-2.9922,-2.9863,-2.9745,-2.9686,-2.9686,-2.9686,-2.9686,-2.9686,-2.9863,-2.9922,-2.9922,-2.9922,-2.9922,-2.9922]}]]